[[[{"header":{"parameterUnit":"kt","parameterCategory":2,"dx":1,"dy":1,"la1":29.587661999999998,"la2":31.0,"lo1":-88.76705300000003,"lo2":-86.6583820000003,"nx":115,"ny":88,"refTime":"2022-10-24T12:00:00:Z","depth":0,"parameterNumber":1,"parameterNumberName":"U-component_of_WINDS"},"data":[-15.0398,-15.0382,-15.0263,-15.008,-15.0087,-15.1302,-15.213,-15.2864,-15.5369,-15.6953,-15.7613,-15.8739,-15.9243,-15.9288,-15.9333,-15.9629,-15.9598,-15.9756,-15.9804,-15.9913,-15.9966,-15.9988,-15.9932,-15.9932,-15.9956,-15.9963,-15.9898,-15.9981,-15.9811,-15.9826,-15.9826,-15.9619,-15.9905,-15.9902,-15.9713,-15.9759,-15.9911,-15.9911,-15.9911,-16.0291,-16.0746,-16.2028,-16.3517,-16.4809,-16.625,-16.6486,-16.7,-16.7894,-16.778,-16.6474,-16.386,-16.0873,-15.9054,-15.8169,-15.7928,-15.7854,-15.8288,-15.9193,-15.9607,-15.9892,-15.9842,-16.0504,-15.9295,-15.8556,-15.8097,-15.721,-15.643,-15.5612,-15.5462,-15.5462,-15.6006,-15.6075,-15.6274,-15.6236,-15.6078,-15.5875,-15.493,-15.3563,-15.2099,-15.1067,-15.0207,-14.9742,-14.9457,-14.804,-14.643,-14.5529,-14.4756,-14.4627,-14.4177,-14.4177,-14.4177,-14.3916,-14.352,-14.2391,-14.1106,-14.1106,-13.9165,-13.6077,-13.3502,-13.2178,-13.1302,-13.0415,-12.9997,-12.9517,-12.9035,-12.8366,-12.782,-12.733,-12.7197,-12.7574,-12.7809,-12.8769,-13.0066,-13.1195,-13.2098,-15.3608,-15.3456,-15.2126,-15.0884,-15.0036,-15.0141,-15.1042,-15.2312,-15.292,-15.473,-15.6842,-15.5951,-15.6431,-15.7132,-15.7635,-15.8632,-15.9285,-15.9226,-15.9746,-15.9865,-16.0008,-16.0017,-15.9956,-15.9968,-15.9973,-15.9981,-15.9987,-15.9987,-15.9987,-15.9987,-15.9987,-15.9911,-15.9911,-15.9911,-15.9911,-15.9987,-16.0215,-16.0291,-16.0519,-16.0974,-16.2113,-16.3404,-16.4772,-16.5578,-16.6204,-16.6729,-16.7567,-16.7679,-16.645,-16.4415,-16.1606,-15.9533,-15.8313,-15.8288,-15.8361,-15.8902,-15.9314,-15.9859,-16.0233,-16.0006,-15.9614,-15.9202,-15.7962,-15.721,-15.7,-15.6355,-15.584,-15.5381,-15.5381,-15.5797,-15.6838,-15.7363,-15.7935,-15.8149,-15.7994,-15.7744,-15.5798,-15.4002,-15.2438,-15.0712,-14.9789,-14.8951,-14.8169,-14.6946,-14.5722,-14.4756,-14.4241,-14.4177,-14.4177,-14.4177,-14.4177,-14.3916,-14.3058,-14.1783,-14.0693,-13.9165,-13.6798,-13.4125,-13.2583,-13.1712,-13.1067,-13.0415,-12.9757,-12.9277,-12.8609,-12.8179,-12.7444,-12.7177,-12.7551,-12.7866,-12.8656,-12.9558,-13.08,-13.1816,-13.2662,-15.4674,-15.5389,-15.2943,-15.1048,-15.0013,-14.9884,-15.0263,-15.1087,-15.1973,-15.3249,-15.4206,-15.3853,-15.4252,-15.5712,-15.5788,-15.6617,-15.8091,-15.8368,-15.8924,-15.9674,-15.9893,-15.9968,-15.9973,-15.9978,-15.9984,-15.9987,-15.9987,-15.9987,-15.9987,-15.9987,-15.9987,-15.9986,-15.9986,-15.9984,-15.9981,-16.0057,-16.0443,-16.135,-16.1506,-16.2645,-16.4543,-16.51,-16.6021,-16.7,-16.7205,-16.6978,-16.7337,-16.607,-16.4804,-16.2793,-15.9642,-15.8016,-15.7459,-15.8495,-15.9314,-15.9679,-15.9914,-16.0243,-15.9881,-15.9146,-15.8097,-15.7625,-15.6716,-15.621,-15.5987,-15.6266,-15.5589,-15.5936,-15.5936,-15.667,-15.7778,-15.844,-15.9039,-15.9147,-15.8837,-15.7971,-15.6224,-15.4269,-15.2541,-15.0745,-14.9199,-14.8298,-14.701,-14.5851,-14.5143,-14.4177,-14.4177,-14.4177,-14.4177,-14.4177,-14.4177,-14.3916,-14.2253,-14.09,-13.9414,-13.7042,-13.4938,-13.3393,-13.1537,-13.1301,-13.1178,-13.0468,-12.9575,-12.8909,-12.8236,-12.7917,-12.7879,-12.7721,-12.8035,-12.8938,-12.9728,-13.0405,-13.1421,-13.2493,-13.3057,-15.5838,-15.6893,-15.4008,-15.1796,-15.0414,-15.0,-14.9861,-15.0013,-15.1263,-15.1671,-15.1637,-15.1751,-15.2544,-15.3962,-15.3992,-15.4817,-15.6482,-15.7169,-15.7982,-15.8617,-15.9829,-15.9978,-15.9984,-15.9984,-15.9986,-15.9987,-15.9987,-15.9987,-15.9987,-15.9987,-15.9986,-15.9978,-15.9978,-16.0433,-16.0804,-16.0682,-16.145,-16.2817,-16.3278,-16.4645,-16.623,-16.6773,-16.6846,-16.7446,-16.6995,-16.6405,-16.611,-16.4663,-16.3152,-16.1953,-15.8508,-15.6792,-15.5805,-15.8446,-15.9635,-15.9684,-15.9644,-15.9384,-15.89,-15.8033,-15.714,-15.65,-15.5987,-15.5612,-15.552,-15.5728,-15.6075,-15.6491,-15.6962,-15.7899,-15.8669,-15.9245,-15.9796,-15.9535,-15.9579,-15.7746,-15.6103,-15.4302,-15.2626,-15.0745,-14.8749,-14.7332,-14.6044,-14.5078,-14.437,-14.4177,-14.4177,-14.4177,-14.4177,-14.4177,-14.4177,-14.2848,-14.1295,-13.9326,-13.719,-13.542,-13.418,-13.2535,-13.2234,-13.1937,-13.134,-13.1448,-13.131,-12.9944,-12.862,-12.8922,-12.8933,-12.8599,-12.9163,-13.0236,-13.1026,-13.1477,-13.238,-13.3001,-13.3452,-15.824,-15.7941,-15.6118,-15.3828,-15.1644,-15.0458,-14.9973,-14.9897,-15.0272,-15.0007,-15.0063,-15.0,-15.1114,-15.2075,-15.2151,-15.306,-15.4438,-15.5766,-15.6538,-15.7292,-15.8847,-15.9834,-15.9835,-15.9987,-15.9987,-15.9987,-15.9986,-15.9984,-15.9986,-15.9984,-16.0054,-15.9968,-16.0108,-16.0919,-16.1863,-16.1867,-16.2762,-16.4085,-16.5113,-16.5567,-16.7009,-16.7528,-16.7725,-16.7065,-16.5745,-16.4663,-16.4952,-16.3794,-16.1819,-16.124,-16.0185,-15.9452,-15.8913,-15.9523,-15.9766,-15.9777,-15.8946,-15.8505,-15.7695,-15.7,-15.6355,-15.584,-15.5312,-15.5451,-15.6006,-15.6491,-15.7462,-15.8017,-15.8779,-15.9473,-16.0203,-16.0778,-16.0922,-16.0828,-16.0195,-15.8924,-15.7171,-15.5446,-15.3192,-15.023,-14.8233,-14.643,-14.5207,-14.4821,-14.4177,-14.4177,-14.4177,-14.4177,-14.4177,-14.3916,-14.3249,-14.188,-13.985,-13.7655,-13.5842,-13.5008,-13.3709,-13.3212,-13.362,-13.3318,-13.2736,-13.2841,-13.3176,-13.1479,-12.9969,-13.0092,-13.0039,-12.9897,-13.0292,-13.1364,-13.2098,-13.2549,-13.3001,-13.3452,-13.3791,-15.7555,-15.773,-15.6178,-15.5005,-15.4045,-15.2144,-15.1275,-15.1485,-15.2357,-15.1407,-14.9924,-15.0811,-15.0915,-15.0687,-15.0632,-15.1209,-15.2779,-15.3817,-15.5257,-15.636,-15.7816,-15.891,-15.9758,-15.9987,-15.9986,-15.9984,-15.9981,-15.9968,-15.9978,-16.0044,-16.053,-16.0912,-16.1049,-16.1948,-16.2727,-16.3127,-16.4155,-16.5186,-16.5695,-16.5499,-16.4922,-16.4233,-16.4282,-16.3842,-16.3454,-16.3381,-16.3713,-16.2425,-16.097,-16.004,-15.8699,-15.8373,-15.8615,-15.8569,-15.8704,-15.8758,-15.8033,-15.728,-15.6858,-15.6355,-15.584,-15.5462,-15.5312,-15.5646,-15.6408,-15.7069,-15.8332,-15.9559,-16.0275,-16.1025,-16.1621,-16.2251,-16.1906,-16.1897,-16.0856,-16.0061,-15.8128,-15.6218,-15.3385,-15.0101,-14.7783,-14.5915,-14.4949,-14.4434,-14.4177,-14.437,-14.4434,-14.4499,-14.4232,-14.3496,-14.2116,-14.1149,-13.8831,-13.6491,-13.5951,-13.543,-13.4582,-13.4261,-13.454,-13.4598,-13.4074,-13.364,-13.3376,-13.232,-13.1507,-13.1143,-13.1396,-13.1195,-13.1421,-13.238,-13.3226,-13.3283,-13.3452,-13.3791,-13.3791,-15.6115,-15.6953,-15.5638,-15.5451,-15.5705,-15.4642,-15.3886,-15.368,-15.4211,-15.3485,-15.1142,-15.2253,-15.1871,-15.0016,-14.9878,-15.031,-15.0838,-15.1692,-15.3767,-15.5369,-15.6861,-15.8262,-15.9285,-15.9898,-15.9968,-15.9963,-15.9865,-15.9761,-15.9913,-16.035,-16.0977,-16.1996,-16.2349,-16.3191,-16.3715,-16.3661,-16.4518,-16.5064,-16.4173,-16.3662,-16.28,-16.2507,-16.2485,-16.2359,-16.2072,-16.2478,-16.2357,-16.1043,-15.9716,-15.8892,-15.7509,-15.6512,-15.6832,-15.7046,-15.7024,-15.7326,-15.693,-15.65,-15.6355,-15.5692,-15.5312,-15.5312,-15.5186,-15.5946,-15.6462,-15.7316,-15.8505,-15.9959,-16.0994,-16.1381,-16.1855,-16.1972,-16.1908,-16.1391,-16.0534,-15.9161,-15.7547,-15.5381,-15.2677,-14.965,-14.759,-14.598,-14.5658,-14.5271,-14.54,-14.5014,-14.4751,-14.461,-14.4262,-14.2602,-14.1345,-14.0343,-13.8626,-13.6902,-13.626,-13.6006,-13.5264,-13.5063,-13.5528,-13.5703,-13.528,-13.4723,-13.3741,-13.3155,-13.3102,-13.2672,-13.238,-13.2493,-13.2549,-13.3452,-13.3734,-13.3734,-13.3791,-13.3791,-13.3791,-15.4296,-15.5273,-15.4819,-15.5097,-15.6134,-15.7527,-15.7684,-15.6795,-15.5356,-15.4524,-15.4083,-15.4008,-15.3236,-15.1786,-15.1301,-15.0846,-15.0394,-15.1262,-15.3116,-15.4852,-15.6265,-15.7923,-15.9143,-15.9662,-15.9864,-15.9801,-15.9911,-16.0089,-15.973,-16.0784,-16.1919,-16.2884,-16.2809,-16.3485,-16.3784,-16.3487,-16.2765,-16.2824,-16.2204,-16.1689,-16.1294,-16.1336,-16.1335,-16.1157,-16.0729,-16.0958,-16.0766,-15.9523,-15.8091,-15.7274,-15.6849,-15.556,-15.5161,-15.5587,-15.5425,-15.5244,-15.536,-15.5483,-15.5612,-15.5612,-15.523,-15.4651,-15.4682,-15.4906,-15.5504,-15.6666,-15.8807,-16.0535,-16.147,-16.1753,-16.1914,-16.1824,-16.1639,-16.0923,-16.0042,-15.8279,-15.6669,-15.4415,-15.1775,-14.9586,-14.7525,-14.6817,-14.6495,-14.6752,-14.701,-14.6488,-14.5957,-14.5603,-14.384,-14.2094,-14.0043,-13.9306,-13.8868,-13.7388,-13.6837,-13.6504,-13.611,-13.6151,-13.6557,-13.6306,-13.6517,-13.6009,-13.4784,-13.4157,-13.4268,-13.3918,-13.3488,-13.3339,-13.3565,-13.3621,-13.3734,-13.3791,-13.3791,-13.3791,-13.3791,-15.2582,-15.3635,-15.4533,-15.5264,-15.6043,-15.7978,-15.8797,-15.8501,-15.7759,-15.6076,-15.4758,-15.5254,-15.4731,-15.3413,-15.2991,-15.2649,-15.3455,-15.3242,-15.4016,-15.684,-15.6723,-15.7602,-15.8637,-15.9118,-15.9749,-16.0505,-16.0695,-16.1087,-16.1541,-16.2431,-16.2433,-16.2052,-16.1777,-16.2365,-16.2302,-16.2161,-16.1314,-16.0868,-16.0554,-15.9986,-15.9686,-15.9596,-15.9827,-15.9733,-15.8919,-15.811,-15.8372,-15.7302,-15.5245,-15.5119,-15.5006,-15.4689,-15.4592,-15.4818,-15.5034,-15.5233,-15.5254,-15.5324,-15.523,-15.523,-15.4316,-15.3567,-15.3983,-15.4613,-15.5785,-15.6546,-15.9058,-16.0904,-16.1634,-16.231,-16.2949,-16.1738,-16.1337,-16.0862,-15.9696,-15.7635,-15.5896,-15.39,-15.1453,-14.9586,-14.7847,-14.7783,-14.7718,-14.8169,-14.8481,-14.7676,-14.6802,-14.5351,-14.3674,-14.1102,-13.8794,-13.9116,-13.8811,-13.7593,-13.7206,-13.6866,-13.6964,-13.7233,-13.6922,-13.6436,-13.6585,-13.6073,-13.5299,-13.478,-13.4463,-13.3883,-13.3734,-13.3791,-13.3734,-13.3734,-13.3791,-13.3791,-13.3791,-13.3791,-13.3791,-15.0806,-15.207,-15.358,-15.4493,-15.5215,-15.7187,-15.8612,-15.9175,-15.8956,-15.779,-15.6206,-15.6659,-15.6239,-15.5168,-15.5005,-15.5487,-15.5573,-15.4671,-15.5607,-15.8089,-15.6642,-15.7338,-15.8502,-15.9368,-15.979,-16.0319,-16.0845,-16.1291,-16.2196,-16.1856,-16.1375,-16.1329,-16.1256,-16.0411,-15.9535,-15.9671,-16.003,-15.9668,-15.9285,-15.8916,-15.8414,-15.778,-15.7543,-15.7883,-15.6203,-15.5722,-15.6313,-15.4935,-15.3296,-15.267,-15.2778,-15.2506,-15.2092,-15.3769,-15.4111,-15.4361,-15.5243,-15.5312,-15.523,-15.4247,-15.3333,-15.27,-15.298,-15.4445,-15.5656,-15.6805,-15.9253,-16.1316,-16.124,-16.1599,-16.2893,-16.1638,-16.0816,-16.0339,-15.8601,-15.6605,-15.4995,-15.3063,-15.1389,-14.9521,-14.8427,-14.8298,-14.9135,-14.9843,-14.9533,-14.8906,-14.549,-14.3684,-14.2537,-13.9889,-13.8221,-13.8858,-13.8899,-13.7833,-13.7448,-13.7448,-13.7428,-13.7095,-13.684,-13.6329,-13.5815,-13.5299,-13.478,-13.4258,-13.4053,-13.3791,-13.3791,-13.3791,-13.3791,-13.3791,-13.3791,-13.3791,-13.3791,-13.3791,-13.3791,-14.924,-15.0701,-15.1911,-15.279,-15.374,-15.5899,-15.7739,-15.881,-15.8998,-15.8808,-15.8644,-15.8719,-15.7835,-15.7247,-15.8102,-15.828,-15.7554,-15.6753,-15.7227,-15.8393,-15.763,-15.7414,-15.8719,-16.0076,-16.0772,-15.9632,-16.0245,-16.0561,-15.9633,-16.0902,-16.043,-16.0385,-16.0423,-15.9677,-15.5624,-15.6708,-15.7935,-15.9008,-15.8292,-15.7824,-15.7103,-15.6226,-15.5794,-15.5629,-15.4319,-15.3401,-15.3485,-15.2139,-15.1242,-15.0478,-15.0411,-15.0185,-14.9894,-15.1834,-15.2655,-15.2989,-15.4234,-15.4939,-15.4925,-15.29,-15.2123,-15.1822,-15.3024,-15.4337,-15.519,-15.5889,-15.7561,-16.0766,-16.0697,-16.0539,-16.0687,-16.0983,-16.0146,-15.9116,-15.6798,-15.4866,-15.3771,-15.2161,-15.1002,-14.9457,-14.8877,-14.8942,-15.0294,-15.0782,-15.0329,-14.7777,-14.4171,-14.2169,-14.1028,-13.9517,-13.817,-13.8317,-13.8317,-13.7681,-13.7681,-13.7797,-13.7602,-13.7095,-13.6585,-13.5815,-13.504,-13.4519,-13.4315,-13.3791,-13.3791,-13.3791,-13.3791,-13.3791,-13.3791,-13.3791,-13.3791,-13.3791,-13.3791,-13.3791,-13.3791,-14.8384,-14.8869,-15.0495,-15.1746,-15.3097,-15.52,-15.6943,-15.8167,-15.8644,-15.9354,-16.0303,-16.0379,-16.0509,-16.1261,-16.1814,-16.1764,-16.1586,-16.0333,-16.0483,-16.0076,-15.9517,-15.9292,-15.9967,-16.0998,-16.2048,-16.291,-16.272,-16.2345,-16.2046,-16.2017,-16.0677,-15.9383,-15.8792,-15.8476,-15.6744,-15.7323,-15.6776,-15.5769,-15.5433,-15.571,-15.4007,-15.4069,-15.4336,-15.4068,-15.2175,-15.1294,-15.0751,-14.9575,-14.8668,-14.8439,-14.8336,-14.8188,-14.9423,-15.0502,-15.0757,-15.1414,-15.1933,-15.2531,-15.1716,-15.0609,-15.0652,-15.2105,-15.3384,-15.494,-15.6287,-15.7353,-15.7785,-16.0126,-16.0604,-16.0661,-16.0855,-16.0275,-15.9374,-15.8472,-15.6089,-15.4093,-15.2934,-15.1904,-15.068,-14.965,-14.9843,-14.9639,-15.0539,-15.0125,-14.8885,-14.5743,-14.2878,-14.1509,-14.0109,-13.8742,-13.7855,-13.7797,-13.7602,-13.7855,-13.7855,-13.7349,-13.684,-13.6329,-13.5815,-13.504,-13.4519,-13.4315,-13.3791,-13.3791,-13.3791,-13.3791,-13.3791,-13.3791,-13.3791,-13.3791,-13.3791,-13.3791,-13.3791,-13.3791,-13.3791,-14.8017,-14.8043,-14.9019,-15.0241,-15.1574,-15.357,-15.5273,-15.6558,-15.76,-15.9004,-16.0602,-16.1384,-16.2262,-16.3216,-16.3817,-16.4763,-16.5085,-16.3153,-16.2611,-16.2195,-16.1104,-16.0221,-16.0609,-16.1582,-16.3015,-16.3464,-16.3356,-16.3371,-16.2781,-16.0573,-15.9387,-15.8898,-15.8215,-15.7543,-15.7026,-15.6772,-15.5762,-15.4389,-15.4263,-15.4302,-15.2622,-15.286,-15.2458,-15.2185,-14.9913,-14.8599,-14.8172,-14.6688,-14.6637,-14.6767,-14.6803,-14.7544,-14.8832,-14.9713,-15.0027,-15.0024,-15.0669,-15.1311,-15.0713,-15.0833,-15.0931,-15.2677,-15.448,-15.6089,-15.7592,-15.8343,-15.9052,-15.9889,-16.0597,-16.0919,-16.0919,-15.9889,-15.8536,-15.7571,-15.6025,-15.3965,-15.2612,-15.1775,-15.068,-15.0101,-15.023,-14.9819,-14.9405,-14.8988,-14.643,-14.3962,-14.2344,-14.0842,-13.924,-13.7855,-13.7544,-13.7544,-13.7349,-13.7349,-13.684,-13.6585,-13.6329,-13.5557,-13.504,-13.4519,-13.4053,-13.3791,-13.3791,-13.3791,-13.3791,-13.3791,-13.3791,-13.3791,-13.3791,-13.3791,-13.3791,-13.3791,-13.3791,-13.3791,-13.3791,-14.7869,-14.7789,-14.7499,-14.8334,-14.9892,-15.141,-15.299,-15.4895,-15.6228,-15.799,-15.9825,-16.1703,-16.257,-16.3453,-16.4383,-16.4922,-16.5357,-16.4922,-16.3251,-16.1842,-16.0785,-15.9856,-16.0536,-16.1439,-16.2617,-16.3073,-16.2878,-16.154,-15.983,-15.9849,-15.9083,-15.8288,-15.867,-15.7901,-15.7178,-15.6501,-15.5242,-15.4248,-15.3331,-15.3202,-15.1974,-15.1161,-15.0058,-14.9296,-14.762,-14.6119,-14.5687,-14.5599,-14.5805,-14.6086,-14.6356,-14.7257,-14.786,-14.873,-14.8874,-14.9052,-14.9541,-15.0609,-15.1499,-15.185,-15.2498,-15.3578,-15.5317,-15.7635,-15.8923,-15.918,-15.976,-16.079,-16.0919,-16.1048,-16.0468,-15.9631,-15.7957,-15.6605,-15.4866,-15.3256,-15.2548,-15.1711,-15.1196,-15.0552,-14.9356,-14.8013,-14.7257,-14.527,-14.2885,-14.0846,-13.928,-13.9676,-13.83,-13.7855,-13.7544,-13.7037,-13.7095,-13.6585,-13.6073,-13.5815,-13.5557,-13.504,-13.4519,-13.4315,-13.3791,-13.3791,-13.3791,-13.3791,-13.3791,-13.3791,-13.3791,-13.3791,-13.3791,-13.3791,-13.3791,-13.3791,-13.3791,-13.3791,-13.3791,-14.7387,-14.687,-14.6332,-14.7894,-15.0776,-15.1218,-15.2783,-15.5005,-15.5898,-15.7011,-15.8497,-16.013,-16.2359,-16.3994,-16.3771,-16.4068,-16.4729,-16.1165,-16.012,-15.9819,-15.9148,-15.8852,-16.0046,-16.1523,-16.293,-16.409,-16.3552,-16.2261,-16.1507,-16.1335,-16.0838,-16.043,-15.954,-15.8759,-15.7637,-15.6332,-15.4864,-15.3497,-15.1983,-15.0334,-14.9018,-14.8807,-14.8231,-14.7487,-14.7075,-14.6757,-14.5577,-14.5314,-14.6054,-14.6177,-14.6171,-14.6119,-14.6846,-14.7258,-14.7484,-14.7722,-14.913,-15.0513,-15.2177,-15.3125,-15.3852,-15.551,-15.7571,-15.8987,-16.0275,-16.0661,-16.0919,-16.1048,-16.1048,-16.0468,-15.9567,-15.8279,-15.6927,-15.5381,-15.3771,-15.3127,-15.2548,-15.2226,-15.1775,-14.9804,-14.7695,-14.6138,-14.3369,-14.1411,-13.9629,-13.767,-13.7687,-13.8375,-13.8049,-13.7855,-13.7291,-13.6783,-13.6585,-13.6329,-13.5815,-13.5299,-13.504,-13.478,-13.4258,-13.3791,-13.3791,-13.3791,-13.3791,-13.3791,-13.3791,-13.3791,-13.3791,-13.3791,-13.3791,-13.3791,-13.3791,-13.3791,-13.3791,-13.3791,-13.3791,-14.697,-14.6783,-14.6625,-14.8174,-15.0467,-15.1035,-15.2278,-15.3825,-15.4729,-15.6277,-15.8268,-15.9459,-16.1252,-16.3119,-16.2961,-16.3319,-16.3824,-16.1388,-15.9901,-15.9521,-15.8341,-15.8194,-15.9715,-16.1424,-16.356,-16.4886,-16.4775,-16.3779,-16.2581,-16.2546,-16.1922,-16.0399,-15.963,-15.8576,-15.7009,-15.5398,-15.3738,-15.1934,-15.0271,-14.8523,-14.7577,-14.7681,-14.7606,-14.6568,-14.6474,-14.6358,-14.5831,-14.544,-14.5529,-14.564,-14.5232,-14.5005,-14.5527,-14.5853,-14.6056,-14.6501,-14.8914,-15.177,-15.4045,-15.4995,-15.6218,-15.7828,-15.9052,-16.0146,-16.079,-16.1048,-16.1048,-16.1112,-16.0597,-15.9889,-15.8987,-15.712,-15.5832,-15.4737,-15.3578,-15.2999,-15.2612,-15.2483,-15.1231,-14.8396,-14.5695,-14.2031,-13.8979,-13.7396,-13.5666,-13.5206,-13.6374,-13.6924,-13.7254,-13.7428,-13.7291,-13.6528,-13.6329,-13.5815,-13.5299,-13.478,-13.4519,-13.4258,-13.3791,-13.3791,-13.3791,-13.3791,-13.3791,-13.3791,-13.3791,-13.3791,-13.3791,-13.3791,-13.3791,-13.3791,-13.3791,-13.3791,-13.3791,-13.3791,-13.3791,-14.6847,-14.7495,-14.7852,-14.8726,-14.9974,-15.093,-15.1662,-15.2358,-15.3396,-15.5734,-15.8654,-15.923,-16.0369,-16.193,-16.2077,-16.2978,-16.3032,-16.1324,-15.9469,-15.8716,-15.7121,-15.7121,-15.9268,-16.1066,-16.3044,-16.5144,-16.6319,-16.5401,-16.3146,-16.1946,-16.0851,-15.9672,-15.8891,-15.7403,-15.5862,-15.321,-15.0902,-14.9149,-14.8216,-14.7654,-14.7617,-14.7551,-14.7527,-14.6788,-14.6271,-14.5772,-14.5799,-14.5101,-14.4925,-14.4699,-14.4437,-14.4437,-14.4434,-14.4434,-14.5271,-14.7654,-15.0346,-15.3883,-15.6476,-15.742,-15.8384,-15.9245,-16.0211,-16.0919,-16.1112,-16.1112,-16.0983,-16.0983,-15.9889,-15.8923,-15.7764,-15.6154,-15.5059,-15.4093,-15.3256,-15.2805,-15.2483,-15.229,-14.9836,-14.7067,-14.2716,-13.904,-13.542,-13.3774,-13.2562,-13.3842,-13.5063,-13.5784,-13.6654,-13.7117,-13.7291,-13.6329,-13.5815,-13.504,-13.4576,-13.4053,-13.4053,-13.3791,-13.3791,-13.3791,-13.3791,-13.3791,-13.3791,-13.3791,-13.3791,-13.3791,-13.3791,-13.3791,-13.3791,-13.3791,-13.3791,-13.3791,-13.3791,-13.3791,-13.3791,-14.7813,-14.9094,-14.8917,-14.9523,-15.0818,-15.1162,-15.1749,-15.2645,-15.3025,-15.4708,-15.7287,-15.8157,-15.9643,-16.1312,-16.1747,-16.182,-16.1892,-15.7901,-15.7103,-15.6562,-15.4749,-15.4716,-15.7,-15.91,-16.1345,-16.3899,-16.5041,-16.4882,-16.2266,-16.0922,-16.0425,-15.9064,-15.7628,-15.6238,-15.4052,-15.0864,-14.9366,-14.7483,-14.5973,-14.5314,-14.5987,-14.6525,-14.6656,-14.6181,-14.6431,-14.5877,-14.5086,-14.4569,-14.4891,-14.5211,-14.5078,-14.4756,-14.5658,-14.5915,-14.7388,-15.0253,-15.2075,-15.4848,-15.7332,-15.8616,-15.913,-15.9928,-16.0855,-16.1048,-16.1048,-16.079,-16.0661,-15.9696,-15.8858,-15.8086,-15.6347,-15.5124,-15.4286,-15.3449,-15.2934,-15.234,-15.2018,-15.0412,-14.823,-14.424,-14.0144,-13.6505,-13.3358,-13.1573,-13.262,-13.3842,-13.4757,-13.5668,-13.5628,-13.6401,-13.6585,-13.5815,-13.504,-13.4315,-13.4053,-13.3791,-13.3791,-13.3791,-13.3791,-13.3791,-13.3791,-13.3791,-13.3791,-13.3791,-13.3791,-13.3791,-13.3791,-13.3791,-13.3791,-13.3791,-13.3791,-13.3791,-13.3791,-13.3791,-13.3791,-14.8792,-14.99,-14.9221,-14.9963,-15.102,-15.0533,-15.1144,-15.244,-15.239,-15.3453,-15.501,-15.5941,-15.6872,-15.7875,-15.8663,-15.9594,-15.9185,-15.615,-15.4763,-15.4049,-15.2164,-15.1918,-15.3855,-15.6612,-15.9184,-16.1334,-16.2475,-16.1919,-15.9836,-15.8522,-15.7674,-15.6765,-15.4726,-15.2898,-15.0884,-14.8578,-14.6624,-14.548,-14.4965,-14.5017,-14.5217,-14.6014,-14.6074,-14.5731,-14.5603,-14.5475,-14.4751,-14.4746,-14.5195,-14.5773,-14.5636,-14.5883,-14.6715,-14.7868,-14.9644,-15.199,-15.4135,-15.6524,-15.847,-15.8917,-15.8789,-15.9331,-15.9139,-15.9424,-15.9708,-15.9708,-15.9606,-15.8858,-15.8214,-15.6283,-15.493,-15.4158,-15.3449,-15.2532,-15.1499,-15.0479,-14.9629,-14.8013,-14.443,-14.049,-13.7853,-13.5241,-13.1703,-13.1922,-13.2795,-13.3783,-13.4699,-13.4839,-13.4488,-13.5097,-13.5815,-13.5299,-13.478,-13.4315,-13.4053,-13.3791,-13.3791,-13.3791,-13.3791,-13.3791,-13.3791,-13.3791,-13.3791,-13.3791,-13.3791,-13.3791,-13.3791,-13.3791,-13.3791,-13.3791,-13.3791,-13.3791,-13.3791,-13.3791,-13.3791,-14.9538,-15.0234,-14.9378,-14.9763,-15.0798,-15.0049,-15.0515,-15.1828,-15.1723,-15.2338,-15.3543,-15.3189,-15.3175,-15.431,-15.5386,-15.645,-15.6531,-15.4577,-15.3259,-15.2843,-15.054,-15.0271,-15.2441,-15.5034,-15.6553,-15.8253,-15.7415,-15.6239,-15.4966,-15.4384,-15.2732,-15.208,-15.0445,-14.9534,-14.814,-14.6524,-14.5129,-14.4916,-14.4512,-14.4708,-14.4533,-14.5011,-14.5408,-14.57,-14.4938,-14.5067,-14.5434,-14.5616,-14.5743,-14.5999,-14.6483,-14.6178,-14.5863,-14.7078,-14.9061,-15.1174,-15.3198,-15.5129,-15.7611,-15.8312,-15.7993,-15.7548,-15.7579,-15.7801,-15.8342,-15.8434,-15.837,-15.791,-15.6305,-15.4526,-15.4415,-15.3449,-15.2741,-15.1985,-15.067,-14.8654,-14.6805,-14.37,-13.9536,-13.6767,-13.5772,-13.4129,-13.3469,-13.3085,-13.3493,-13.4074,-13.4625,-13.4762,-13.435,-13.4528,-13.5185,-13.478,-13.4315,-13.4053,-13.3791,-13.3791,-13.3791,-13.3791,-13.3791,-13.3791,-13.3791,-13.3791,-13.3791,-13.3791,-13.3791,-13.3791,-13.3791,-13.3791,-13.3791,-13.3791,-13.3791,-13.3791,-13.3791,-13.3791,-13.3791,-14.9411,-14.9907,-14.9337,-14.9235,-14.9539,-15.0495,-15.1148,-15.1487,-15.1487,-15.2011,-15.2989,-15.0242,-15.1045,-15.3273,-15.4205,-15.4012,-15.3259,-15.1457,-15.1462,-15.2088,-14.9851,-15.0191,-15.1852,-15.3082,-15.3237,-14.976,-14.94,-14.8631,-14.7705,-14.6128,-14.7374,-14.6982,-14.6411,-14.6861,-14.7212,-14.6058,-14.5281,-14.5345,-14.4366,-14.3441,-14.3461,-14.3358,-14.4415,-14.5017,-14.4875,-14.5002,-14.5687,-14.6132,-14.6849,-14.8268,-14.7295,-14.5313,-14.315,-14.2229,-14.3166,-14.7474,-14.8635,-15.1459,-15.4238,-15.5353,-15.5733,-15.7293,-15.7165,-15.7675,-15.8344,-15.7707,-15.7133,-15.646,-15.5681,-15.3652,-15.2918,-15.2532,-15.2468,-15.1921,-15.0305,-14.8528,-14.571,-13.8834,-13.5075,-13.3059,-13.3293,-13.3821,-13.3737,-13.4061,-13.4191,-13.4307,-13.455,-13.4799,-13.4325,-13.4328,-13.4496,-13.4053,-13.4053,-13.3791,-13.3791,-13.3791,-13.3791,-13.3791,-13.3791,-13.3791,-13.3791,-13.3791,-13.3791,-13.3791,-13.3791,-13.3791,-13.3791,-13.3791,-13.3791,-13.3791,-13.3791,-13.3791,-13.3791,-13.3791,-13.3791,-14.9292,-14.9449,-14.9491,-14.9454,-14.9595,-14.9838,-15.0338,-15.0829,-15.0268,-15.0268,-15.0408,-14.9221,-14.9084,-15.0275,-15.0484,-15.0617,-15.004,-14.9185,-14.9222,-14.9456,-14.9268,-14.9093,-15.0347,-14.8871,-14.7263,-14.5146,-14.4303,-14.4119,-14.402,-14.4223,-14.4301,-14.449,-14.4439,-14.5214,-14.5851,-14.4071,-14.4187,-14.457,-14.3099,-14.2053,-14.1769,-14.1031,-14.1612,-14.4093,-14.4241,-14.3667,-14.4205,-14.4268,-14.5351,-14.6006,-14.4617,-14.2107,-14.0567,-14.0112,-14.0655,-14.2914,-14.3895,-14.6817,-15.0087,-15.1584,-15.2415,-15.383,-15.4812,-15.5353,-15.5258,-15.5004,-15.478,-15.4682,-15.4008,-15.282,-15.1966,-15.1921,-15.1287,-15.0242,-14.7652,-14.4752,-14.1714,-13.6379,-13.1817,-13.1264,-13.2423,-13.3408,-13.4162,-13.5205,-13.5321,-13.4358,-13.4719,-13.4555,-13.4071,-13.3984,-13.377,-13.3791,-13.3791,-13.3791,-13.3791,-13.3791,-13.3791,-13.3791,-13.3791,-13.3791,-13.3791,-13.3791,-13.3791,-13.3791,-13.3791,-13.3791,-13.3791,-13.3791,-13.3791,-13.3791,-13.3791,-13.3791,-13.3791,-13.3791,-13.3791,-14.8643,-14.8457,-14.8931,-14.9014,-14.9016,-14.8735,-14.9069,-14.9755,-14.8716,-14.794,-14.7508,-14.7084,-14.6362,-14.5451,-14.6339,-14.6348,-14.6391,-14.711,-14.6687,-14.5988,-14.6205,-14.6431,-14.5749,-14.3186,-14.116,-14.1059,-14.1838,-14.1526,-14.1466,-14.2567,-14.3793,-14.3212,-14.3577,-14.3932,-14.5257,-14.403,-14.2686,-14.2764,-14.1949,-14.0837,-13.961,-13.8099,-13.8501,-14.0847,-14.1099,-14.1303,-14.1411,-14.1964,-14.2797,-14.2673,-14.0445,-13.7686,-13.6914,-13.6437,-13.6854,-13.7865,-13.9117,-14.1568,-14.5035,-14.689,-14.8205,-14.9982,-15.1374,-15.224,-15.2091,-15.2439,-15.228,-15.2528,-15.2491,-15.1728,-15.0838,-15.0861,-14.9187,-14.664,-14.3807,-14.0759,-13.7033,-13.3609,-13.1612,-13.1398,-13.2897,-13.4395,-13.3876,-13.5548,-13.5466,-13.4669,-13.4328,-13.4154,-13.4009,-13.3805,-13.3827,-13.3791,-13.3791,-13.3791,-13.3791,-13.3791,-13.3791,-13.3791,-13.3791,-13.3791,-13.3791,-13.3791,-13.3791,-13.3791,-13.3791,-13.3791,-13.3791,-13.3791,-13.3791,-13.3791,-13.3791,-13.3791,-13.3791,-13.3791,-13.3791,-14.7335,-14.6438,-14.6647,-14.6575,-14.671,-14.789,-14.7784,-14.7556,-14.6912,-14.5947,-14.4357,-14.2796,-14.1978,-14.0299,-14.3138,-14.3155,-14.1559,-14.4093,-14.3534,-14.3041,-14.2481,-14.2115,-14.1919,-13.9946,-13.9203,-13.903,-13.7941,-13.8515,-13.9383,-13.9477,-14.0868,-14.2179,-14.2665,-14.4367,-14.511,-14.5675,-14.5116,-14.3006,-14.1488,-13.9308,-13.705,-13.5059,-13.4983,-13.5976,-13.6612,-13.7307,-13.9288,-14.0489,-14.0369,-13.8673,-13.4583,-13.2609,-13.1166,-12.8881,-12.9642,-13.2329,-13.3697,-13.5659,-13.9594,-14.1388,-14.2818,-14.6817,-14.7836,-14.9317,-15.1701,-15.1583,-15.1239,-15.1397,-15.0732,-15.0226,-14.9566,-14.8341,-14.5929,-14.2829,-13.9892,-13.6535,-13.3335,-13.125,-13.1116,-13.3065,-13.3466,-13.4752,-13.5326,-13.59,-13.5758,-13.4671,-13.4584,-13.4292,-13.4032,-13.3827,-13.3678,-13.3791,-13.3791,-13.3791,-13.3791,-13.3791,-13.3791,-13.3791,-13.3791,-13.3791,-13.3791,-13.3791,-13.3791,-13.3791,-13.3791,-13.3791,-13.3791,-13.3791,-13.3791,-13.3791,-13.3791,-13.3791,-13.3791,-13.3791,-13.3791,-14.5875,-14.4712,-14.5606,-14.5194,-14.4265,-14.4719,-14.4604,-14.3851,-14.3176,-14.2057,-14.1266,-14.0498,-13.9631,-13.9047,-14.0856,-14.092,-13.9894,-14.1723,-14.2584,-14.1961,-14.1254,-13.9661,-13.775,-13.6918,-13.6662,-13.652,-13.7535,-13.8276,-13.8663,-13.8978,-13.9672,-14.076,-14.0121,-14.0736,-14.2737,-14.202,-14.1088,-14.0699,-13.8894,-13.7396,-13.5354,-13.2944,-13.2647,-13.4347,-13.2234,-13.3329,-13.677,-13.7652,-13.6855,-13.455,-13.2159,-13.018,-12.8962,-12.7234,-12.7347,-12.9419,-12.978,-13.2048,-13.6164,-13.8133,-14.0182,-14.331,-14.6473,-14.7651,-14.8449,-14.9783,-15.0135,-14.9692,-14.8397,-14.7575,-14.7,-14.5281,-14.2515,-13.9356,-13.6198,-13.3546,-13.114,-13.1197,-13.1595,-13.2248,-13.3273,-13.4614,-13.4157,-13.4899,-13.4926,-13.478,-13.4258,-13.4258,-13.4315,-13.4053,-13.3791,-13.3791,-13.3791,-13.3791,-13.3791,-13.3791,-13.3791,-13.3791,-13.3791,-13.3791,-13.3791,-13.3791,-13.3791,-13.3791,-13.3791,-13.3791,-13.3791,-13.3791,-13.3791,-13.3791,-13.3791,-13.3791,-13.3791,-13.3791,-13.3791,-14.4169,-14.275,-14.3611,-14.3123,-14.1801,-14.1632,-14.1397,-14.0753,-13.9522,-13.8849,-13.8224,-13.8487,-13.785,-13.7006,-13.8581,-13.8863,-13.8054,-13.8957,-14.0117,-14.0185,-13.8773,-13.5739,-13.3512,-13.292,-13.3089,-13.4145,-13.5551,-13.7188,-13.7783,-13.7997,-13.8515,-13.9246,-13.8673,-13.8637,-13.9235,-13.8873,-13.8044,-13.7686,-13.5785,-13.4246,-13.3066,-13.0403,-13.0584,-13.3125,-13.0216,-13.0595,-13.4222,-13.451,-13.367,-13.2527,-13.1026,-12.9446,-12.7696,-12.7212,-12.7325,-12.8286,-12.8738,-13.0628,-13.3971,-13.557,-13.7466,-14.0354,-14.277,-14.4624,-14.4477,-14.6154,-14.7125,-14.6836,-14.5634,-14.4416,-14.3887,-14.199,-13.9939,-13.7089,-13.4293,-13.1848,-13.0969,-13.1364,-13.2074,-13.1879,-13.3498,-13.3895,-13.3782,-13.4065,-13.4258,-13.4053,-13.3791,-13.3791,-13.3791,-13.3791,-13.3791,-13.3791,-13.3791,-13.3791,-13.3791,-13.3791,-13.3791,-13.3791,-13.3791,-13.3791,-13.3791,-13.3791,-13.3791,-13.3791,-13.3791,-13.3791,-13.3791,-13.3791,-13.3791,-13.3791,-13.3791,-13.3791,-13.3791,-13.3791,-13.3791,-14.1567,-14.0432,-13.9866,-13.9795,-13.9456,-13.9153,-13.8703,-13.829,-13.7809,-13.6501,-13.5492,-13.57,-13.5259,-13.385,-13.5424,-13.573,-13.51,-13.5163,-13.4916,-13.344,-13.1626,-12.968,-12.913,-12.913,-13.0216,-13.1746,-13.2408,-13.3569,-13.5767,-13.5566,-13.6842,-13.8338,-13.8103,-13.9117,-13.8342,-13.9177,-13.7144,-13.4681,-13.2979,-13.1067,-12.915,-12.7517,-12.7652,-12.873,-12.8512,-12.97,-13.2049,-13.2817,-13.2809,-13.3226,-13.1387,-12.9247,-12.7245,-12.7517,-12.814,-12.843,-12.9333,-13.083,-13.1848,-13.31,-13.4471,-13.7506,-13.8742,-13.9122,-14.1569,-14.2468,-14.3004,-14.2706,-14.199,-14.175,-14.1267,-13.9311,-13.7816,-13.7138,-13.4157,-13.2413,-13.1872,-13.1928,-13.2436,-13.317,-13.3565,-13.3734,-13.3621,-13.3621,-13.3791,-13.3791,-13.3791,-13.3791,-13.3791,-13.3791,-13.3791,-13.3791,-13.3791,-13.3791,-13.3791,-13.3791,-13.3791,-13.3791,-13.3791,-13.3791,-13.3791,-13.3791,-13.3791,-13.3791,-13.3791,-13.3791,-13.3791,-13.3791,-13.3791,-13.3791,-13.3791,-13.3791,-13.3791,-13.3791,-13.3791,-14.0807,-13.9363,-13.9121,-13.8228,-13.6829,-13.4428,-13.3096,-13.2389,-13.1089,-13.0755,-13.1005,-13.0495,-13.0026,-13.0557,-13.0944,-13.0804,-13.0499,-13.1231,-13.0493,-12.8817,-12.846,-12.8119,-12.6941,-12.8119,-12.9799,-13.1457,-13.1696,-13.2653,-13.4329,-13.2292,-13.1772,-13.3239,-13.2725,-13.2395,-13.2452,-13.3838,-13.4395,-13.2812,-13.1303,-13.023,-12.9304,-12.8091,-12.7696,-12.8204,-12.8938,-13.0179,-13.1816,-13.2718,-13.3339,-13.3396,-13.2063,-13.0631,-12.8938,-12.9078,-12.97,-13.0348,-13.1026,-13.1759,-13.2888,-13.3057,-13.3805,-13.5071,-13.6667,-13.8125,-13.9063,-14.0782,-14.1509,-14.1267,-14.005,-13.9063,-13.8566,-13.6667,-13.5242,-13.5242,-13.3805,-13.317,-13.3113,-13.3113,-13.3396,-13.3565,-13.3791,-13.3791,-13.3791,-13.3791,-13.3791,-13.3791,-13.3791,-13.3791,-13.3791,-13.3791,-13.3791,-13.3791,-13.3791,-13.3791,-13.3791,-13.3791,-13.3791,-13.3791,-13.3791,-13.3791,-13.3791,-13.3791,-13.3791,-13.3791,-13.3791,-13.3791,-13.3791,-13.3791,-13.3791,-13.3791,-13.3791,-13.3791,-13.3791,-13.3791,-13.3791,-13.888,-13.7237,-13.6342,-13.4902,-13.3293,-13.0622,-12.9181,-12.8555,-12.6593,-12.6685,-12.792,-12.7315,-12.7649,-12.862,-12.9155,-12.8824,-12.8305,-12.8159,-12.6975,-12.5468,-12.6099,-12.5462,-12.4369,-12.5749,-12.7362,-12.8127,-12.8656,-12.9538,-13.0304,-12.8777,-12.8171,-12.9254,-12.915,-12.8543,-12.8625,-12.9784,-13.0518,-13.0179,-12.9333,-12.9107,-12.9333,-12.8543,-12.8599,-12.9276,-13.0123,-13.0743,-13.1364,-13.2549,-13.317,-13.317,-13.238,-13.1364,-13.0348,-13.0405,-13.1026,-13.1872,-13.2267,-13.2944,-13.3678,-13.3791,-13.3734,-13.3997,-13.5185,-13.6412,-13.6667,-13.7874,-13.8874,-13.8625,-13.7681,-13.6412,-13.6157,-13.4723,-13.4053,-13.3791,-13.3791,-13.3734,-13.3678,-13.3734,-13.3791,-13.3791,-13.3791,-13.3791,-13.3791,-13.3791,-13.3791,-13.3791,-13.3791,-13.3791,-13.3791,-13.3791,-13.3791,-13.3791,-13.3791,-13.3791,-13.3791,-13.3791,-13.3791,-13.3791,-13.3791,-13.3791,-13.3791,-13.3791,-13.3791,-13.3791,-13.3791,-13.3791,-13.3791,-13.3791,-13.3791,-13.3791,-13.3791,-13.3791,-13.3791,-13.3791,-13.3791,-13.5342,-13.3872,-13.0759,-13.0102,-12.9922,-12.8504,-12.7747,-12.7567,-12.6177,-12.5781,-12.6693,-12.8425,-12.8401,-12.8425,-12.9829,-13.053,-12.8809,-12.6442,-12.4587,-12.3212,-12.2079,-12.1059,-12.0153,-12.1351,-12.2098,-12.1976,-12.2645,-12.3778,-12.5154,-12.5648,-12.6667,-12.806,-12.8965,-12.8599,-12.8035,-12.8204,-12.7866,-12.7189,-12.7076,-12.7245,-12.8035,-12.8204,-12.9163,-13.1138,-13.1533,-13.1138,-13.0179,-13.1308,-13.1985,-13.2041,-13.1985,-13.1364,-13.0631,-13.1308,-13.1985,-13.2267,-13.3113,-13.3678,-13.3791,-13.3791,-13.3791,-13.3791,-13.3791,-13.4258,-13.4258,-13.4519,-13.4519,-13.478,-13.4258,-13.4053,-13.4053,-13.3791,-13.3791,-13.3791,-13.3791,-13.3791,-13.3791,-13.3791,-13.3791,-13.3791,-13.3791,-13.3791,-13.3791,-13.3791,-13.3791,-13.3791,-13.3791,-13.3791,-13.3791,-13.3791,-13.3791,-13.3791,-13.3791,-13.3791,-13.3791,-13.3791,-13.3791,-13.3791,-13.3791,-13.3791,-13.3791,-13.3791,-13.3791,-13.3791,-13.3791,-13.3791,-13.3791,-13.3791,-13.3791,-13.3791,-13.3791,-13.3791,-13.3791,-13.3791,-13.3791,-13.346,-13.2306,-13.1261,-13.0874,-13.0635,-12.7815,-12.6607,-12.6438,-12.5352,-12.5816,-12.6975,-12.7319,-12.8077,-12.8901,-12.8302,-12.8161,-12.8436,-12.6516,-12.5044,-12.3916,-12.3464,-12.2618,-12.1715,-12.1828,-12.1997,-12.2054,-12.2449,-12.2787,-12.3182,-12.2731,-12.3239,-12.448,-12.5665,-12.606,-12.606,-12.7358,-12.8035,-12.7696,-12.7527,-12.7696,-12.8035,-12.8148,-12.8599,-12.9389,-13.0236,-13.0405,-13.0066,-13.0405,-13.1026,-13.1816,-13.1928,-13.2154,-13.2549,-13.2944,-13.317,-13.3226,-13.3565,-13.3791,-13.3791,-13.3791,-13.3791,-13.3791,-13.3791,-13.3791,-13.3791,-13.3791,-13.3791,-13.3791,-13.3791,-13.3791,-13.3791,-13.3791,-13.3791,-13.3791,-13.3791,-13.3791,-13.3791,-13.3791,-13.3791,-13.3791,-13.3791,-13.3791,-13.3791,-13.3791,-13.3791,-13.3791,-13.3791,-13.3791,-13.3791,-13.3791,-13.3791,-13.3791,-13.3791,-13.3791,-13.3791,-13.3791,-13.3791,-13.3791,-13.3791,-13.3791,-13.3791,-13.3791,-13.3791,-13.3791,-13.3791,-13.3791,-13.3791,-13.3791,-13.3791,-13.3791,-13.3791,-13.3791,-13.3791,-13.3791,-13.3791,-13.1886,-13.1049,-13.0126,-12.9661,-12.931,-12.6683,-12.5745,-12.5968,-12.4798,-12.5381,-12.6621,-12.6647,-12.746,-12.8637,-12.548,-12.4549,-12.4784,-12.4,-12.2571,-12.078,-12.0286,-11.9189,-11.8064,-11.7954,-11.8443,-11.9824,-12.0456,-12.1146,-12.2208,-12.1258,-12.1426,-12.3165,-12.4536,-12.5157,-12.5383,-12.6737,-12.7471,-12.7527,-12.7471,-12.7753,-12.8091,-12.8148,-12.7922,-12.7584,-12.8261,-12.8656,-12.8656,-12.9107,-12.9897,-13.1195,-13.1703,-13.2493,-13.3621,-13.3791,-13.3791,-13.3791,-13.3791,-13.3791,-13.3791,-13.3791,-13.3791,-13.3791,-13.3791,-13.3791,-13.3791,-13.3791,-13.3791,-13.3791,-13.3791,-13.3791,-13.3791,-13.3791,-13.3791,-13.3791,-13.3791,-13.3791,-13.3791,-13.3791,-13.3791,-13.3791,-13.3791,-13.3791,-13.3791,-13.3791,-13.3791,-13.3791,-13.3791,-13.3791,-13.3791,-13.3791,-13.3791,-13.3791,-13.3791,-13.3791,-13.3791,-13.3791,-13.3791,-13.3791,-13.3791,-13.3791,-13.3791,-13.3791,-13.3791,-13.3791,-13.3791,-13.3791,-13.3791,-13.3791,-13.3791,-13.3791,-13.3791,-13.3791,-13.3791,-13.3791,-13.3791,-13.0937,-12.9706,-12.7462,-12.6533,-12.6342,-12.527,-12.5439,-12.5845,-12.4833,-12.4393,-12.4813,-12.5926,-12.6738,-12.6226,-12.2042,-11.9902,-11.9417,-11.8868,-11.7139,-11.4411,-11.3158,-11.1441,-10.9867,-10.9814,-11.1728,-11.5034,-11.6314,-11.8529,-12.165,-12.0622,-12.1338,-12.38,-12.5114,-12.5981,-12.5981,-12.5788,-12.6094,-12.6455,-12.6206,-12.6657,-12.7866,-12.7783,-12.6912,-12.5763,-12.615,-12.6511,-12.6319,-12.7276,-12.8769,-12.9953,-13.1251,-13.2493,-13.3621,-13.3791,-13.3791,-13.3791,-13.3791,-13.3791,-13.3791,-13.3791,-13.3791,-13.3791,-13.3791,-13.3791,-13.3791,-13.3791,-13.3791,-13.3791,-13.3791,-13.3791,-13.3791,-13.3791,-13.3791,-13.3791,-13.3791,-13.3791,-13.3791,-13.3791,-13.3791,-13.3791,-13.3791,-13.3791,-13.3791,-13.3791,-13.3791,-13.3791,-13.3791,-13.3791,-13.3791,-13.3791,-13.3791,-13.3791,-13.3791,-13.3791,-13.3791,-13.3791,-13.3791,-13.3791,-13.3791,-13.3791,-13.3791,-13.3791,-13.3791,-13.3791,-13.3791,-13.3791,-13.3791,-13.3791,-13.3527,-13.3527,-13.3527,-13.3264,-13.2943,-13.3527,-13.3527,-12.9236,-12.7462,-12.6781,-12.66,-12.6941,-12.8008,-12.6816,-12.4272,-12.4523,-12.3155,-12.0804,-12.1069,-12.1228,-12.0358,-11.8517,-11.7432,-11.7775,-11.6789,-11.5024,-11.2684,-11.2218,-11.0923,-10.9262,-10.9781,-11.1016,-11.2244,-11.3502,-11.4755,-11.6203,-11.6759,-11.7826,-11.967,-12.2169,-12.3355,-12.3355,-12.3355,-12.4171,-12.5788,-12.4171,-12.4337,-12.6238,-12.4671,-12.2662,-12.0783,-12.4226,-12.5233,-12.341,-12.6408,-12.8712,-12.9953,-13.1251,-13.2549,-13.3678,-13.3791,-13.3791,-13.3791,-13.3791,-13.3791,-13.3791,-13.3791,-13.3791,-13.3791,-13.3791,-13.3791,-13.3791,-13.3791,-13.3791,-13.3791,-13.3791,-13.3791,-13.3791,-13.3791,-13.3791,-13.3791,-13.3791,-13.3791,-13.3791,-13.3791,-13.3791,-13.3791,-13.3791,-13.3791,-13.3791,-13.3791,-13.3791,-13.3791,-13.3791,-13.3791,-13.3791,-13.3791,-13.3791,-13.3791,-13.3791,-13.3791,-13.3791,-13.3791,-13.3791,-13.3791,-13.3791,-13.3791,-13.3791,-13.3791,-13.3791,-13.3527,-13.3791,-13.3791,-13.3527,-13.3264,-13.2999,-13.2999,-13.2734,-13.2147,-13.2413,-13.2147,-13.2147,-12.7404,-12.4782,-12.4646,-12.383,-12.2459,-12.3428,-12.2621,-12.1016,-12.1557,-12.0683,-11.8238,-11.4846,-11.3081,-11.2562,-11.2201,-11.1902,-11.2085,-11.1766,-11.0468,-10.8697,-10.8598,-10.7701,-10.6423,-10.6922,-10.8289,-10.9926,-11.1001,-11.1831,-11.2834,-11.5093,-11.6832,-11.8048,-11.9422,-12.0208,-12.0469,-12.0469,-12.1248,-12.2845,-12.1248,-12.0989,-12.2333,-12.1302,-11.9422,-11.8366,-12.0989,-12.2077,-12.0837,-12.4312,-12.7128,-12.8355,-13.0734,-13.2493,-13.3678,-13.3791,-13.3791,-13.3791,-13.3791,-13.3791,-13.3791,-13.3791,-13.3791,-13.3791,-13.3791,-13.3791,-13.3791,-13.3791,-13.3791,-13.3791,-13.3791,-13.3791,-13.3791,-13.3791,-13.3791,-13.3791,-13.3791,-13.3791,-13.3791,-13.3791,-13.3791,-13.3791,-13.3791,-13.3791,-13.3791,-13.3791,-13.3791,-13.3791,-13.3791,-13.3791,-13.3791,-13.3791,-13.3791,-13.3791,-13.3791,-13.3791,-13.3791,-13.3791,-13.3791,-13.3791,-13.3791,-13.3791,-13.3791,-13.3791,-13.3527,-13.3264,-13.3264,-13.3264,-13.3264,-13.3055,-13.279,-13.279,-13.2202,-13.188,-13.1557,-13.1557,-13.0735,-12.468,-12.1756,-12.1357,-11.8881,-11.562,-11.5829,-11.628,-11.6795,-11.7018,-11.7084,-11.622,-10.8479,-10.5242,-10.4762,-10.5685,-10.5638,-10.4914,-10.5449,-10.4883,-10.3461,-10.3173,-10.2851,-10.262,-10.2714,-10.4395,-10.7158,-10.8745,-10.9517,-11.0443,-11.3713,-11.6124,-11.6766,-11.7302,-11.7302,-11.7302,-11.7302,-11.7569,-11.7835,-11.7302,-11.7034,-11.7034,-11.7302,-11.7302,-11.7034,-11.7569,-11.7621,-11.7832,-12.1817,-12.4644,-12.6055,-12.9805,-13.2606,-13.3621,-13.3678,-13.3621,-13.3621,-13.3452,-13.3452,-13.3396,-13.3565,-13.3621,-13.3791,-13.3791,-13.3791,-13.3791,-13.3415,-13.3039,-13.223,-13.2342,-13.2398,-13.3039,-13.3151,-13.3207,-13.3527,-13.3791,-13.3791,-13.3791,-13.3791,-13.3791,-13.3791,-13.3791,-13.3791,-13.3791,-13.3791,-13.3791,-13.3791,-13.3791,-13.3791,-13.3791,-13.3791,-13.3791,-13.3791,-13.3791,-13.3791,-13.3791,-13.3791,-13.3791,-13.3791,-13.3791,-13.3791,-13.3791,-13.3527,-13.3527,-13.3055,-13.279,-13.2734,-13.2734,-13.2524,-13.2469,-13.2202,-13.2202,-13.2202,-13.1612,-13.1123,-12.9702,-11.6462,-11.5462,-11.5779,-11.5616,-11.5864,-11.7529,-11.6351,-11.3454,-11.3181,-11.2049,-11.0106,-10.8089,-10.6539,-10.5837,-10.6086,-10.537,-10.4669,-10.4622,-10.4351,-10.3219,-10.3173,-10.2898,-10.2054,-10.2757,-10.3563,-10.5079,-10.5987,-10.7086,-10.7705,-10.932,-10.9983,-11.0546,-11.3004,-11.4379,-11.4379,-11.4379,-11.5688,-11.7302,-11.3556,-11.1157,-11.1157,-11.328,-11.3331,-11.1666,-11.5417,-11.7184,-11.6159,-12.1935,-12.5791,-12.7205,-13.0976,-13.3508,-13.3734,-13.2888,-13.238,-13.2267,-13.1421,-13.0856,-13.0913,-13.1759,-13.2775,-13.3678,-13.3791,-13.3791,-13.3415,-13.0934,-12.7807,-12.4782,-12.5428,-12.6784,-12.8837,-12.982,-13.1233,-13.3527,-13.3791,-13.3527,-13.3791,-13.3791,-13.3791,-13.3791,-13.3791,-13.3791,-13.3791,-13.3791,-13.3791,-13.3791,-13.3791,-13.3791,-13.3791,-13.3791,-13.3791,-13.3791,-13.3791,-13.3527,-13.3791,-13.3791,-13.3791,-13.3791,-13.3791,-13.3791,-13.3527,-13.3264,-13.3055,-13.279,-13.2202,-13.188,-13.188,-13.1612,-13.1075,-13.0965,-13.0696,-13.0156,-12.9775,-12.9172,-12.7752,-11.3238,-11.2165,-11.2455,-11.2549,-11.2085,-11.323,-11.2301,-11.0058,-10.872,-10.7084,-10.5697,-10.6585,-10.6398,-10.551,-10.5931,-10.5604,-10.4622,-10.4622,-10.4341,-10.3827,-10.3827,-10.3547,-10.3079,-10.3593,-10.407,-10.4406,-10.4923,-10.5496,-10.6366,-10.6655,-10.7231,-10.7566,-10.9749,-11.1157,-11.1387,-11.1666,-11.2223,-11.3831,-11.1868,-11.0793,-11.0793,-11.2413,-11.2413,-11.0745,-11.2725,-11.3308,-11.2565,-11.9349,-12.2953,-12.2711,-12.7757,-13.0934,-13.0878,-13.0266,-13.0234,-13.1082,-13.0405,-13.001,-13.001,-13.0687,-13.159,-13.2831,-13.2944,-13.1615,-12.8507,-12.6405,-12.4453,-12.1749,-12.2319,-12.3835,-12.5262,-12.6558,-12.7809,-12.9504,-13.0965,-13.1768,-13.1768,-13.2678,-13.3791,-13.3791,-13.3791,-13.3791,-13.3791,-13.3791,-13.3791,-13.3791,-13.3791,-13.3791,-13.3791,-13.2678,-13.2091,-13.3264,-13.2622,-13.2357,-13.3527,-13.3791,-13.3527,-13.3264,-13.3527,-13.3527,-13.2678,-13.2999,-13.2469,-13.1935,-13.1344,-13.1075,-13.1075,-13.0806,-13.0261,-12.9985,-12.9386,-12.8573,-12.7866,-12.7375,-12.6446,-11.0862,-10.8621,-10.9656,-10.8704,-10.625,-10.6392,-10.6662,-10.6632,-10.4669,-10.3827,-10.3874,-10.5463,-10.5604,-10.4669,-10.537,-10.5183,-10.4201,-10.4201,-10.4201,-10.4201,-10.4201,-10.4201,-10.4201,-10.4341,-10.4388,-10.4435,-10.4575,-10.4914,-10.5449,-10.5786,-10.6076,-10.6702,-10.7566,-10.8426,-10.8996,-10.928,-10.928,-10.9329,-11.1135,-11.2062,-11.2111,-11.2062,-11.2209,-11.2453,-11.0403,-10.9476,-11.011,-11.6242,-11.8829,-11.7803,-12.357,-12.7,-12.6837,-12.651,-12.6813,-12.7999,-12.7976,-12.7976,-12.8088,-12.8312,-12.8871,-12.9935,-13.0383,-12.7727,-12.122,-12.1292,-12.1555,-12.0111,-12.0878,-12.1836,-12.2237,-12.3182,-12.4042,-12.4498,-12.6719,-12.8469,-12.8902,-13.0835,-13.2589,-13.3396,-13.3508,-13.3508,-13.2887,-13.2943,-13.2943,-13.2943,-13.2678,-13.3207,-13.3207,-13.1233,-13.0641,-13.2622,-13.1501,-13.0965,-13.2357,-13.3207,-13.3207,-13.2469,-13.2943,-13.3527,-13.2357,-13.2245,-13.1756,-13.0799,-13.0199,-12.9875,-12.9875,-13.0041,-12.9221,-12.8397,-12.8177,-12.7902,-12.6603,-12.5627,-12.5026,-10.208,-10.1508,-10.1858,-10.1819,-10.1492,-10.2382,-10.2518,-10.2892,0.0,0.0,0.0,-10.6352,-10.5557,-10.4575,-10.3967,-10.3126,-10.2191,-10.2144,-10.2144,-10.2144,-10.2144,-10.2144,-10.2191,-10.2986,-10.3406,-10.3453,-10.4248,-10.4622,-10.4914,-10.5449,-10.5739,-10.6076,-10.7231,-10.814,-10.8426,-10.8996,-10.928,-10.928,-10.9622,-10.9866,-10.9866,-10.9866,-11.0696,-11.2502,-11.0403,-11.094,-11.4308,-11.6325,-11.8496,-12.0821,-12.3717,-12.4791,-12.3835,-12.1977,-12.0546,-11.8935,-11.7917,-11.7863,-11.8567,-11.9738,-12.0328,-12.0542,-12.2095,-12.0956,-11.5645,-11.6242,-11.569,-11.281,-11.4644,-11.6261,-11.7832,-11.8985,-12.0428,-12.1949,-12.2446,-12.381,-12.607,-12.6868,-12.8476,-13.1521,-13.2007,-13.1765,-13.042,-12.9991,-13.0101,-13.0046,-13.0261,-13.0965,-13.2678,-13.091,-12.9991,-13.2357,-13.1979,-13.1713,-13.091,-13.1979,-13.2678,-13.053,-13.1979,-13.3527,-13.3095,-13.1839,-13.0433,-12.9848,-12.8168,-12.7252,-12.6822,-12.6986,-12.6658,-12.6493,-12.6439,-12.6384,-12.5736,-12.4316,-12.3005,-10.1117,0.0,-10.1957,-10.2705,0.0,-10.4248,-10.2584,-9.9344,-10.3153,-10.4902,-10.5417,-10.5931,-10.5604,-10.4575,-10.2602,-10.1236,-9.9984,-9.9436,-9.8298,-9.714,-9.8632,-9.9481,-10.003,-10.0487,-10.1634,-10.3173,-10.364,-10.4108,-10.4575,-10.4867,-10.544,-10.5957,-10.7465,-10.8333,-10.852,-10.8958,-10.928,-10.928,-11.0891,-11.1721,-11.1721,-11.2258,-11.3039,-11.4015,-11.2062,0.0,0.0,0.0,0.0,0.0,0.0,0.0,0.0,0.0,0.0,-11.7044,-11.6674,-11.6411,-11.6939,-11.7466,-11.7782,-11.7835,-11.9106,-11.7164,-11.1244,-11.1586,-11.1471,-10.9329,-11.0208,-11.1172,-11.2284,-11.3181,-11.4715,-11.6949,-11.7863,-11.9549,-12.2095,-12.3115,-12.4512,-12.6446,-12.6555,-12.7041,-12.7375,-12.7429,-12.7648,-12.8194,-12.8303,-12.9062,-13.0744,-12.9551,-12.7761,-12.6873,-12.765,-12.8033,-12.8033,-12.9903,-13.0513,-12.8985,-13.0224,-13.0976,-13.0155,-12.946,-12.8974,-12.7892,-12.6868,-12.59,-12.59,-12.59,-12.5681,-12.5135,-12.4917,-12.4808,-12.4097,-12.2677,-12.1585,-10.1724,-10.2378,-10.3547,-10.4435,-10.5089,-10.4836,-10.1243,-9.5887,-9.8632,-10.0378,-10.1435,-10.2998,-10.3274,-10.2198,-9.9603,-9.8131,-9.7376,-9.6285,-9.4628,-9.2096,-9.4628,-9.6152,-9.6844,-9.7832,-9.9431,-10.1704,-10.2465,-10.3266,-10.4061,-10.4061,-10.4575,-10.5557,-10.7024,-10.7887,-10.8494,0.0,0.0,0.0,-11.2599,-11.3819,-11.3868,-11.4649,-11.5235,-11.5577,-11.3624,0.0,-11.338,-11.5024,-11.5062,-11.3088,-11.3978,0.0,0.0,0.0,0.0,0.0,0.0,0.0,0.0,0.0,0.0,0.0,-11.5454,-11.2946,-10.7689,-10.806,-10.8402,-10.7767,-10.8207,-10.8451,-10.8011,-10.8939,-11.0278,-11.2274,-11.3535,-11.5432,-11.7853,-11.9182,-12.0631,-12.1446,-12.1122,-12.1716,-12.3648,-12.3648,-12.3705,-12.4136,-12.5484,-12.6187,-12.6838,-12.597,-12.4511,-12.2273,-12.3198,-12.3917,-12.5107,-12.7219,-12.8502,-12.6681,-12.7826,-12.9058,-12.755,-12.7617,-12.7562,-12.6528,-12.5618,-12.5135,-12.5135,-12.5026,-12.4425,-12.3824,-12.3278,-12.2732,-12.1858,-12.0875,-12.0493,-9.9854,-9.9339,-10.1209,-10.1583,-10.0647,-9.6241,-9.3714,-9.2945,-9.3241,-9.4055,-9.4617,-9.4875,-9.4919,-9.4746,-9.3375,-9.2607,-9.2522,-9.2394,-9.1925,-9.0907,-9.1968,-9.1836,-9.0759,-9.4731,-9.6827,-9.6684,-10.0214,-10.1911,-10.2004,-10.2004,-10.2518,-10.35,-10.4365,-10.546,-10.7036,-10.8522,-11.0359,-11.2197,-11.2696,-11.2746,-11.2746,-11.2892,-11.3819,-11.543,-11.3624,-11.3819,-11.6455,-11.4262,-11.3234,-11.3819,-11.3185,-11.2006,-11.0142,-10.9897,-10.9245,0.0,-10.7503,0.0,0.0,0.0,0.0,0.0,0.0,0.0,0.0,-10.5864,-10.6791,-10.7572,-11.0257,-11.1135,-10.9232,-11.0061,-11.0257,-10.9946,-10.9946,-11.1075,-11.3759,-11.4411,-11.6373,-12.1422,-11.9797,-11.8471,-11.879,-11.6696,-11.5336,-11.6192,-11.8772,-12.0384,-11.9532,-11.9587,-12.086,-12.5314,-12.5258,-12.3428,-12.2018,-12.4956,-12.6682,-12.3945,-12.6336,-12.9667,-12.8243,-12.7372,-12.6246,-12.5711,-12.4165,-12.2787,-12.2787,-12.1913,-12.1585,-12.224,-12.0984,-11.9728,-11.9564,-11.94,-11.9018,-9.7106,-9.5313,-9.7936,-9.7467,-9.4848,-9.3106,-9.1159,-8.9959,-9.1457,-9.1369,-9.0237,-9.2048,-9.2648,-9.2606,-8.9926,-8.8615,-8.8615,-8.8615,-8.7511,-8.5386,-8.7552,-8.9635,-9.1587,-9.3364,-9.6267,-9.9723,-10.1666,-10.2472,-10.2518,-10.3032,-10.3789,-10.4547,-10.5982,-10.6798,-10.6991,-10.756,-10.8808,-11.0799,-11.1235,-11.2209,-11.338,-11.3966,-11.4698,-11.5577,-11.421,-11.4112,-11.543,-11.3624,-11.2502,-11.2306,-11.1281,-11.0305,-10.9329,-10.7523,-10.6645,0.0,0.0,0.0,0.0,0.0,0.0,0.0,0.0,0.0,0.0,0.0,-10.5327,-10.5815,-10.7719,-10.8304,-10.6694,-10.6986,-10.7345,-10.79,-10.857,-10.9392,-11.1304,-11.2235,-11.2914,-11.3948,-11.3135,-11.2608,-11.366,-11.2754,-11.2201,-11.2812,-11.4134,-11.5464,-11.5668,-11.7413,-11.8988,-12.0621,-12.0729,-12.0513,-12.0122,-12.2614,-12.3809,-12.1801,-12.3807,-12.5429,-12.4004,-12.3696,-12.3134,-12.2219,-12.1218,-12.0329,-12.0329,-11.9892,-11.9673,-12.011,-11.9455,-11.9346,-12.0438,-12.0219,-12.0219,-9.3986,-9.1585,-9.2477,-9.0673,-8.7345,-8.805,-8.7279,-8.5466,-8.8028,-8.7811,-8.5483,-8.8603,-8.9544,-8.9295,-8.6247,-8.4886,-8.5045,-8.4783,-8.3612,-8.1553,-8.3807,-8.7055,-9.0291,-9.1584,-9.5021,-10.0319,-10.2084,-10.2799,-10.2799,-10.3554,-10.4312,-10.5166,-10.7079,-10.7803,-10.7566,-10.7319,-10.7983,-10.9622,-11.0452,-11.1818,-11.3722,-11.4503,-11.4893,-11.4893,-11.3917,-11.3478,-11.3722,-11.2502,-11.1379,-11.0501,-10.9232,-10.8402,-10.8109,-10.5522,0.0,0.0,0.0,0.0,0.0,0.0,0.0,0.0,0.0,-10.1178,-10.0934,0.0,-10.3765,0.0,-10.5034,-10.5229,-10.4156,-10.4745,0.0,0.0,-10.8693,-10.9459,-10.9999,-11.0914,-11.0438,-10.8618,-10.8342,-10.8722,-10.9732,-11.0113,-11.0684,-11.1933,-11.1754,-11.211,-11.3786,-11.6429,-11.7518,-11.7186,-11.7033,-11.7444,-11.8821,-11.9848,-11.995,-11.9627,-12.0981,-12.148,-11.9796,-12.0457,-12.0537,-11.9463,-11.8745,-11.8909,-11.9487,-11.8909,-11.8635,-11.8035,-11.7871,-11.8472,-12.0165,-12.0056,-12.0056,-9.0562,-8.892,-8.3298,-7.959,-7.7405,-7.752,-7.7728,-7.857,-7.9297,-7.9641,-7.9457,-8.1628,-8.1897,-8.1091,-8.075,0.0,-8.1553,-8.1553,-8.1515,-8.1284,-8.2315,-8.2242,-8.1585,-8.8656,-9.1925,-9.208,-9.8601,-10.177,-10.1724,-10.1398,-10.1915,-10.3554,-10.5697,-10.7614,-10.8996,-10.8899,-10.9671,-11.0745,-11.0842,-11.1477,-11.2648,-11.2746,-11.2795,-11.2795,-11.1721,-11.1623,-11.255,-11.0647,-10.9476,-10.9329,-10.7426,-10.5864,-10.4839,0.0,0.0,0.0,0.0,0.0,0.0,0.0,0.0,0.0,0.0,0.0,0.0,0.0,0.0,0.0,-10.3912,0.0,-10.3082,-10.5957,0.0,0.0,0.0,-11.1493,-10.9999,-11.0253,-11.0036,-10.9768,0.0,0.0,-10.878,-10.8627,-10.9676,-11.2366,-11.1517,-11.1834,-11.4572,-11.4735,-11.5115,-11.7378,-11.6898,-11.636,-11.7083,-11.6491,-11.6282,-11.716,-11.9216,-12.0371,-11.9823,-11.9796,-11.9851,-11.9686,-11.9244,-11.9268,-12.0867,-11.9738,-11.8089,-11.6014,-11.5577,-11.5577,-11.6178,-11.6942,-11.7379,-8.2454,-7.8914,-7.6458,-7.4764,-7.3957,-7.3957,-7.4754,-7.6007,-7.6349,-7.6501,-7.6539,-7.7222,-7.6766,-7.5476,-7.5476,0.0,0.0,0.0,-7.9538,-8.0525,-8.0867,-8.2394,-8.4455,-8.7293,-9.0698,-9.4483,-9.754,-9.9744,-10.1209,-10.2056,-10.2244,-10.1763,0.0,0.0,-10.672,-10.7049,-10.8158,-10.9817,-11.0549,-11.1086,-11.1526,-11.2209,-11.2209,-11.1574,-11.0452,-11.011,-11.0549,-10.972,-10.8695,-10.7377,-10.6547,-10.5278,0.0,0.0,0.0,0.0,0.0,0.0,0.0,0.0,0.0,0.0,0.0,-9.3223,-9.4687,0.0,0.0,0.0,-9.9909,-10.0349,-9.9958,-10.1931,0.0,0.0,0.0,0.0,0.0,0.0,0.0,-11.1545,-10.9363,-10.8744,-11.0767,-11.2613,-11.3893,-11.4892,-11.3008,-11.2866,-11.6148,0.0,-11.4619,-11.513,-11.5452,-11.5383,-11.4897,-11.4926,-11.5076,-11.5328,-11.7831,-11.9354,-11.8747,-11.9972,-12.0617,-11.9933,-11.9438,-11.9134,-11.886,-11.7873,-11.7294,-11.8144,-11.8199,-11.7708,-11.727,-11.7652,-11.8144,-7.5165,0.0,0.0,0.0,0.0,-7.1451,-7.2249,-7.3577,-7.3805,-7.3805,-7.3577,-7.364,0.0,0.0,0.0,0.0,0.0,0.0,-7.7222,-7.8589,-7.9348,-8.1469,-8.4942,-8.5446,-8.9139,-9.5047,-9.6225,-9.8202,-10.0729,-10.0789,-10.0645,-10.036,0.0,0.0,0.0,0.0,-10.6986,-10.8695,-10.9573,-11.0061,-11.0403,-11.0598,-11.0305,-10.9524,-10.8743,-10.8353,-10.8353,-10.806,-10.7133,-10.5669,-10.4741,0.0,0.0,0.0,0.0,0.0,0.0,0.0,0.0,0.0,0.0,0.0,0.0,0.0,0.0,0.0,0.0,0.0,0.0,0.0,-9.6151,-9.7883,-9.9931,0.0,0.0,0.0,0.0,0.0,0.0,0.0,0.0,0.0,-11.3074,-11.441,-11.5741,0.0,0.0,-11.4801,-11.7581,-11.6364,-11.5162,-11.433,-11.4705,0.0,-11.3543,-11.4663,-11.5286,-11.4527,-11.6555,-11.8078,-11.7036,-11.8096,-11.9043,-11.7781,-11.7593,-11.7428,-11.6337,-11.559,-11.5665,-11.7581,-11.7505,-11.6666,-11.6614,-11.6997,-11.727,0.0,0.0,0.0,0.0,0.0,0.0,0.0,0.0,-7.1034,-7.0958,0.0,-7.0097,0.0,0.0,0.0,0.0,0.0,-7.3084,0.0,0.0,-7.7602,-7.8817,-7.919,-8.3117,-8.697,-9.0403,-9.4512,-9.79,-9.9997,-9.6971,0.0,0.0,0.0,0.0,0.0,0.0,-10.6596,-10.767,-10.7816,-10.8304,-10.9232,-10.7377,-10.6303,-10.6303,-10.6254,-10.6205,-10.6157,-10.5181,-10.4546,-10.44,-10.152,0.0,0.0,0.0,0.0,0.0,0.0,0.0,0.0,0.0,0.0,0.0,0.0,0.0,0.0,0.0,0.0,0.0,0.0,0.0,0.0,-9.5073,0.0,0.0,0.0,0.0,0.0,0.0,0.0,0.0,0.0,0.0,-11.4769,-11.299,-11.3117,-11.8257,0.0,0.0,0.0,0.0,-11.5996,-11.5885,-11.5514,-11.4594,-11.3392,-11.4691,-11.55,-11.4288,0.0,0.0,-11.4745,-11.3931,-11.3555,-11.2691,-11.3021,-11.32,-11.4829,-11.3709,-11.2813,-11.2924,-11.1743,-11.073,-11.1535,-11.3375,-11.3576,0.0,0.0,0.0,0.0,0.0,0.0,0.0,0.0,0.0,-6.8604,0.0,-6.8273,0.0,0.0,0.0,0.0,0.0,0.0,0.0,0.0,-7.4033,-7.4982,-7.5514,-7.8578,-8.147,0.0,-8.7185,-8.8961,0.0,0.0,0.0,0.0,0.0,0.0,0.0,0.0,-10.4741,-10.6757,-10.746,-10.8207,-10.9134,-10.7865,-10.7133,-10.7133,-10.645,-10.5717,-10.4985,-10.4595,-10.3423,0.0,0.0,0.0,0.0,0.0,0.0,0.0,0.0,0.0,0.0,0.0,0.0,0.0,0.0,0.0,0.0,0.0,0.0,0.0,0.0,0.0,0.0,0.0,-9.5107,0.0,0.0,0.0,0.0,0.0,0.0,0.0,0.0,0.0,-10.9995,-11.1517,-11.3696,-11.6676,-11.6571,-11.6452,-11.7315,0.0,0.0,0.0,0.0,0.0,0.0,0.0,-11.1345,-10.9827,-11.0944,-11.2065,-11.1903,-11.4148,-11.5716,-11.5977,0.0,0.0,-11.1965,-11.1784,-11.227,-11.2902,-11.4584,-11.4983,-11.2799,-11.3985,-11.4884,0.0,0.0,0.0,0.0,0.0,0.0,0.0,0.0,0.0,-6.6364,-6.663,0.0,0.0,0.0,0.0,0.0,0.0,0.0,0.0,0.0,0.0,0.0,-7.2932,-7.4909,0.0,0.0,0.0,0.0,0.0,0.0,0.0,0.0,0.0,0.0,0.0,0.0,-10.274,-10.4867,-10.653,-10.767,-10.8695,-10.767,-10.7133,-10.7133,-10.6059,-10.5132,-10.44,0.0,0.0,0.0,0.0,0.0,0.0,0.0,0.0,0.0,0.0,0.0,0.0,0.0,0.0,0.0,0.0,0.0,0.0,0.0,0.0,0.0,0.0,0.0,0.0,0.0,-9.0314,0.0,0.0,0.0,0.0,0.0,0.0,0.0,0.0,0.0,0.0,0.0,-11.0894,-11.3535,-11.4264,-11.4876,-11.5619,-11.5217,-11.4359,0.0,0.0,0.0,0.0,0.0,0.0,0.0,0.0,0.0,0.0,0.0,0.0,0.0,0.0,-11.656,-11.2457,-11.2024,-11.2525,-11.3192,0.0,0.0,0.0,0.0,0.0,0.0,0.0,0.0,0.0,0.0,0.0,0.0,0.0,0.0,0.0,0.0,0.0,0.0,-6.4769,0.0,0.0,0.0,0.0,0.0,0.0,0.0,0.0,0.0,0.0,0.0,0.0,0.0,0.0,0.0,0.0,0.0,0.0,0.0,0.0,0.0,0.0,-10.069,-10.2838,-10.4936,-10.6547,-10.7572,-10.6596,-10.6059,-10.6059,-10.4985,-10.44,-10.4302,0.0,0.0,0.0,0.0,0.0,0.0,0.0,0.0,0.0,0.0,0.0,0.0,0.0,0.0,0.0,0.0,0.0,0.0,0.0,0.0,0.0,0.0,0.0,0.0,0.0,0.0,-8.5408,-9.2027,-9.7397,0.0,0.0,0.0,0.0,0.0,0.0,0.0,0.0,0.0,0.0,-11.1573,-11.3175,-11.3342,-11.3875,-11.4271,-11.4889,-11.3883,-11.3173,-11.3064,-11.4472,-11.4966,0.0,0.0,0.0,0.0,0.0,0.0,0.0,0.0,0.0,0.0,0.0,0.0,0.0,0.0,0.0,0.0,0.0,0.0,0.0,0.0,0.0,0.0,0.0,0.0,0.0,0.0,0.0,0.0,0.0,0.0,0.0,0.0,0.0,0.0,0.0,0.0,0.0,0.0,0.0,0.0,0.0,0.0,0.0,0.0,0.0,0.0,0.0,0.0,0.0,0.0,0.0,0.0,0.0,0.0,-9.8956,-10.1635,-10.396,-10.5571,-10.6708,-10.562,-10.5278,-10.601,-10.4985,-10.4058,0.0,0.0,0.0,0.0,0.0,0.0,0.0,0.0,0.0,0.0,0.0,0.0,0.0,0.0,0.0,0.0,0.0,0.0,0.0,0.0,0.0,0.0,0.0,0.0,0.0,0.0,0.0,0.0,-9.0502,-9.3714,-9.5999,0.0,0.0,0.0,0.0,0.0,0.0,0.0,0.0,0.0,0.0,-11.0791,-11.2467,-11.2169,-11.181,-11.2372,-11.192,-11.1193,-11.0827,-11.1165,-11.0673,-10.8122,0.0,0.0,0.0,0.0,0.0,0.0,0.0,0.0,0.0,0.0,0.0,0.0,0.0,0.0,0.0,0.0,0.0,0.0,0.0,0.0,0.0,0.0,0.0,0.0,0.0,0.0,0.0,0.0,0.0,0.0,0.0,0.0,0.0,0.0,0.0,0.0,0.0,0.0,0.0,0.0,0.0,0.0,0.0,0.0,0.0,0.0,0.0,0.0,0.0,0.0,0.0,0.0,0.0,-9.6254,-9.8824,-10.1588,-10.3863,-10.4907,-10.4692,-10.4936,-10.6059,-10.4985,-10.3521,0.0,0.0,0.0,0.0,0.0,0.0,0.0,0.0,0.0,0.0,0.0,0.0,0.0,0.0,0.0,0.0,0.0,0.0,0.0,0.0,0.0,0.0,0.0,0.0,0.0,0.0,0.0,0.0,-8.9471,-9.1906,-9.3768,0.0,0.0,0.0,0.0,0.0,0.0,0.0,0.0,0.0,0.0,-10.7103,-10.9059,-10.951,0.0,0.0,-11.0385,-10.9827,-10.9551,-11.0109,-10.9447,-10.6796,-10.6345,0.0,0.0,0.0,0.0,0.0,0.0,0.0,0.0,0.0,0.0,0.0,0.0,0.0,0.0,0.0,0.0,0.0,0.0,0.0,0.0,0.0,0.0,0.0,0.0,0.0,0.0,0.0,0.0,0.0,0.0,0.0,0.0,0.0,0.0,0.0,0.0,0.0,0.0,0.0,0.0,0.0,0.0,0.0,0.0,0.0,0.0,0.0,0.0,0.0,0.0,0.0,0.0,0.0,-9.4882,-9.9031,-10.1666,-10.2643,-10.3619,-10.4546,-10.5571,-10.4546,-10.2496,0.0,0.0,0.0,0.0,0.0,0.0,0.0,0.0,0.0,0.0,0.0,0.0,0.0,0.0,0.0,0.0,0.0,0.0,0.0,0.0,0.0,0.0,0.0,0.0,0.0,0.0,0.0,0.0,0.0,0.0,0.0,0.0,0.0,0.0,0.0,0.0,0.0,0.0,0.0,0.0,0.0,-10.3137,-10.4001,-10.6275,-10.8505,0.0,0.0,-10.8225,-10.8759,-11.0018,-11.0029,-10.6852,0.0,0.0,0.0,0.0,0.0,0.0,0.0,0.0,0.0,0.0,0.0,0.0,0.0,0.0,0.0,0.0,0.0,0.0,0.0,0.0,0.0,0.0,0.0,0.0,0.0,0.0,0.0,0.0,0.0,0.0,0.0,0.0,0.0,0.0,0.0,0.0,0.0,0.0,0.0,0.0,0.0,0.0,0.0,0.0,0.0,0.0,0.0,0.0,0.0,0.0,0.0,0.0,0.0,0.0,-9.4833,-9.8299,-10.0202,-10.0495,-10.0739,-10.0983,-10.1227,-10.0202,0.0,0.0,0.0,0.0,0.0,0.0,0.0,0.0,0.0,0.0,0.0,0.0,0.0,0.0,0.0,0.0,0.0,0.0,0.0,0.0,0.0,0.0,0.0,0.0,0.0,0.0,0.0,-8.6101,0.0,0.0,0.0,0.0,0.0,0.0,0.0,0.0,0.0,0.0,0.0,0.0,0.0,0.0,-9.9216,-10.174,-10.118,-10.1362,0.0,0.0,-10.1609,-10.0381,-10.3124,-10.4113,0.0,0.0,0.0,0.0,0.0,0.0,0.0,0.0,0.0,0.0,0.0,0.0,0.0,0.0,0.0,0.0,0.0,0.0,0.0,0.0,0.0,0.0,0.0,0.0,0.0,0.0,0.0,0.0,0.0,0.0,0.0,0.0,0.0,0.0,0.0,0.0,0.0,0.0,0.0,0.0,0.0,0.0,0.0,0.0,0.0,0.0,0.0,0.0,0.0,0.0,0.0,0.0,0.0,0.0,-9.0343,-9.21,-9.5224,-9.7322,-9.825,-9.8738,-9.9177,-9.9665,-9.8591,-9.6786,0.0,0.0,0.0,0.0,0.0,0.0,0.0,0.0,0.0,0.0,0.0,0.0,0.0,0.0,0.0,0.0,0.0,0.0,0.0,0.0,0.0,0.0,0.0,0.0,0.0,0.0,0.0,0.0,0.0,0.0,0.0,0.0,0.0,0.0,0.0,0.0,0.0,0.0,0.0,0.0,0.0,0.0,-9.8047,-9.7571,0.0,0.0,0.0,-9.8832,-9.7848,0.0,0.0,0.0,0.0,0.0,0.0,0.0,0.0,0.0,0.0,0.0,0.0,0.0,0.0,0.0,0.0,0.0,0.0,0.0,0.0,0.0,0.0,0.0,0.0,0.0,0.0,0.0,0.0,0.0,0.0,0.0,0.0,0.0,0.0,0.0,0.0,0.0,0.0,0.0,0.0,0.0,0.0,0.0,0.0,0.0,0.0,0.0,0.0,0.0,0.0,0.0,0.0,0.0,0.0,0.0,0.0,0.0,-8.8488,-9.1417,-9.3955,-9.5956,-9.6932,-9.7908,-9.8884,-9.7859,-9.5809,0.0,0.0,0.0,0.0,0.0,0.0,0.0,0.0,0.0,0.0,0.0,0.0,0.0,0.0,0.0,0.0,0.0,0.0,0.0,0.0,0.0,0.0,0.0,0.0,0.0,0.0,0.0,0.0,0.0,0.0,0.0,0.0,0.0,0.0,0.0,0.0,0.0,0.0,0.0,0.0,0.0,-9.1775,-9.4186,-9.482,-9.5371,0.0,0.0,-9.7649,-9.7427,-9.782,0.0,0.0,0.0,0.0,0.0,0.0,0.0,0.0,0.0,0.0,0.0,0.0,0.0,0.0,0.0,0.0,0.0,0.0,0.0,0.0,0.0,0.0,0.0,0.0,0.0,0.0,0.0,0.0,0.0,0.0,0.0,0.0,0.0,0.0,0.0,0.0,0.0,0.0,0.0,0.0,0.0,0.0,0.0,0.0,0.0,0.0,0.0,0.0,0.0,0.0,0.0,0.0,0.0,0.0,0.0,0.0,-8.8439,-9.0733,-9.2539,-9.3711,-9.4004,-9.4199,-9.4394,-9.3467,-9.1807,0.0,0.0,0.0,0.0,0.0,0.0,0.0,0.0,0.0,0.0,0.0,0.0,0.0,0.0,0.0,0.0,0.0,0.0,0.0,0.0,0.0,0.0,0.0,0.0,0.0,0.0,0.0,0.0,0.0,0.0,0.0,0.0,0.0,0.0,0.0,0.0,0.0,0.0,0.0,0.0,0.0,-8.9558,-9.3506,-9.2335,0.0,0.0,0.0,0.0,-9.1012,-9.2085,0.0,0.0,0.0,0.0,0.0,0.0,0.0,0.0,0.0,0.0,0.0,0.0,0.0,0.0,0.0,0.0,0.0,0.0,0.0,0.0,0.0,0.0,0.0,0.0,0.0,0.0,0.0,0.0,0.0,0.0,0.0,0.0,0.0,0.0,0.0,0.0,0.0,0.0,0.0,0.0,0.0,0.0,0.0,0.0,0.0,0.0,0.0,0.0,0.0,0.0,0.0,0.0,0.0,0.0,0.0,0.0,-8.7561,-8.8684,-9.005,-9.1563,-9.1612,-9.1612,-9.1612,-9.0636,-8.9318,0.0,0.0,0.0,0.0,0.0,0.0,0.0,0.0,0.0,0.0,0.0,0.0,0.0,0.0,0.0,0.0,0.0,0.0,0.0,0.0,0.0,0.0,0.0,0.0,0.0,0.0,0.0,0.0,0.0,0.0,0.0,0.0,0.0,0.0,0.0,0.0,0.0,0.0,0.0,0.0,-8.5525,-8.6074,-8.9043,0.0,0.0,0.0,0.0,0.0,0.0,-8.9447,-8.989,0.0,0.0,0.0,0.0,0.0,0.0,0.0,0.0,0.0,0.0,0.0,0.0,0.0,0.0,0.0,0.0,0.0,0.0,0.0,0.0,0.0,0.0,0.0,0.0,0.0,0.0,0.0,0.0,0.0,0.0,0.0,0.0,0.0,0.0,0.0,0.0,0.0,0.0,0.0,0.0,0.0,0.0,0.0,0.0,0.0,0.0,0.0,0.0,0.0,0.0,0.0,0.0,0.0,0.0,0.0,-8.6146,-8.594,-8.7056,-8.966,-8.9757,-8.9855,-9.0001,-8.883,-8.7463,-8.5775,0.0,0.0,0.0,0.0,0.0,0.0,0.0,0.0,0.0,0.0,0.0,0.0,0.0,0.0,0.0,0.0,0.0,0.0,0.0,0.0,0.0,0.0,0.0,0.0,0.0,0.0,0.0,0.0,0.0,0.0,0.0,0.0,0.0,0.0,0.0,0.0,0.0,0.0,0.0,-8.3143,-8.3143,0.0,0.0,0.0,0.0,0.0,0.0,0.0,0.0,-8.8616,0.0,0.0,0.0,0.0,0.0,0.0,0.0,0.0,0.0,0.0,0.0,0.0,0.0,0.0,0.0,0.0,0.0,0.0,0.0,0.0,0.0,0.0,0.0,0.0,0.0,0.0,0.0,0.0,0.0,0.0,0.0,0.0,0.0,0.0,0.0,0.0,0.0,0.0,0.0,0.0,0.0,0.0,0.0,0.0,0.0,0.0,0.0,0.0,0.0,0.0,0.0,0.0,0.0,0.0,0.0,0.0,-8.3098,-8.458,-8.8537,-8.8684,-8.9074,-8.9953,-8.8049,-8.5435,-8.213,0.0,0.0,0.0,0.0,0.0,0.0,0.0,0.0,0.0,0.0,0.0,0.0,0.0,0.0,0.0,0.0,0.0,0.0,0.0,0.0,0.0,0.0,0.0,0.0,0.0,0.0,0.0,0.0,0.0,0.0,0.0,0.0,0.0,0.0,0.0,0.0,0.0,0.0,-8.069,-8.1296,0.0,0.0,0.0,0.0,0.0,0.0,0.0,0.0,-8.7186,0.0,0.0,0.0,0.0,0.0,0.0,0.0,0.0,0.0,0.0,0.0,0.0,0.0,0.0,0.0,0.0,0.0,0.0,0.0,0.0,0.0,0.0,0.0,0.0,0.0,0.0,0.0,0.0,0.0,0.0,0.0,0.0,0.0,0.0,0.0,0.0,0.0,0.0,0.0,0.0,0.0,0.0,0.0,0.0,0.0,0.0,0.0,0.0,0.0,0.0,0.0,0.0,0.0,0.0,0.0,0.0,0.0,0.0,-8.3604,-8.6585,-8.5921,-8.5648,-8.6037,-8.4802,-8.3001,0.0,0.0,0.0,0.0,0.0,0.0,0.0,0.0,0.0,0.0,0.0,0.0,0.0,0.0,0.0,0.0,0.0,0.0,0.0,0.0,0.0,0.0,0.0,0.0,0.0,0.0,0.0,0.0,0.0,0.0,0.0,0.0,0.0,0.0,0.0,0.0,0.0,0.0,0.0,0.0,0.0,0.0,0.0,0.0,0.0,0.0,0.0,0.0,0.0,0.0,0.0,0.0,0.0,0.0,0.0,0.0,0.0,0.0,0.0,0.0,0.0,0.0,0.0,0.0,0.0,0.0,0.0,0.0,0.0,0.0,0.0,0.0,0.0,0.0,0.0,0.0,0.0,0.0,0.0,0.0,0.0,0.0,0.0,0.0,0.0,0.0,0.0,0.0,0.0,0.0,0.0,0.0,0.0,0.0,0.0,0.0,0.0,0.0,0.0,0.0,0.0,0.0,0.0,0.0,0.0,0.0,0.0,0.0,-8.2059,-8.485,-8.3852,-8.2976,-8.2757,-8.1527,-8.0011,0.0,0.0,0.0,0.0,0.0,0.0,0.0,0.0,0.0,0.0,0.0,0.0,0.0,0.0,0.0,0.0,0.0,0.0,0.0,0.0,0.0,0.0,0.0,0.0,0.0,0.0,0.0,0.0,0.0,0.0,0.0,0.0,0.0,0.0,0.0,0.0,0.0,0.0,0.0,0.0,0.0,0.0,0.0,0.0,0.0,0.0,0.0,0.0,-8.2172,0.0,0.0,0.0,0.0,0.0,0.0,0.0,0.0,0.0,0.0,0.0,0.0,0.0,0.0,0.0,0.0,0.0,0.0,0.0,0.0,0.0,0.0,0.0,0.0,0.0,0.0,0.0,0.0,0.0,0.0,0.0,0.0,0.0,0.0,0.0,0.0,0.0,0.0,0.0,0.0,0.0,0.0,0.0,0.0,0.0,0.0,0.0,0.0,0.0,0.0,0.0,0.0,0.0,0.0,0.0,0.0,0.0,0.0,0.0,-7.8711,-8.4232,-8.4802,-8.4261,-8.3322,-7.8927,-7.6052,0.0,0.0,0.0,0.0,0.0,0.0,0.0,0.0,0.0,0.0,0.0,0.0,0.0,0.0,0.0,0.0,0.0,0.0,0.0,0.0,0.0,0.0,0.0,0.0,0.0,0.0,0.0,0.0,0.0,0.0,0.0,0.0,0.0,0.0,0.0,0.0,0.0,0.0,0.0,0.0,0.0,0.0,0.0,0.0,0.0,0.0,0.0,0.0,0.0,0.0,0.0,0.0,0.0,0.0,0.0,0.0,0.0,0.0,0.0,0.0,0.0,0.0,0.0,0.0,0.0,0.0,0.0,0.0,0.0,0.0,0.0,0.0,0.0,0.0,0.0,0.0,0.0,0.0,0.0,0.0,0.0,0.0,0.0,0.0,0.0,0.0,0.0,0.0,0.0,0.0,0.0,0.0,0.0,0.0,0.0,0.0,0.0,0.0,0.0,0.0,0.0,0.0,0.0,0.0,0.0,0.0,0.0,0.0,-7.6842,-8.0083,-7.877,-7.7168,-7.5246,-7.5499,-7.5029,0.0,0.0,0.0,0.0,0.0,0.0,0.0,0.0,0.0,0.0,0.0,0.0,0.0,0.0,0.0,0.0,0.0,0.0,0.0,0.0,0.0,0.0,0.0,0.0,0.0,0.0,0.0,0.0,0.0,0.0,0.0,0.0,0.0,0.0,0.0,0.0,0.0,0.0,0.0,0.0,0.0,0.0,0.0,0.0,0.0,0.0,0.0,0.0,0.0,0.0,0.0,0.0,0.0,0.0,0.0,0.0,0.0,0.0,0.0,0.0,0.0,0.0,0.0,0.0,0.0,0.0,0.0,0.0,0.0,0.0,0.0,0.0,0.0,0.0,0.0,0.0,0.0,0.0,0.0,0.0,0.0,0.0,0.0,0.0,0.0,0.0,0.0,0.0,0.0,0.0,0.0,0.0,0.0,0.0,0.0,0.0,0.0,0.0,0.0,0.0,0.0,0.0,0.0,0.0,0.0,0.0,0.0,0.0,0.0,-7.5376,-7.1868,-6.9422,-6.8119,-7.2116,-7.382,0.0,0.0,0.0,0.0,0.0,0.0,0.0,0.0,0.0,0.0,0.0,0.0,0.0,0.0,0.0,0.0,0.0,0.0,0.0,0.0,0.0,0.0,0.0,0.0,0.0,0.0,0.0,0.0,0.0,0.0,0.0,0.0,0.0,0.0,0.0,0.0,0.0,0.0,0.0,0.0,0.0,0.0,0.0,0.0,0.0,0.0,0.0,0.0,0.0,0.0,0.0,0.0,0.0,0.0,0.0,0.0,0.0,0.0,0.0,0.0,0.0,0.0,0.0,0.0,0.0,0.0,0.0,0.0,0.0,0.0,0.0,0.0,0.0,0.0,0.0,0.0,0.0,0.0,0.0,0.0,0.0,0.0,0.0,0.0,0.0,0.0,0.0,0.0,0.0,0.0,0.0,0.0,0.0,0.0,0.0,0.0,0.0,0.0,0.0,0.0,0.0,0.0,0.0,0.0,0.0,0.0,0.0,0.0,0.0,-7.2092,-6.6066,-6.3527,-6.4274,-6.9134,-7.2017,0.0,0.0,0.0,0.0,0.0,0.0,0.0,0.0,0.0,0.0,0.0,0.0,0.0,0.0,0.0,0.0,0.0,0.0,0.0,0.0,0.0,0.0,0.0,0.0,0.0,0.0,0.0,0.0,0.0,0.0,0.0,0.0,0.0,0.0,0.0,0.0,0.0,0.0,0.0,0.0,0.0,0.0,0.0,0.0,0.0,0.0,0.0,0.0,0.0,0.0,0.0,0.0,0.0,0.0,0.0,0.0,0.0,0.0,0.0,0.0,0.0,0.0,0.0,0.0,0.0,0.0,0.0,0.0,0.0,0.0,0.0,0.0,0.0,0.0,0.0,0.0,0.0,0.0,0.0,0.0,0.0,0.0,0.0,0.0,0.0,0.0,0.0,0.0,0.0,0.0,0.0,0.0,0.0,0.0,0.0,0.0,0.0,0.0,0.0,0.0,0.0,0.0,0.0,0.0,0.0,0.0,0.0,0.0,0.0,-6.5459,-6.4709,-6.4215,-6.4108,-6.9383,-7.2525,-7.2895,0.0,0.0,0.0,0.0,0.0,0.0,0.0,0.0,0.0,0.0,0.0,0.0,0.0,0.0,0.0,0.0,0.0,0.0,0.0,0.0,0.0,0.0,0.0,0.0,0.0,0.0,0.0,0.0,0.0,0.0,0.0,0.0,0.0,0.0,0.0,0.0,0.0,0.0,0.0,0.0,0.0,0.0,0.0,0.0,0.0,0.0,0.0,0.0,0.0,0.0,0.0,0.0,0.0,0.0,0.0,0.0,0.0,0.0,0.0,0.0,0.0,0.0,0.0,0.0,0.0,0.0,0.0,0.0,0.0,0.0,0.0,0.0,0.0,0.0,0.0,0.0,0.0,0.0,0.0,0.0,0.0,0.0,0.0,0.0,0.0,0.0,0.0,0.0,0.0,0.0,0.0,0.0,0.0,0.0,0.0,0.0,0.0,0.0,0.0,0.0,0.0,0.0,0.0,0.0,0.0,0.0,0.0,0.0,-6.1411,-6.2884,-6.405,-6.5238,-6.9994,-7.2757,0.0,0.0,0.0,0.0,0.0,0.0,0.0,0.0,0.0,0.0,0.0,0.0,0.0,0.0,0.0,0.0,0.0,0.0,0.0,0.0,0.0,0.0,0.0,0.0,0.0,0.0,0.0,0.0,0.0,0.0,0.0,0.0,0.0,0.0,0.0,0.0,0.0,0.0,0.0,0.0,0.0,0.0,0.0,0.0,0.0,0.0,0.0,0.0,0.0,0.0,0.0,0.0,0.0,0.0,0.0,0.0,0.0,0.0,0.0,0.0,0.0,0.0,0.0,0.0,0.0,0.0,0.0,0.0,0.0,0.0,0.0,0.0,0.0,0.0,0.0,0.0,0.0,0.0,0.0,0.0,0.0,0.0,0.0,0.0,0.0,0.0,0.0,0.0,0.0,0.0,0.0,0.0,0.0,0.0,0.0,0.0,0.0,0.0,0.0,0.0,0.0,0.0,0.0,0.0,0.0,0.0,0.0,0.0,-6.0787,-6.0066,-6.0324,-6.249,-6.6658,-7.0222,-7.2592,0.0,0.0,0.0,0.0,0.0,0.0,0.0,0.0,0.0,0.0,0.0,0.0,0.0,0.0,0.0,0.0,0.0,0.0,0.0,0.0,0.0,0.0,0.0,0.0,0.0,0.0,0.0,0.0,0.0,0.0,0.0,0.0,0.0,0.0,0.0,0.0,0.0,0.0,0.0,0.0,0.0,0.0,0.0,0.0,0.0,0.0,0.0,0.0,0.0,0.0,0.0,0.0,0.0,0.0,0.0,0.0,0.0,0.0,0.0,0.0,0.0,0.0,0.0,0.0,0.0,0.0,0.0,0.0,0.0,0.0,0.0,0.0,0.0,0.0,0.0,0.0,0.0,0.0,0.0,0.0,0.0,0.0,0.0,0.0,0.0,0.0,0.0,0.0,0.0,0.0,0.0,0.0,0.0,0.0,0.0,0.0,0.0,0.0,0.0,0.0,0.0,0.0,0.0,0.0,0.0,0.0,0.0,0.0,0.0,-6.1686,0.0,-6.4624,0.0,-6.953,-7.0877,0.0,0.0,0.0,0.0,0.0,0.0,0.0,0.0,0.0,0.0,0.0,0.0,0.0,0.0,0.0,0.0,0.0,0.0,0.0,0.0,0.0,0.0,0.0,0.0,0.0,0.0,0.0,0.0,0.0,0.0,0.0,0.0,0.0,0.0,0.0,0.0,0.0,0.0,0.0,0.0,0.0,0.0,0.0,0.0,0.0,0.0,0.0,0.0,0.0,0.0,0.0,0.0,0.0,0.0,0.0,0.0,0.0,0.0,0.0,0.0,0.0,0.0,0.0,0.0,0.0,0.0,0.0,0.0,0.0,0.0,0.0,0.0,0.0,0.0,0.0,0.0,0.0,0.0,0.0,0.0,0.0,0.0,0.0,0.0,0.0,0.0,0.0,0.0,0.0,0.0,0.0,0.0,0.0,0.0,0.0,0.0,0.0,0.0,0.0,0.0,0.0,0.0,0.0,0.0,0.0,0.0,0.0,0.0,0.0,-6.0748,-6.2903,-6.545,-6.8433,-7.001,-7.046,0.0,0.0,0.0,0.0,0.0,0.0,0.0,0.0,0.0,0.0,0.0,0.0,0.0,0.0,0.0,0.0,0.0,0.0,0.0,0.0,0.0,0.0,0.0,0.0,0.0,0.0,0.0,0.0,0.0,0.0,0.0,0.0,0.0,0.0,0.0,0.0,0.0,0.0,0.0,0.0,0.0,0.0,0.0,0.0,0.0,0.0,0.0,0.0,0.0,0.0,0.0,0.0,0.0,0.0,0.0,0.0,0.0,0.0,0.0,0.0,0.0,0.0,0.0,0.0,0.0,0.0,0.0,0.0,0.0,0.0,0.0,0.0,0.0,0.0,0.0,0.0,0.0,0.0,0.0,0.0,0.0,0.0,0.0,0.0,0.0,0.0,0.0,0.0,0.0,0.0,0.0,0.0,0.0,0.0,0.0,0.0,0.0,0.0,0.0,0.0,0.0,0.0,0.0,0.0,0.0,0.0,0.0,0.0,0.0,0.0,-6.1117,-6.5008,-6.9156,-7.0897,-7.1124,0.0,0.0,0.0,0.0,0.0,0.0,0.0,0.0,0.0,0.0,0.0,0.0,0.0,0.0,0.0,0.0,0.0,0.0,0.0,0.0,0.0,0.0,0.0,0.0,0.0,0.0,0.0,0.0,0.0,0.0,0.0,0.0,0.0,0.0,0.0,0.0,0.0,0.0,0.0,0.0,0.0,0.0,0.0,0.0,0.0,0.0,0.0,0.0,0.0,0.0,0.0,0.0,0.0,0.0,0.0,0.0,0.0,0.0,0.0,0.0,0.0,0.0,0.0,0.0,0.0,0.0,0.0,0.0,0.0,0.0,0.0,0.0,0.0,0.0,0.0,0.0,0.0,0.0,0.0,0.0,0.0,0.0,0.0,0.0,0.0,0.0,0.0,0.0,0.0,0.0,0.0,0.0,0.0,0.0,0.0,0.0,0.0,0.0,0.0,0.0,0.0,0.0,0.0,0.0,0.0,0.0,0.0,0.0,0.0,0.0,-6.2892,0.0,-6.5385,-6.691,-6.7455,-6.6893,0.0,0.0,0.0,0.0,0.0,0.0,0.0,0.0,0.0,0.0,0.0,0.0,0.0,0.0,0.0,0.0,0.0,0.0,0.0,0.0,0.0,0.0,0.0,0.0,0.0,0.0,0.0,0.0,0.0,0.0,0.0,0.0,0.0,0.0,0.0,0.0,0.0,0.0,0.0,0.0,0.0,0.0,0.0,0.0,0.0,0.0,0.0,0.0,0.0,0.0,0.0,0.0,0.0,0.0,0.0,0.0,0.0,0.0,0.0,0.0,0.0,0.0,0.0,0.0,0.0,0.0,0.0,0.0,0.0,0.0,0.0,0.0,0.0,0.0,0.0,0.0,0.0,0.0,0.0,0.0,0.0,0.0,0.0,0.0,0.0,0.0,0.0,0.0,0.0,0.0,0.0,0.0,0.0,0.0,0.0,0.0,0.0,0.0,0.0,0.0,0.0,0.0,0.0,0.0,0.0,0.0,0.0,0.0,0.0,0.0,0.0,-6.473,-6.6803,-6.7394,0.0,0.0,0.0,0.0,0.0,0.0,0.0,0.0,0.0,0.0,0.0,0.0,0.0,0.0,0.0,0.0,0.0,0.0,0.0,0.0,0.0,0.0,0.0,0.0,0.0,0.0,0.0,0.0,0.0,0.0,0.0,0.0,0.0,0.0,0.0,0.0,0.0,0.0,0.0,0.0,0.0,0.0,0.0,0.0,0.0,0.0,0.0,0.0,0.0,0.0,0.0,0.0,0.0,0.0,0.0,0.0,0.0,0.0,0.0,0.0,0.0,0.0,0.0,0.0,0.0,0.0,0.0,0.0,0.0,0.0,0.0,0.0,0.0,0.0,0.0,0.0,0.0,0.0,0.0,0.0,0.0,0.0,0.0,0.0,0.0,0.0,0.0,0.0,0.0,0.0,0.0,0.0,0.0,0.0,0.0,0.0,0.0,0.0,0.0,0.0,0.0,0.0,0.0,0.0,0.0,0.0,0.0,0.0,0.0,0.0,0.0,-6.703,-6.6268,-6.8863,0.0,-6.752,0.0,0.0,0.0,0.0,0.0,0.0,0.0,0.0,0.0,0.0,0.0,0.0,0.0,0.0,0.0,0.0,0.0,0.0,0.0,0.0,0.0,0.0,0.0,0.0,0.0,0.0,0.0,0.0,0.0,0.0,0.0,0.0,0.0,0.0,0.0,0.0,0.0,0.0,0.0,0.0,0.0,0.0,0.0,0.0,0.0,0.0,0.0,0.0,0.0,0.0,0.0,0.0,0.0,0.0,0.0,0.0,0.0,0.0,0.0,0.0,0.0,0.0,0.0,0.0,0.0,0.0,0.0,0.0,0.0,0.0,0.0,0.0,0.0,0.0,0.0,0.0,0.0,0.0,0.0,0.0,0.0,0.0,0.0,0.0,0.0,0.0,0.0,0.0,0.0,0.0,0.0,0.0,0.0,0.0,0.0,0.0,0.0,0.0,0.0,0.0,0.0,0.0,0.0,0.0,0.0,0.0,0.0,0.0,0.0,0.0,0.0,0.0,-6.7641,-6.7787,-6.649,0.0,0.0,0.0,0.0,0.0,0.0,0.0,0.0,0.0,0.0,0.0,0.0,0.0,0.0,0.0,0.0,0.0,0.0,0.0,0.0,0.0,0.0,0.0,0.0,0.0,0.0,0.0,0.0,0.0,0.0,0.0,0.0,0.0,0.0,0.0,0.0,0.0,0.0,0.0,0.0,0.0,0.0,0.0,0.0,0.0,0.0,0.0,0.0,0.0,0.0,0.0,0.0,0.0,0.0,0.0,0.0,0.0,0.0,0.0,0.0,0.0,0.0,0.0,0.0,0.0,0.0,0.0,0.0,0.0,0.0,0.0,0.0,0.0,0.0,0.0,0.0,0.0,0.0,0.0,0.0,0.0,0.0,0.0,0.0,0.0,0.0,0.0,0.0,0.0,0.0,0.0,0.0,0.0,0.0,0.0,0.0,0.0,0.0,0.0,0.0,0.0,0.0,0.0,0.0,0.0,0.0,0.0,0.0,0.0,0.0,-6.7833,-6.7455,-6.7637,-6.7186,-6.6135,0.0,0.0,0.0,0.0,0.0,0.0,0.0,0.0,0.0,0.0,0.0,0.0,0.0,0.0,0.0,0.0,0.0,0.0,0.0,0.0,0.0,0.0,0.0,0.0,0.0,0.0,0.0,0.0,0.0,0.0,0.0,0.0,0.0,0.0,0.0,0.0,0.0,0.0,0.0,0.0,0.0,0.0,0.0,0.0,0.0,0.0,0.0,0.0,0.0,0.0,0.0,0.0,0.0,0.0,0.0,0.0,0.0,0.0,0.0,0.0,0.0,0.0,0.0,0.0,0.0,0.0,0.0,0.0,0.0,0.0,0.0,0.0,0.0,0.0,0.0,0.0,0.0,0.0,0.0,0.0,0.0,0.0,0.0,0.0,0.0,0.0,0.0,0.0,0.0,0.0,0.0,0.0,0.0,0.0,0.0,0.0,0.0,0.0,0.0,0.0,0.0,0.0,0.0,0.0,0.0,0.0,0.0,0.0,0.0,0.0,0.0,0.0,0.0,0.0,-6.5766,0.0,0.0,0.0,0.0,0.0,0.0,0.0,0.0,0.0,0.0,0.0,0.0,0.0,0.0,0.0,0.0,0.0,0.0,0.0,0.0,0.0,0.0,0.0,0.0,0.0,0.0,0.0,0.0,0.0,0.0,0.0,0.0,0.0,0.0,0.0,0.0,0.0,0.0,0.0,0.0,0.0,0.0,0.0,0.0,0.0,0.0,0.0,0.0,0.0,0.0,0.0,0.0,0.0,0.0,0.0,0.0,0.0,0.0,0.0,0.0,0.0,0.0,0.0,0.0,0.0,0.0,0.0,0.0,0.0,0.0,0.0,0.0,0.0,0.0,0.0,0.0,0.0,0.0,0.0,0.0,0.0,0.0,0.0,0.0,0.0,0.0,0.0,0.0,0.0,0.0,0.0,0.0,0.0,0.0,0.0,0.0,0.0,0.0,0.0,0.0,0.0,0.0,0.0,0.0,0.0,0.0,0.0,0.0,0.0,0.0,0.0,0.0,0.0,0.0,0.0,0.0,0.0,0.0,0.0,0.0,0.0,0.0,0.0,0.0,0.0,0.0,0.0,0.0,0.0,0.0,0.0,0.0,0.0,0.0,0.0,0.0,0.0,0.0,0.0,0.0,0.0,0.0,0.0,0.0,0.0,0.0,0.0,0.0,0.0,0.0,0.0,0.0,0.0,0.0,0.0,0.0,0.0,0.0,0.0,0.0,0.0,0.0,0.0,0.0,0.0,0.0,0.0,0.0,0.0,0.0,0.0,0.0,0.0,0.0,0.0,0.0,0.0,0.0,0.0,0.0,0.0,0.0,0.0,0.0,0.0,0.0,0.0,0.0,0.0,0.0,0.0,0.0,0.0,0.0,0.0,0.0,0.0,0.0,0.0,0.0,0.0,0.0,0.0,0.0,0.0,0.0,0.0,0.0,0.0,0.0,0.0,0.0,0.0,0.0,0.0,0.0,0.0,0.0,0.0,0.0,0.0,0.0,0.0,0.0,0.0,0.0,0.0,0.0,0.0,0.0,0.0,0.0,0.0,0.0,0.0,0.0,0.0,0.0,0.0,0.0,0.0,0.0,0.0,0.0,0.0,0.0,0.0,0.0,0.0,0.0,0.0,0.0,0.0,0.0,0.0,0.0,0.0,0.0,0.0,0.0,0.0,0.0,0.0,0.0,0.0,0.0,0.0,0.0,0.0,0.0,0.0,0.0,0.0,0.0,0.0,0.0,0.0,0.0,0.0,0.0,0.0,0.0,0.0,0.0,0.0,0.0,0.0,0.0,0.0,0.0,0.0,0.0,0.0,0.0,0.0,0.0,0.0,0.0,0.0,0.0,0.0,0.0,0.0,0.0,0.0,0.0,0.0,0.0,0.0,0.0,0.0,0.0,0.0,0.0,0.0,0.0,0.0,0.0,0.0,0.0,0.0,0.0,0.0,0.0,0.0,0.0,0.0,0.0,0.0,0.0,0.0,0.0,0.0,0.0,0.0,0.0,0.0,0.0,0.0,0.0,0.0,0.0,0.0,0.0,0.0,0.0,0.0,0.0,0.0,0.0,0.0,0.0,0.0,0.0,0.0,0.0,0.0,0.0,0.0,0.0,0.0,0.0,0.0,0.0,0.0,0.0,0.0,0.0,0.0,0.0,0.0,0.0,0.0,0.0,0.0,0.0,0.0,0.0,0.0,0.0,0.0,0.0,0.0,0.0,0.0,0.0,0.0,0.0,0.0,0.0,0.0,0.0,0.0,0.0,0.0,0.0,0.0,0.0,0.0,0.0,0.0,0.0,0.0,0.0,0.0,0.0,0.0,0.0,0.0,0.0,0.0,0.0,0.0,0.0,0.0,0.0,0.0,0.0,0.0,0.0,0.0,0.0,0.0,0.0,0.0,0.0,0.0,0.0,0.0,0.0,0.0,0.0,0.0,0.0,0.0,0.0,0.0,0.0,0.0,0.0,0.0,0.0,0.0,0.0,0.0,0.0,0.0,0.0,0.0,0.0,0.0,0.0,0.0,0.0,0.0,0.0,0.0,0.0,0.0,0.0,0.0,0.0,0.0,0.0,0.0,0.0,0.0,0.0,0.0,0.0,0.0,0.0,0.0,0.0,0.0,0.0,0.0,0.0,0.0,0.0,0.0,0.0,0.0,0.0,0.0,0.0,0.0,0.0,0.0,0.0,0.0,0.0,0.0,0.0,0.0,0.0,0.0,0.0,0.0,0.0,0.0,0.0,0.0,0.0,0.0,0.0,0.0,0.0,0.0,0.0,0.0,0.0,0.0,0.0,0.0,0.0,0.0,0.0,0.0,0.0,0.0,0.0,0.0,0.0,0.0,0.0,0.0,0.0,0.0,0.0,0.0,0.0,0.0,0.0,0.0,0.0,0.0,0.0,0.0,0.0,0.0,0.0,0.0,0.0,0.0,0.0,0.0,0.0,0.0,0.0,0.0,0.0,0.0,0.0,0.0,0.0,0.0,0.0,0.0,0.0,0.0,0.0,0.0,0.0,0.0,0.0,0.0,0.0,0.0,0.0,0.0,0.0,0.0,0.0,0.0,0.0,0.0,0.0,0.0,0.0,0.0,0.0,0.0,0.0,0.0,0.0,0.0,0.0,0.0,0.0,0.0,0.0,0.0,0.0,0.0,0.0,0.0,0.0,0.0,0.0,0.0,0.0,0.0,0.0,0.0,0.0,0.0,0.0,0.0,0.0,0.0,0.0,0.0,0.0,0.0,0.0,0.0,0.0,0.0,0.0,0.0,0.0,0.0,0.0,0.0,0.0,0.0,0.0,0.0,0.0,0.0,0.0,0.0,0.0,0.0,0.0,0.0,0.0,0.0,0.0,0.0,0.0,0.0,0.0,0.0,0.0,0.0,0.0,0.0,0.0,0.0,0.0,0.0,0.0,0.0,0.0,0.0,0.0,0.0,0.0,0.0,0.0,0.0,0.0,0.0,0.0,0.0,0.0,0.0,0.0,0.0,0.0,0.0,0.0,0.0,0.0,0.0,0.0,0.0,0.0,0.0,0.0,0.0,0.0,0.0,0.0,0.0,0.0,0.0,0.0,0.0,0.0,0.0,0.0,0.0,0.0,0.0,0.0,0.0,0.0,0.0,0.0,0.0,0.0,0.0,0.0,0.0,0.0,0.0,0.0,0.0,0.0,0.0,0.0,0.0,0.0,0.0,0.0,0.0,0.0,0.0,0.0,0.0,0.0,0.0,0.0,0.0,0.0,0.0,0.0,0.0,0.0,0.0,0.0,0.0,0.0,0.0,0.0,0.0,0.0,0.0,0.0,0.0,0.0,0.0,0.0,0.0,0.0,0.0,0.0,0.0,0.0,0.0,0.0,0.0,0.0,0.0,0.0,0.0,0.0,0.0,0.0,0.0,0.0,0.0,0.0,0.0,0.0,0.0,0.0,0.0,0.0,0.0,0.0,0.0,0.0,0.0,0.0,0.0,0.0,0.0,0.0,0.0,0.0,0.0,0.0,0.0,0.0,0.0,0.0,0.0,0.0,0.0,0.0,0.0,0.0,0.0,0.0,0.0,0.0,0.0,0.0,0.0,0.0,0.0,0.0,0.0,0.0,0.0,0.0,0.0,0.0,0.0,0.0,0.0,0.0,0.0,0.0,0.0,0.0,0.0,0.0,0.0,0.0,0.0,0.0,0.0,0.0,0.0,0.0,0.0,0.0,0.0,0.0,0.0,0.0,0.0,0.0,0.0,0.0,0.0,0.0,0.0,0.0,0.0,0.0,0.0,0.0,0.0,0.0,0.0,0.0,0.0,0.0,0.0,0.0,0.0,0.0,0.0,0.0,0.0,0.0,0.0,0.0,0.0,0.0,0.0,0.0,0.0,0.0,0.0,0.0,0.0,0.0,0.0,0.0,0.0,0.0,0.0,0.0,0.0,0.0,0.0,0.0,0.0,0.0,0.0,0.0,0.0,0.0,0.0,0.0,0.0,0.0,0.0,0.0,0.0,0.0,0.0,0.0,0.0,0.0,0.0,0.0,0.0,0.0,0.0,0.0,0.0,0.0,0.0,0.0,0.0,0.0,0.0,0.0,0.0,0.0,0.0,0.0,0.0,0.0,0.0,0.0,0.0,0.0,0.0,0.0,0.0,0.0,0.0,0.0,0.0,0.0,0.0,0.0,0.0,0.0,0.0,0.0,0.0,0.0,0.0,0.0,0.0,0.0,0.0,0.0,0.0,0.0,0.0,0.0,0.0,0.0,0.0,0.0,0.0,0.0,0.0,0.0,0.0,0.0,0.0,0.0,0.0,0.0,0.0,0.0,0.0,0.0,0.0,0.0,0.0,0.0,0.0,0.0,0.0,0.0,0.0,0.0,0.0,0.0,0.0,0.0,0.0,0.0,0.0,0.0]}],[{"header":{"parameterUnit":"kt","parameterCategory":2,"dx":1,"dy":1,"la1":29.587661999999998,"la2":31.0,"lo1":-88.76705300000003,"lo2":-86.6583820000003,"nx":115,"ny":88,"refTime":"2022-10-24T12:00:00:Z","depth":0,"parameterNumber":2,"parameterNumberName":"V-component_of_WINDS"},"data":[0.7224,0.7552,0.4919,0.3275,0.2947,0.2971,0.3319,0.4337,0.4408,0.4795,0.5504,0.589,0.6605,0.7303,0.626,0.418,0.1741,-0.1046,-0.3138,-0.4886,-0.5586,-0.4888,-0.4188,-0.4188,-0.3141,-0.2792,-0.2093,-0.1396,-0.279,-0.1743,-0.1743,-0.4528,-0.1395,-0.1744,-0.3834,0.0,0.0,0.0,0.0,0.0,0.0,0.1768,0.3568,0.6115,0.7986,1.2737,1.6448,1.95,2.2834,2.5995,2.9631,3.4195,3.7452,3.9803,4.1948,4.4519,4.5762,4.7533,4.9559,5.1182,5.2322,5.3704,5.7193,6.0072,6.1481,6.3916,6.5998,6.8471,6.881,6.881,6.9458,6.9489,7.163,7.2439,7.4028,7.6025,7.8941,8.3812,8.7814,8.9876,9.1597,9.2212,9.3391,9.2506,9.15,9.0937,9.0454,9.0373,9.0092,9.0092,9.0092,9.0366,9.0993,9.247,9.4284,9.4284,9.6993,10.1152,10.4773,10.6559,10.7757,10.8947,10.9564,11.013,11.0694,11.1586,11.2095,11.2652,11.303,11.3864,11.508,11.5944,11.7112,11.8128,11.8941,0.8386,0.8378,0.764,0.6588,0.4912,0.3932,0.4285,0.4986,0.5006,0.5403,0.582,0.715,0.8198,0.7891,0.6882,0.45,0.2433,0.0695,-0.2091,-0.3837,-0.419,-0.3841,-0.3141,-0.2443,-0.2094,-0.1396,0.0,0.0,0.0,-0.0349,0.0,-0.0349,-0.0349,-0.0349,-0.0349,0.0,0.0,0.0,0.0,0.0,0.0,0.4992,0.8635,1.2668,1.6004,1.8996,2.0946,2.3566,2.7108,3.1215,3.5827,3.9037,4.168,4.3526,4.5784,4.7446,4.8707,5.0787,5.2837,5.4704,5.6522,5.8339,6.1825,6.3916,6.463,6.6369,6.7761,6.918,6.918,6.9366,6.9829,7.0887,7.3646,7.5857,7.7914,7.9941,8.4152,8.8466,9.0691,9.2809,9.3145,9.2624,9.2586,9.1822,9.1057,9.0454,9.0132,9.0092,9.0092,9.0092,9.0092,9.0366,9.1577,9.34,9.4899,9.6993,10.0304,10.3851,10.5934,10.7135,10.8043,10.8947,10.9848,11.0413,11.1306,11.1916,11.2753,11.351,11.4345,11.5131,11.5842,11.6655,11.7773,11.8687,11.9449,1.0816,0.9164,0.9354,0.7916,0.5566,0.4907,0.4919,0.5276,0.5971,0.6356,0.707,0.8063,0.9097,0.8842,0.8846,0.7523,0.483,0.2764,0.0347,-0.1742,-0.2442,-0.2443,-0.2094,-0.1745,-0.1047,0.0,0.0,0.0,0.0,0.0,0.0349,0.0698,0.0698,0.1047,0.1396,0.1397,0.0,0.1056,0.0,0.0,0.0,1.0821,1.3795,1.6448,2.016,2.3096,2.5382,2.8909,3.2408,3.609,4.0173,4.308,4.5895,4.6948,4.8707,5.0347,5.2345,5.4006,5.6224,5.8712,6.1481,6.2886,6.5315,6.671,6.7421,6.7541,6.9273,6.9427,6.9427,7.0575,7.1074,7.3461,7.6284,7.9348,8.1807,8.4437,8.7938,9.1325,9.302,9.4196,9.323,9.2667,9.1862,9.1138,9.0695,9.0092,9.0092,9.0092,9.0092,9.0092,9.0092,9.0366,9.2822,9.4591,9.7166,10.0484,10.3542,10.5158,10.747,10.8236,10.9099,10.9476,11.018,11.1075,11.1966,11.2675,11.3636,11.4497,11.5283,11.6096,11.6807,11.7417,11.8332,11.9297,11.9805,1.4319,1.2692,1.3474,1.0615,0.6896,0.5894,0.5561,0.5566,0.6604,0.7617,0.8279,0.8949,0.9664,1.0091,1.0768,0.9808,0.7174,0.5145,0.3102,0.1038,-0.1395,-0.1745,-0.1047,-0.1047,-0.0698,0.0,0.0,0.0,0.0,0.0,0.0698,0.1745,0.1745,0.175,0.2456,0.4558,0.4228,0.4264,0.6415,1.0791,1.4909,1.6426,1.8641,2.1302,2.4585,2.7847,3.0412,3.3875,3.6918,4.0004,4.3586,4.6816,5.0249,5.0719,5.1484,5.3043,5.575,5.7617,5.9806,6.1853,6.4288,6.6028,6.7421,6.8471,6.9242,6.9335,6.9489,6.9674,7.0295,7.1543,7.3147,7.6383,7.9237,8.2607,8.5296,8.8795,9.1952,9.3633,9.4909,9.4196,9.2948,9.2063,9.1258,9.0655,9.0212,9.0092,9.0092,9.0092,9.0092,9.0092,9.0092,9.2324,9.441,9.7557,10.1053,10.3912,10.6732,10.8768,10.9491,10.9731,11.0208,11.0788,11.1655,11.1967,11.2796,11.4061,11.5077,11.5791,11.6299,11.7265,11.7976,11.8382,11.9195,11.9754,12.0161,1.8379,2.0793,2.1247,1.6847,1.0604,0.7556,0.6548,0.6545,0.8204,0.8846,0.9178,1.016,1.0567,1.0968,1.1975,1.1039,0.9784,0.7823,0.5808,0.3432,0.0693,-0.0697,-0.0349,0.0,0.0,0.0349,0.0698,0.1047,0.0698,0.1047,0.1746,0.2443,0.3144,0.4214,0.5652,0.7421,0.9242,1.0036,1.372,1.7767,2.0506,2.2427,2.4319,2.7583,3.0719,3.3875,3.5815,3.8191,4.1473,4.3959,4.6311,4.799,5.1251,5.3763,5.5402,5.6973,5.9033,6.0845,6.2914,6.463,6.6369,6.7761,6.9149,6.9211,6.9458,6.9674,7.0107,7.0354,7.236,7.394,7.6843,8.0161,8.4218,8.7777,9.0634,9.3147,9.4905,9.5257,9.5725,9.3874,9.2627,9.15,9.0735,9.0494,9.0092,9.0092,9.0092,9.0092,9.0092,9.0366,9.17,9.4354,9.747,10.0933,10.4235,10.691,10.9732,11.1284,11.1625,11.1867,11.1379,11.1962,11.2742,11.3791,11.4482,11.5603,11.6575,11.696,11.7316,11.8281,11.8941,11.9348,11.9754,12.0161,12.0466,1.8997,2.287,2.2993,2.0407,1.5511,0.9972,0.7928,0.827,0.8985,0.9592,1.0155,1.0546,1.1215,1.219,1.2848,1.3229,1.2695,1.1093,0.8816,0.6485,0.3788,0.208,0.0697,0.0349,0.0698,0.1047,0.1396,0.2443,0.1745,0.2444,0.4554,0.6674,0.7032,0.8842,1.1022,1.2838,1.5084,1.8456,2.1814,2.5842,2.7968,2.9698,3.2305,3.5199,3.6611,3.9601,4.2339,4.2763,4.5778,4.8929,4.8898,5.0696,5.3843,5.5375,5.659,5.9752,6.1853,6.3945,6.4973,6.6369,6.7761,6.881,6.9149,6.9705,7.0047,7.1167,7.1323,7.2295,7.4737,7.7237,8.1022,8.4462,8.9285,9.3471,9.5699,9.7606,9.7852,9.7616,9.5846,9.3793,9.2345,9.1178,9.0574,9.0253,9.0092,9.0212,9.0253,9.0293,9.1003,9.23,9.4959,9.7463,10.0867,10.4261,10.6695,10.918,11.0941,11.216,11.2892,11.2941,11.2502,11.3135,11.3914,11.5024,11.5837,11.7049,11.7791,11.8128,11.8332,11.9195,11.9958,12.0008,12.0161,12.0466,12.0466,1.9514,2.3457,2.4999,2.3232,1.9118,1.319,1.0086,0.9736,0.977,1.0396,1.1232,1.1648,1.2619,1.3784,1.4432,1.5467,1.5521,1.4606,1.1764,0.9503,0.7192,0.4144,0.2433,0.2093,0.2443,0.2792,0.3837,0.4881,0.4886,0.7352,0.9846,1.1683,1.2065,1.3919,1.6485,1.9733,2.2024,2.4669,2.7842,3.0702,3.2752,3.4542,3.6767,3.8979,4.0785,4.3156,4.6172,4.7703,4.9976,5.2779,5.3084,5.3891,5.7082,5.716,5.8319,6.1576,6.4202,6.6028,6.6369,6.8101,6.9149,6.9149,7.0722,7.1069,7.213,7.3358,7.4756,7.6297,7.8522,8.2672,8.6513,8.9321,9.2538,9.5541,9.7414,9.8492,9.7493,9.7093,9.5403,9.3512,9.2224,9.1218,9.1017,9.0776,9.0856,9.0615,9.089,9.1684,9.2793,9.5734,9.8512,10.1498,10.4462,10.6959,10.936,11.1121,11.2498,11.3331,11.3722,11.3868,11.4017,11.4557,11.5238,11.6261,11.7242,11.8414,11.9195,11.9297,11.9348,12.0161,12.0415,12.0415,12.0466,12.0466,12.0466,1.9971,2.3899,2.7996,2.5954,2.0555,1.7252,1.4142,1.0964,1.0864,1.1822,1.3481,1.3474,1.4418,1.5953,1.7573,1.8188,1.8133,1.6566,1.4069,1.1508,1.0927,0.724,0.521,0.5576,0.6281,0.5929,0.6982,0.9441,0.907,1.1596,1.4522,1.6402,1.6394,1.8627,2.1199,2.4433,2.7968,2.981,3.2632,3.4737,3.6867,3.8361,4.06,4.2805,4.4952,4.6915,4.9151,5.1832,5.4435,5.608,5.7476,5.8549,5.9173,5.9335,6.1224,6.3908,6.715,6.801,6.8471,6.8471,6.9519,7.1705,7.378,7.4718,7.6265,7.8538,7.9178,8.0477,8.3163,8.7825,9.1606,9.3901,9.6165,9.7651,9.952,9.8904,9.7898,9.6489,9.484,9.3472,9.2184,9.1741,9.154,9.1701,9.1862,9.1981,9.2538,9.3655,9.7022,9.9958,10.2684,10.5452,10.7523,10.9773,11.1304,11.3026,11.421,11.4751,11.5094,11.5391,11.6082,11.6677,11.7166,11.7653,11.879,11.9527,11.9667,12.0059,12.0262,12.0313,12.0415,12.0466,12.0466,12.0466,12.0466,2.0766,2.5021,2.6554,2.4939,2.1237,1.7999,1.529,1.3519,1.4149,1.5028,1.5242,1.5633,1.6263,1.7818,1.8785,1.9081,2.0543,1.9835,1.7888,1.5793,1.5436,1.2404,1.0745,1.1476,1.1171,1.228,1.3706,1.4447,1.4488,1.6356,1.7789,1.8463,1.9506,2.318,2.7524,3.0055,3.282,3.5296,3.6698,3.8779,4.0926,4.2764,4.5076,4.7315,4.9726,5.1755,5.3375,5.5318,5.7658,5.7996,5.8727,5.9767,6.1676,6.2944,6.4217,6.6292,6.8718,6.8749,6.9519,6.9519,7.278,7.5731,7.8458,8.0058,8.1096,8.3237,8.3685,8.5554,8.8676,9.1831,9.4079,9.7182,9.8868,9.906,9.9789,9.8501,9.7415,9.6167,9.4638,9.3472,9.2385,9.2345,9.2305,9.2586,9.3232,9.408,9.4879,9.8041,10.1539,10.3935,10.65,10.8689,11.0911,11.2419,11.3607,11.4844,11.5436,11.6176,11.6426,11.6528,11.7171,11.7766,11.8654,11.9243,11.9486,12.0021,12.0415,12.0466,12.0415,12.0415,12.0466,12.0466,12.0466,12.0466,12.0466,2.0859,2.3746,2.5356,2.4469,2.1124,1.7562,1.5622,1.5327,1.6006,1.6933,1.7452,1.7503,1.8492,1.974,2.0407,2.0815,2.1864,2.1738,2.0486,1.8361,1.958,1.7579,1.596,1.5696,1.6795,1.685,1.8326,1.909,1.9197,2.1309,2.0887,2.1239,2.446,2.8646,3.3547,3.613,3.6946,3.944,4.1565,4.2953,4.5051,4.7486,5.0051,5.2444,5.4549,5.591,5.6507,5.87,5.9999,6.0138,6.2115,6.2781,6.4168,6.5271,6.6211,6.7921,6.9118,6.9149,6.9519,7.2748,7.6032,8.0765,8.3928,8.4731,8.5838,8.7366,8.8276,8.9879,9.3092,9.5189,9.6431,9.9538,10.0002,10.0191,9.9105,9.7857,9.6852,9.5644,9.4598,9.3431,9.2747,9.2667,9.319,9.3633,9.5263,9.624,10.093,10.4393,10.5954,10.8313,10.9946,11.1944,11.2981,11.4635,11.5333,11.5333,11.5828,11.6574,11.6873,11.7469,11.8062,11.8654,11.9243,11.983,12.0173,12.0466,12.0466,12.0466,12.0466,12.0466,12.0466,12.0466,12.0466,12.0466,12.0466,1.9979,2.051,2.474,2.4541,2.1265,1.6042,1.5189,1.7393,1.7062,1.8094,1.9479,1.9488,2.0429,2.14,2.1868,2.2245,2.2493,2.2728,2.2097,2.0853,2.2504,2.0724,1.9488,1.9655,2.0809,1.8894,2.0741,2.2923,2.2435,2.4765,2.7207,2.7919,2.9009,3.2487,3.8081,3.9072,4.011,4.1122,4.4643,4.6001,4.8406,5.1894,5.3644,5.5493,5.7314,5.8885,5.9302,6.1468,6.226,6.2715,6.5011,6.6475,6.7129,6.7998,6.8766,6.9318,6.9882,6.9795,7.0196,7.7068,8.2167,8.6773,8.8794,8.9556,9.0958,9.3205,9.5141,9.3756,9.6556,9.8861,9.9921,10.0594,10.007,9.9427,9.7978,9.6771,9.6087,9.5081,9.4357,9.3391,9.3029,9.3069,9.3914,9.5136,9.6695,10.1091,10.6681,10.9584,11.068,11.1974,11.3393,11.4527,11.4527,11.5528,11.5528,11.5625,11.5975,11.6574,11.7171,11.8062,11.8949,11.9537,11.9881,12.0466,12.0466,12.0466,12.0466,12.0466,12.0466,12.0466,12.0466,12.0466,12.0466,12.0466,12.0466,2.1184,2.2581,2.2492,2.3356,2.3564,2.0088,1.9618,2.0823,1.9479,1.9919,2.146,2.147,2.2201,2.2305,2.2741,2.3094,2.3789,2.3962,2.3984,2.4638,2.5265,2.5229,2.5336,2.514,2.5304,2.6167,2.6865,2.6803,2.6754,2.784,3.0142,3.2789,3.484,3.6587,4.0172,4.2155,4.6067,4.9114,5.163,5.2478,5.4159,5.6457,5.7704,5.7987,5.9943,6.1127,6.2058,6.3491,6.4643,6.6478,6.7992,7.0286,7.0871,7.1786,7.3529,7.4259,7.4925,7.4394,7.6887,8.1774,8.6979,9.1394,9.3534,9.4483,9.5773,9.7373,9.8117,9.7646,9.8901,10.0392,10.0513,10.0151,9.9588,9.9024,9.7536,9.6288,9.5564,9.492,9.4156,9.3512,9.3633,9.3959,9.4524,9.518,9.8078,10.3478,10.8156,11.0559,11.2449,11.437,11.5674,11.5625,11.5975,11.5674,11.5674,11.6275,11.6873,11.7469,11.8062,11.8949,11.9537,11.9881,12.0466,12.0466,12.0466,12.0466,12.0466,12.0466,12.0466,12.0466,12.0466,12.0466,12.0466,12.0466,12.0466,2.2121,2.3448,2.2604,2.4132,2.6727,2.398,2.3899,2.5497,2.4257,2.4118,2.4719,2.4119,2.3888,2.3665,2.3752,2.4624,2.504,2.5112,2.6119,2.6779,2.7321,2.7531,2.7959,2.8128,2.8744,2.8823,3.0276,3.1017,3.1273,3.3034,3.4606,3.7782,4.0549,4.2213,4.4656,4.793,5.1362,5.4672,5.6147,5.6925,5.8586,5.9444,6.0055,6.0331,6.2096,6.3843,6.5583,6.6849,6.8768,7.0792,7.2794,7.4368,7.5018,7.5462,7.6855,7.8514,7.76,7.7513,8.0136,8.6208,9.1137,9.5403,9.653,9.7536,9.7997,9.8944,9.9386,9.991,10.0352,10.0553,10.0553,9.991,9.9065,9.8461,9.7495,9.6208,9.5363,9.484,9.4156,9.3793,9.3874,9.4529,9.5181,9.5832,10.0639,10.5557,10.8732,11.153,11.3764,11.5674,11.5926,11.5926,11.6275,11.6275,11.6873,11.7171,11.7469,11.8358,11.8949,11.9537,12.0173,12.0466,12.0466,12.0466,12.0466,12.0466,12.0466,12.0466,12.0466,12.0466,12.0466,12.0466,12.0466,12.0466,12.0466,2.309,2.4069,2.5345,2.7157,2.9136,2.8062,2.87,3.0459,3.0368,2.9638,2.8901,2.7423,2.684,2.662,2.7508,2.7968,2.7671,2.7968,2.9153,2.9266,2.8712,2.9988,3.0479,3.1015,3.0506,3.096,3.3508,3.4705,3.5068,3.8376,4.2626,4.5762,4.6624,4.8652,5.0692,5.2745,5.612,5.7288,5.8858,5.9192,6.0247,6.1457,6.254,6.3372,6.4954,6.7362,7.145,7.1802,7.3093,7.6048,7.7819,7.871,7.9033,7.9498,8.0832,8.1773,8.1194,8.1774,8.441,9.0341,9.4829,9.5966,9.7053,9.8501,9.9306,9.9467,9.9829,10.0473,10.0553,10.0634,10.0272,9.9749,9.8702,9.7857,9.6771,9.5765,9.5322,9.4799,9.4477,9.4075,9.4693,9.5663,9.6546,9.9376,10.3812,10.8564,11.1784,11.3107,11.5023,11.5674,11.5926,11.6525,11.6574,11.7171,11.7766,11.8062,11.8358,11.8949,11.9537,11.9881,12.0466,12.0466,12.0466,12.0466,12.0466,12.0466,12.0466,12.0466,12.0466,12.0466,12.0466,12.0466,12.0466,12.0466,12.0466,2.5988,2.9547,3.2106,3.3126,3.2392,3.2142,3.3172,3.5074,3.3493,3.3374,3.4051,3.4037,3.414,3.4484,3.4437,3.45,3.5766,3.5361,3.5864,3.6163,3.6377,3.6309,3.5848,3.6549,3.6867,3.826,3.8888,3.9705,4.1769,4.5881,5.0712,5.174,5.2995,5.3891,5.5049,5.69,5.8673,5.9692,6.0635,6.227,6.3638,6.4703,6.6384,6.8383,7.0151,7.2373,7.538,7.6049,7.6437,7.8955,8.1024,8.267,8.3081,8.3739,8.4721,8.6581,8.5667,8.6461,9.0536,9.3376,9.5671,9.7173,9.8461,9.9346,10.0151,10.0392,10.0553,10.0634,10.0634,10.0272,9.9708,9.8904,9.8059,9.7093,9.6087,9.5685,9.5322,9.5121,9.484,9.4977,9.5456,9.6727,9.9459,10.2741,10.6658,11.1483,11.3501,11.4576,11.5324,11.5674,11.6226,11.6823,11.7171,11.7469,11.8062,11.8654,11.8949,11.9243,11.983,12.0466,12.0466,12.0466,12.0466,12.0466,12.0466,12.0466,12.0466,12.0466,12.0466,12.0466,12.0466,12.0466,12.0466,12.0466,12.0466,3.057,3.4901,3.5879,3.6258,3.6471,3.7657,3.832,3.8709,3.822,3.8602,3.9094,3.9019,3.8713,3.8409,3.8748,3.9209,3.9709,3.9119,3.9128,3.9404,3.9112,3.9076,4.0192,4.0247,4.078,4.1111,4.3382,4.5035,5.0483,5.4782,5.7738,5.8381,5.8495,5.8502,5.7924,6.0041,6.0947,6.1771,6.3014,6.5352,6.7644,6.8865,7.08,7.4278,7.4632,7.7003,7.9592,8.0619,8.1084,8.3662,8.5122,8.6698,8.701,8.7205,8.8193,9.11,9.0363,9.2096,9.5791,9.6852,9.7616,9.8622,9.9386,10.007,10.0473,10.0634,10.0634,10.0674,10.0352,9.991,9.9346,9.8179,9.7375,9.6691,9.5966,9.5604,9.5363,9.5282,9.542,9.591,9.6433,9.899,10.1438,10.4953,10.9371,11.245,11.3421,11.4893,11.5681,11.5828,11.6226,11.7122,11.7469,11.8062,11.8654,11.9243,11.9537,11.983,12.0466,12.0466,12.0466,12.0466,12.0466,12.0466,12.0466,12.0466,12.0466,12.0466,12.0466,12.0466,12.0466,12.0466,12.0466,12.0466,12.0466,3.5933,3.9521,3.755,3.8117,4.0536,4.2212,4.2416,4.1895,4.3262,4.3922,4.3626,4.2665,4.2222,4.2255,4.2293,4.2149,4.2543,4.2473,4.2357,4.2528,4.1733,4.1733,4.1932,4.1655,4.3687,4.5798,4.8872,5.5342,6.0592,6.0549,6.2148,6.4107,6.299,6.2003,6.2183,6.5034,6.4832,6.5627,6.7156,6.9638,7.1998,7.3165,7.5575,7.846,7.9419,8.0803,8.4602,8.5045,8.5794,8.9106,8.9817,8.9817,9.0253,9.0253,9.0776,9.2264,9.4403,9.6624,9.7777,9.8845,9.9451,9.9507,10.0111,10.0553,10.0674,10.0674,10.0594,10.0594,9.991,9.9306,9.8582,9.7576,9.6892,9.6288,9.5765,9.5483,9.5282,9.5162,9.5916,9.6421,9.9467,10.1483,10.3912,10.7846,11.1233,11.2306,11.3331,11.495,11.5686,11.6078,11.6226,11.7469,11.8062,11.8949,11.9587,12.0173,12.0173,12.0466,12.0466,12.0466,12.0466,12.0466,12.0466,12.0466,12.0466,12.0466,12.0466,12.0466,12.0466,12.0466,12.0466,12.0466,12.0466,12.0466,12.0466,3.8916,4.0298,4.0949,4.217,4.289,4.3345,4.459,4.5578,4.642,4.7668,4.8839,4.9109,4.9189,4.9703,4.9837,4.9859,4.9882,4.8652,4.8406,4.8614,4.8051,4.8411,4.9502,5.0164,5.0872,5.2859,5.5222,5.9605,6.6798,6.7068,6.7272,6.8339,6.9358,6.8746,6.8991,7.1555,7.2046,7.3131,7.4778,7.6049,7.6401,7.7499,8.0458,8.4398,8.4116,8.5073,8.8474,8.8592,8.9661,9.0298,9.0655,9.0454,9.1017,9.1178,9.2546,9.5262,9.7349,9.8649,9.9269,10.0079,10.0404,10.042,10.0513,10.0634,10.0634,10.0473,10.0392,9.9789,9.9266,9.8783,9.7696,9.6932,9.6409,9.5886,9.5564,9.5655,9.5453,9.6285,9.6722,9.9133,10.2288,10.4744,10.7031,11.0403,11.1281,11.2306,11.3577,11.4852,11.5837,11.5984,11.7171,11.8062,11.8949,11.9881,12.0173,12.0466,12.0466,12.0466,12.0466,12.0466,12.0466,12.0466,12.0466,12.0466,12.0466,12.0466,12.0466,12.0466,12.0466,12.0466,12.0466,12.0466,12.0466,12.0466,12.0466,4.1964,4.3337,4.5621,4.6565,4.7255,4.9275,5.0572,5.1006,5.21,5.3213,5.4511,5.4839,5.5166,5.5519,5.5796,5.6124,5.637,5.6064,5.6329,5.6069,5.6136,5.68,5.7907,5.8555,5.9913,6.1527,6.2368,6.6243,7.2421,7.1825,7.1856,7.3101,7.4215,7.4161,7.4818,7.7345,7.7961,7.8169,7.9119,7.9971,8.0081,8.1772,8.5188,8.7997,8.8354,8.8711,9.089,9.1328,9.1611,9.1976,9.2334,9.2937,9.3468,9.4202,9.5794,9.7763,9.9619,10.0679,10.1443,10.173,10.1648,10.1505,10.1383,10.1076,10.0768,10.0768,10.0218,9.9266,9.8863,9.7656,9.6811,9.6328,9.5886,9.5776,9.6981,9.7722,9.7635,9.8433,10.0195,10.2072,10.4352,10.6615,10.9536,11.0696,11.1428,11.2258,11.3528,11.4656,11.5883,11.6921,11.8062,11.8654,11.9243,11.9881,12.0173,12.0466,12.0466,12.0466,12.0466,12.0466,12.0466,12.0466,12.0466,12.0466,12.0466,12.0466,12.0466,12.0466,12.0466,12.0466,12.0466,12.0466,12.0466,12.0466,12.0466,4.5362,4.7729,5.0344,5.1568,5.2292,5.5728,5.665,5.6389,5.7104,5.8477,5.894,5.8804,5.8415,5.8848,5.9647,6.0055,6.0479,6.089,6.1532,6.1753,6.1971,6.3014,6.3533,6.4217,6.726,6.9633,7.1324,7.3687,7.6842,7.6134,7.7401,7.9168,7.9993,7.9927,8.0433,8.1638,8.379,8.3246,8.47,8.4815,8.5562,8.7131,8.9981,9.2375,9.1449,9.153,9.2652,9.3215,9.3296,9.346,9.4673,9.5838,9.7003,9.8739,9.9599,10.0535,10.1881,10.2678,10.2354,10.2809,10.2602,10.2313,10.1845,10.1501,10.1361,10.0934,10.0893,9.9634,9.8621,9.7028,9.6489,9.5886,9.5443,9.636,9.7846,9.9797,9.9956,10.2028,10.5148,10.5896,10.6555,10.8132,11.0023,11.1672,11.2014,11.2502,11.3969,11.5097,11.6275,11.746,11.8554,11.9243,11.9881,12.0173,12.0466,12.0466,12.0466,12.0466,12.0466,12.0466,12.0466,12.0466,12.0466,12.0466,12.0466,12.0466,12.0466,12.0466,12.0466,12.0466,12.0466,12.0466,12.0466,12.0466,12.0466,5.0718,5.3453,5.5464,5.6168,5.6655,5.777,5.8399,5.8151,5.8151,5.9114,5.911,5.8426,5.9498,5.922,5.9967,6.0667,6.1532,6.2735,6.4682,6.5342,6.5157,6.6086,6.7212,6.8557,7.1863,8.0469,7.9856,8.112,8.3567,8.4793,8.338,8.5288,8.5813,8.5647,8.7148,8.9504,8.9465,8.8632,9.0648,9.1823,9.0517,9.2654,9.4233,9.553,9.4083,9.4166,9.5063,9.5353,9.5365,9.5827,9.5654,9.7554,10.0701,10.381,10.4974,10.3263,10.5045,10.4582,10.3058,10.2339,10.259,10.2147,10.2064,10.2395,10.234,10.1927,10.1556,10.0638,9.918,9.7417,9.6018,9.5776,9.5736,9.6319,9.8544,9.9712,10.0613,10.5572,10.8894,10.9685,10.9878,11.0313,11.1722,11.299,11.2599,11.2697,11.441,11.5638,11.6767,11.7803,11.8992,12.0173,12.0173,12.0466,12.0466,12.0466,12.0466,12.0466,12.0466,12.0466,12.0466,12.0466,12.0466,12.0466,12.0466,12.0466,12.0466,12.0466,12.0466,12.0466,12.0466,12.0466,12.0466,12.0466,12.0466,5.4707,5.6248,5.8886,6.0005,6.0061,6.1682,6.2657,6.2861,6.2628,6.2628,6.2686,6.2574,6.2899,6.4175,6.4265,6.549,6.6802,6.7595,6.8792,7.009,7.1197,7.1914,7.3329,7.5445,7.789,8.2538,8.4155,8.4469,8.5683,8.623,8.7134,8.6819,8.8513,8.9861,9.1138,9.2669,9.319,9.3437,9.4715,9.4917,9.3835,9.6024,9.7327,9.5826,9.6835,9.7819,9.8647,9.869,9.8041,9.802,10.0324,10.3721,10.5925,10.7027,10.7442,10.6719,10.7941,10.6669,10.5092,10.4668,10.4263,10.2301,10.2468,10.2339,10.1792,10.1625,10.0996,10.0452,9.9537,9.8297,9.6813,9.6319,9.7311,9.8503,10.1005,10.2775,10.4385,10.8968,11.2582,11.1123,11.2104,11.2938,11.3576,11.4459,11.4557,11.4752,11.6081,11.6967,11.8096,11.8539,11.992,12.0466,12.0466,12.0466,12.0466,12.0466,12.0466,12.0466,12.0466,12.0466,12.0466,12.0466,12.0466,12.0466,12.0466,12.0466,12.0466,12.0466,12.0466,12.0466,12.0466,12.0466,12.0466,12.0466,12.0466,5.8552,5.9228,6.1689,6.2869,6.3254,6.5058,6.637,6.7067,6.6602,6.7031,6.7612,6.7807,6.8639,7.0549,7.098,7.2171,7.3787,7.4553,7.5549,7.7215,7.9383,7.992,8.0375,8.1837,8.4399,8.5597,8.607,8.6727,8.7115,8.8654,8.8549,8.9055,9.1469,9.3025,9.4331,9.5784,9.6696,9.7661,9.7104,9.7247,9.8211,9.9417,9.9248,9.8165,10.0181,10.1724,10.2741,10.3143,10.1856,10.1768,10.5833,10.9521,10.8906,10.9503,10.9347,10.9173,10.9671,10.912,10.7811,10.7213,10.6693,10.4046,10.4036,10.3171,10.1624,10.1376,10.0792,10.0001,9.9502,9.9005,9.8424,9.797,9.9683,10.2203,10.4482,10.6552,10.9001,11.2111,11.3404,11.2721,11.4007,11.5292,11.4847,11.6281,11.6725,11.7066,11.7803,11.869,11.9083,11.9426,11.9971,12.0466,12.0466,12.0466,12.0466,12.0466,12.0466,12.0466,12.0466,12.0466,12.0466,12.0466,12.0466,12.0466,12.0466,12.0466,12.0466,12.0466,12.0466,12.0466,12.0466,12.0466,12.0466,12.0466,12.0466,6.2161,6.4434,6.4526,6.4877,6.532,6.5845,6.7739,6.8415,6.8897,7.0396,7.2762,7.3151,7.3909,7.6573,7.6911,7.8945,8.009,8.0696,8.2452,8.3001,8.351,8.413,8.4014,8.4504,8.5722,8.7722,8.7455,8.9096,9.1384,9.2756,9.3681,9.5001,9.5776,9.6919,9.8802,9.9187,10.0671,10.2477,10.1857,10.2145,10.3274,10.3634,10.3109,10.2931,10.4353,10.6314,10.7849,10.8778,10.8685,10.6408,11.343,11.376,11.0061,11.2035,11.2201,11.1037,11.0702,11.0345,10.9063,10.8981,10.811,10.6669,10.6426,10.5527,10.3289,10.2244,10.1532,10.116,10.0241,9.9904,9.9937,10.1476,10.361,10.5688,10.8805,11.1554,11.3377,11.3592,11.3978,11.5671,11.602,11.6623,11.712,11.7617,11.8013,11.8103,11.8547,11.9335,11.9628,11.9971,12.0364,12.0466,12.0466,12.0466,12.0466,12.0466,12.0466,12.0466,12.0466,12.0466,12.0466,12.0466,12.0466,12.0466,12.0466,12.0466,12.0466,12.0466,12.0466,12.0466,12.0466,12.0466,12.0466,12.0466,12.0466,6.5329,6.7865,6.8284,7.0033,7.1928,7.2549,7.3283,7.4088,7.3741,7.474,7.5905,7.5888,7.7001,7.8669,8.0098,8.136,8.2815,8.3898,8.4829,8.5721,8.5715,8.6425,8.7756,8.8069,8.8326,8.9933,9.0601,9.1957,9.397,9.6862,9.8254,9.9479,10.1804,10.3665,10.4659,10.461,10.5356,10.6506,10.5618,10.4953,10.6226,10.6698,10.6461,10.591,10.9491,11.1381,11.1746,11.2467,11.3317,11.441,11.59,11.619,11.3097,11.3561,11.3662,11.3497,11.3315,11.278,11.2245,11.2358,11.1506,10.947,10.7398,10.6293,10.4913,10.2462,10.1268,10.1922,10.2468,10.2854,10.3409,10.5553,10.7881,10.9859,11.3275,11.558,11.6023,11.6073,11.6426,11.649,11.7393,11.8053,11.7653,11.8303,11.8848,11.9243,11.983,11.983,11.9881,12.0173,12.0466,12.0466,12.0466,12.0466,12.0466,12.0466,12.0466,12.0466,12.0466,12.0466,12.0466,12.0466,12.0466,12.0466,12.0466,12.0466,12.0466,12.0466,12.0466,12.0466,12.0466,12.0466,12.0466,12.0466,12.0466,6.9539,7.1562,7.2386,7.4505,7.6991,7.7301,7.7573,7.8423,7.8136,7.8557,7.9804,7.9956,8.12,8.2321,8.368,8.4679,8.5847,8.6409,8.713,8.8878,8.8834,9.0698,9.262,9.3071,9.3623,9.4366,9.5798,9.6507,9.7375,10.0722,10.2964,10.3508,10.6408,10.8315,10.8782,10.8012,10.8825,10.9521,10.8008,10.7744,10.8719,10.9907,10.9573,10.8767,11.2697,11.5034,11.5144,11.5391,11.671,11.8805,11.7976,11.6553,11.4978,11.4041,11.4142,11.5004,11.5409,11.557,11.5437,11.5788,11.4838,11.2143,11.0545,10.8488,10.6907,10.4733,10.3497,10.3774,10.5325,10.6862,10.7446,10.994,11.1812,11.351,11.6225,11.8197,11.7925,11.8281,11.8399,11.7707,11.8629,11.8982,11.8881,11.9133,11.983,12.0173,12.0466,12.0466,12.0466,12.0466,12.0466,12.0466,12.0466,12.0466,12.0466,12.0466,12.0466,12.0466,12.0466,12.0466,12.0466,12.0466,12.0466,12.0466,12.0466,12.0466,12.0466,12.0466,12.0466,12.0466,12.0466,12.0466,12.0466,12.0466,12.0466,7.6465,7.5852,7.6733,7.749,7.8099,7.8328,7.9275,7.9842,8.0368,8.2424,8.5076,8.6451,8.7419,8.9014,9.0487,9.1121,9.0698,9.074,9.2725,9.5621,9.6955,9.8165,9.8638,9.8638,9.9468,10.1092,10.16,10.2955,10.3708,10.4966,10.6913,10.8081,10.8872,10.918,10.955,10.9227,11.0562,11.2013,11.1089,11.1941,11.4262,11.3813,11.3434,11.4392,11.5206,11.6271,11.7858,11.8024,11.9058,11.9958,11.8822,11.6886,11.4572,11.3813,11.437,11.5639,11.6452,11.7284,11.8197,11.8276,11.741,11.5381,11.437,11.3668,11.0606,10.932,10.8743,10.9009,10.994,11.025,11.0867,11.3316,11.513,11.5583,11.7653,11.8704,11.8738,11.8789,11.9246,11.9907,12.0262,12.0415,12.0313,12.0313,12.0466,12.0466,12.0466,12.0466,12.0466,12.0466,12.0466,12.0466,12.0466,12.0466,12.0466,12.0466,12.0466,12.0466,12.0466,12.0466,12.0466,12.0466,12.0466,12.0466,12.0466,12.0466,12.0466,12.0466,12.0466,12.0466,12.0466,12.0466,12.0466,12.0466,12.0466,7.926,8.0867,8.1133,8.2646,8.5086,8.6467,8.7677,8.8878,9.0517,9.1131,9.1305,9.3081,9.3606,9.3125,9.5574,9.679,9.6564,9.7106,9.9229,10.2008,10.1725,10.191,10.3254,10.191,10.1867,10.2705,10.2892,10.364,10.4949,10.6176,10.7662,10.9347,11.1864,11.3076,11.3125,11.4308,11.5292,11.5961,11.5149,11.5218,11.5916,11.5334,11.4978,11.5436,11.6096,11.7214,11.8687,11.95,12.0059,12.011,11.9433,11.762,11.6096,11.5713,11.6271,11.7366,11.7976,11.8637,11.9653,11.9805,11.9426,11.8454,11.6725,11.4877,11.362,11.1483,11.0559,11.0867,11.2402,11.362,11.4225,11.6725,11.8604,11.8604,11.9426,11.9907,11.9856,11.9856,12.011,12.0262,12.0466,12.0466,12.0466,12.0466,12.0466,12.0466,12.0466,12.0466,12.0466,12.0466,12.0466,12.0466,12.0466,12.0466,12.0466,12.0466,12.0466,12.0466,12.0466,12.0466,12.0466,12.0466,12.0466,12.0466,12.0466,12.0466,12.0466,12.0466,12.0466,12.0466,12.0466,12.0466,12.0466,12.0466,12.0466,8.5523,8.743,8.8541,9.0992,9.3333,9.4467,9.5153,9.5997,9.7578,9.7209,9.5958,9.8134,9.7949,9.6922,9.9104,10.0648,10.0695,10.3319,10.5604,10.6687,10.4875,10.4809,10.5753,10.4584,10.4059,10.4684,10.5116,10.5837,10.6938,10.8537,10.9953,11.1372,11.4262,11.574,11.5308,11.6858,11.7519,11.7214,11.6452,11.6249,11.6452,11.574,11.5791,11.6401,11.7163,11.7722,11.8281,11.9348,11.9907,11.9907,11.9195,11.8281,11.7366,11.7417,11.7976,11.8738,11.9094,11.9703,12.0364,12.0466,12.0415,12.0123,11.8554,11.7023,11.6725,11.5178,11.3971,11.4274,11.5528,11.7023,11.732,11.9193,12.0173,12.0466,12.0466,12.0415,12.0364,12.0415,12.0466,12.0466,12.0466,12.0466,12.0466,12.0466,12.0466,12.0466,12.0466,12.0466,12.0466,12.0466,12.0466,12.0466,12.0466,12.0466,12.0466,12.0466,12.0466,12.0466,12.0466,12.0466,12.0466,12.0466,12.0466,12.0466,12.0466,12.0466,12.0466,12.0466,12.0466,12.0466,12.0466,12.0466,12.0466,12.0466,12.0466,9.6093,9.5931,9.9882,10.0736,10.0597,9.9947,9.9807,9.9667,9.947,9.9604,9.9429,10.0788,10.1678,10.0788,10.2809,10.2902,10.3843,10.847,11.071,10.9971,10.8959,10.8049,10.724,10.7835,10.8023,10.839,10.9465,11.0476,11.1215,11.2145,11.3055,11.4801,11.5612,11.5791,11.5283,11.5436,11.5131,11.4521,11.4419,11.4572,11.5283,11.5436,11.6299,11.8078,11.8433,11.8078,11.7214,11.823,11.884,11.8891,11.884,11.8281,11.762,11.823,11.884,11.9094,11.9856,12.0364,12.0466,12.0466,12.0466,12.0466,12.0466,11.983,11.983,11.9537,11.9537,11.9243,11.983,12.0173,12.0173,12.0466,12.0466,12.0466,12.0466,12.0466,12.0466,12.0466,12.0466,12.0466,12.0466,12.0466,12.0466,12.0466,12.0466,12.0466,12.0466,12.0466,12.0466,12.0466,12.0466,12.0466,12.0466,12.0466,12.0466,12.0466,12.0466,12.0466,12.0466,12.0466,12.0466,12.0466,12.0466,12.0466,12.0466,12.0466,12.0466,12.0466,12.0466,12.0466,12.0466,12.0466,12.0466,12.0466,12.0466,9.8306,10.0608,10.2092,10.2711,10.2523,10.3502,10.3903,10.4228,10.6589,10.6511,10.5604,10.8261,10.8425,10.7206,10.9097,11.0431,11.1157,11.2425,11.259,11.1574,11.1168,11.0406,10.9593,10.9694,10.9847,10.9898,11.0253,11.0558,11.0914,11.0507,11.0965,11.2082,11.3149,11.3505,11.3505,11.4673,11.5283,11.4978,11.4826,11.4978,11.5283,11.5385,11.5791,11.6503,11.7265,11.7417,11.7112,11.7417,11.7976,11.8687,11.8789,11.8992,11.9348,11.9703,11.9907,11.9958,12.0262,12.0466,12.0466,12.0466,12.0466,12.0466,12.0466,12.0466,12.0466,12.0466,12.0466,12.0466,12.0466,12.0466,12.0466,12.0466,12.0466,12.0466,12.0466,12.0466,12.0466,12.0466,12.0466,12.0466,12.0466,12.0466,12.0466,12.0466,12.0466,12.0466,12.0466,12.0466,12.0466,12.0466,12.0466,12.0466,12.0466,12.0466,12.0466,12.0466,12.0466,12.0466,12.0466,12.0466,12.0466,12.0466,12.0466,12.0466,12.0466,12.0466,12.0466,12.0466,12.0466,12.0466,12.0466,12.0466,12.0466,12.0466,12.0466,10.1657,10.5178,10.6317,10.6884,10.707,10.772,10.8349,10.902,11.1386,11.1416,11.1044,11.3534,11.3763,11.2316,11.6502,11.871,11.9454,11.8187,11.6824,11.5621,11.5149,11.4099,11.2529,11.2424,11.1908,11.0764,11.0862,11.101,11.052,11.1112,11.1266,11.1386,11.2133,11.2692,11.2895,11.4115,11.4775,11.4826,11.4775,11.5029,11.5334,11.5385,11.5182,11.4877,11.5486,11.5842,11.5842,11.6249,11.696,11.8128,11.8586,11.9297,12.0313,12.0466,12.0466,12.0466,12.0466,12.0466,12.0466,12.0466,12.0466,12.0466,12.0466,12.0466,12.0466,12.0466,12.0466,12.0466,12.0466,12.0466,12.0466,12.0466,12.0466,12.0466,12.0466,12.0466,12.0466,12.0466,12.0466,12.0466,12.0466,12.0466,12.0466,12.0466,12.0466,12.0466,12.0466,12.0466,12.0466,12.0466,12.0466,12.0466,12.0466,12.0466,12.0466,12.0466,12.0466,12.0466,12.0466,12.0466,12.0466,12.0466,12.0466,12.0466,12.0466,12.0466,12.0466,12.0466,12.0466,12.0466,12.0466,12.0466,12.0466,12.0466,12.0466,10.5559,10.932,11.2274,11.3432,11.3759,11.2794,11.2946,11.4309,11.339,11.3985,11.5882,11.6915,11.7155,11.7707,12.3111,12.635,12.6391,12.4714,12.29,12.1092,12.0291,11.8466,11.5775,11.572,11.4192,11.2061,11.2815,11.248,11.1471,11.4466,11.5146,11.2946,11.3645,11.3932,11.3932,11.4258,11.4034,11.3861,11.4136,11.4544,11.5131,11.5562,11.5279,11.4737,11.4085,11.3911,11.4238,11.5104,11.5944,11.7011,11.8179,11.9297,12.0313,12.0466,12.0466,12.0466,12.0466,12.0466,12.0466,12.0466,12.0466,12.0466,12.0466,12.0466,12.0466,12.0466,12.0466,12.0466,12.0466,12.0466,12.0466,12.0466,12.0466,12.0466,12.0466,12.0466,12.0466,12.0466,12.0466,12.0466,12.0466,12.0466,12.0466,12.0466,12.0466,12.0466,12.0466,12.0466,12.0466,12.0466,12.0466,12.0466,12.0466,12.0466,12.0466,12.0466,12.0466,12.0466,12.0466,12.0466,12.0466,12.0466,12.0466,12.0466,12.0466,12.0466,12.0466,12.0466,12.0757,12.0757,12.0757,12.1048,12.1287,12.0757,12.0757,10.9406,11.2274,11.3156,11.4493,11.5812,11.5766,11.7742,12.0533,11.9726,12.1024,12.4009,12.428,12.4444,12.518,12.5987,12.6482,12.5747,12.4694,12.281,12.0839,12.0339,11.8951,11.6658,11.7212,11.6987,11.6232,11.7023,11.7286,11.6711,11.8297,11.9378,11.9149,11.7463,11.6549,11.6549,11.6549,11.5791,11.4258,11.5791,11.5947,11.4667,11.6257,11.7937,11.9213,11.5843,11.4755,11.6601,11.5832,11.5893,11.7011,11.8179,11.9348,12.0364,12.0466,12.0466,12.0466,12.0466,12.0466,12.0466,12.0466,12.0466,12.0466,12.0466,12.0466,12.0466,12.0466,12.0466,12.0466,12.0466,12.0466,12.0466,12.0466,12.0466,12.0466,12.0466,12.0466,12.0466,12.0466,12.0466,12.0466,12.0466,12.0466,12.0466,12.0466,12.0466,12.0466,12.0466,12.0466,12.0466,12.0466,12.0466,12.0466,12.0466,12.0466,12.0466,12.0466,12.0466,12.0466,12.0466,12.0466,12.0466,12.0466,12.0466,12.0757,12.0466,12.0466,12.0757,12.1048,12.1339,12.1339,12.1629,12.2155,12.1866,12.2155,12.2155,11.3712,11.6361,11.5727,11.6488,11.8257,11.8674,12.1026,12.4226,12.3697,12.4971,12.7909,12.9241,13.0085,13.0634,12.9642,12.9298,12.8939,12.8007,12.652,12.5042,12.4927,12.3896,12.1887,12.2459,12.1862,12.049,12.1668,12.2042,12.153,12.1283,12.1512,12.171,12.0469,11.9685,11.9422,11.9422,11.8631,11.7086,11.8631,11.8896,11.7621,11.8684,12.0469,12.1507,11.8896,11.7888,11.9266,11.7968,11.7516,11.865,11.8751,11.9297,12.0364,12.0466,12.0466,12.0466,12.0466,12.0466,12.0466,12.0466,12.0466,12.0466,12.0466,12.0466,12.0466,12.0466,12.0466,12.0466,12.0466,12.0466,12.0466,12.0466,12.0466,12.0466,12.0466,12.0466,12.0466,12.0466,12.0466,12.0466,12.0466,12.0466,12.0466,12.0466,12.0466,12.0466,12.0466,12.0466,12.0466,12.0466,12.0466,12.0466,12.0466,12.0466,12.0466,12.0466,12.0466,12.0466,12.0466,12.0466,12.0466,12.0466,12.0757,12.1048,12.1048,12.1048,12.1048,12.139,12.168,12.168,12.2207,12.2443,12.2679,12.2679,12.2446,11.7801,12.0173,11.8737,11.9401,12.1306,12.1526,12.3609,12.6348,12.6037,12.7217,12.9643,13.2772,13.4099,13.4089,13.346,13.3401,13.3681,13.3163,13.2448,13.183,13.2055,13.1053,12.901,12.9129,12.7774,12.5466,12.6205,12.6542,12.5936,12.4641,12.3443,12.3046,12.2535,12.2535,12.2535,12.2535,12.2279,12.2022,12.2535,12.2791,12.2791,12.2535,12.2535,12.2791,12.2279,12.2333,12.2552,12.0759,12.0367,12.12,11.999,11.9399,12.0313,12.0364,12.0313,12.0313,12.0161,12.0161,12.011,12.0262,12.0313,12.0466,12.0466,12.0466,12.0466,12.0655,12.0844,12.1167,12.1269,12.1321,12.0844,12.0946,12.0997,12.0757,12.0466,12.0466,12.0466,12.0466,12.0466,12.0466,12.0466,12.0466,12.0466,12.0466,12.0466,12.0466,12.0466,12.0466,12.0466,12.0466,12.0466,12.0466,12.0466,12.0466,12.0466,12.0466,12.0466,12.0466,12.0466,12.0466,12.0466,12.0757,12.0757,12.139,12.168,12.1629,12.1629,12.1969,12.1918,12.2207,12.2207,12.2207,12.273,12.281,12.2546,12.0075,11.9564,12.0418,12.1834,12.3167,12.4937,12.8093,13.167,13.0199,13.1773,13.5364,13.6496,13.6363,13.5466,13.5175,13.4867,13.397,13.391,13.2965,13.2115,13.2055,13.1113,13.0038,13.0934,13.0782,12.9762,13.0883,13.1067,13.0657,12.9706,12.9344,12.8863,12.6611,12.537,12.537,12.537,12.406,12.2535,12.6116,12.8436,12.8436,12.6364,12.642,12.7893,12.4312,12.3486,12.6211,12.3004,12.1475,12.2305,12.1073,12.0212,12.0415,11.9653,11.9195,11.9094,11.8332,11.7824,11.7874,11.8637,11.9551,12.0364,12.0466,12.0466,12.0655,12.1565,12.2884,12.4239,12.4882,12.459,12.2797,12.3195,12.2913,12.0757,12.0466,12.0757,12.0466,12.0466,12.0466,12.0466,12.0466,12.0466,12.0466,12.0466,12.0466,12.0466,12.0466,12.0466,12.0466,12.0466,12.0466,12.0466,12.0466,12.0757,12.0466,12.0466,12.0466,12.0466,12.0466,12.0466,12.0757,12.1048,12.139,12.168,12.2207,12.2443,12.2443,12.273,12.3304,12.3199,12.3485,12.4054,12.4233,12.3655,12.2831,12.25,12.3484,12.4348,12.6101,12.8939,13.0257,13.2655,13.5305,13.2476,13.2829,13.5286,13.6423,13.6184,13.5047,13.5585,13.5166,13.391,13.391,13.3551,13.2893,13.2893,13.2534,13.1935,13.2594,13.2606,13.2438,13.3094,13.3222,13.2529,13.2297,13.183,13.1655,12.9641,12.8436,12.8136,12.7893,12.7405,12.5868,12.9829,13.2038,13.2038,13.0462,13.0462,13.198,12.7974,12.6951,12.8923,12.4674,12.3491,12.5967,12.3374,12.1565,12.1513,12.0945,11.9861,11.8027,11.7417,11.7061,11.7061,11.7671,11.8484,11.9602,11.9703,12.0603,12.2482,12.4218,12.4997,12.5525,12.6665,12.6567,12.5262,12.6007,12.6147,12.4515,12.3199,12.234,12.234,12.1577,12.0466,12.0466,12.0466,12.0466,12.0466,12.0466,12.0466,12.0466,12.0466,12.0466,12.0466,12.1577,12.2103,12.1048,12.1526,12.1815,12.0757,12.0466,12.0757,12.1048,12.0757,12.0757,12.1577,12.1339,12.1918,12.2495,12.3017,12.3304,12.3304,12.3589,12.3613,12.3352,12.3321,12.3621,12.3479,12.3004,12.2108,12.4757,12.8308,12.7825,13.0124,13.4175,13.4353,13.5301,13.6483,13.397,13.2893,13.2953,13.4987,13.5166,13.397,13.4867,13.4628,13.3371,13.3371,13.3371,13.3371,13.3371,13.3371,13.3371,13.3551,13.3611,13.3671,13.385,13.3681,13.3163,13.2992,13.2761,13.2356,13.1655,13.0948,13.0473,13.0235,13.0235,13.0293,13.2446,13.3551,13.3609,13.3551,13.3725,13.4016,13.1573,13.0468,13.1224,12.6856,12.6319,13.0261,12.6296,12.3718,12.3559,12.3241,12.1397,11.7804,11.7268,11.7268,11.7371,11.7576,11.8089,11.9064,11.9474,12.1209,12.498,12.6704,12.6978,12.6571,12.7936,12.8388,12.7691,12.8678,12.9011,12.836,12.6167,12.4604,12.3937,12.2005,12.0436,12.011,12.0212,12.0212,12.1236,12.1287,12.1287,12.1287,12.1577,12.0997,12.0997,12.2913,12.3433,12.1526,12.2627,12.3199,12.1815,12.0997,12.0997,12.1918,12.1287,12.0757,12.1815,12.1712,12.1794,12.3043,12.3016,12.3247,12.3247,12.3404,12.3163,12.2378,12.2168,12.1906,12.1726,12.1316,12.0736,12.6622,12.5912,12.7481,12.8579,12.9321,13.0456,13.1217,13.1696,0.0,0.0,0.0,13.6124,13.5107,13.385,13.3072,13.1995,13.0799,13.0739,13.0739,13.0739,13.0739,13.0739,13.0799,13.1816,13.2354,13.2414,13.3431,13.391,13.3681,13.3163,13.2932,13.2761,13.183,13.1184,13.0948,13.0473,13.0235,13.0235,13.0642,13.0933,13.0933,13.0933,13.1922,13.4074,13.1573,13.2213,13.6226,13.1481,13.0453,13.4186,13.0371,12.7544,12.6567,12.4667,12.2134,11.9455,11.8433,11.8379,11.9606,12.0262,12.0854,12.1069,12.3165,12.4708,12.5652,12.6856,12.8486,13.0922,13.305,13.3155,12.9723,13.0419,12.971,12.6282,12.5695,12.4351,12.2277,12.145,12.0858,11.9466,11.9382,12.0213,12.3224,12.3897,12.4002,12.3949,12.3613,12.3199,12.1577,12.3147,12.3897,12.1815,12.2,12.2288,12.3147,12.2,12.1577,12.3328,12.2,12.0757,12.0895,12.0808,12.11,12.1616,12.1627,12.1817,12.1937,12.2095,12.1779,12.1621,12.1568,12.1516,12.1422,12.0051,11.8785,12.8843,0.0,13.0499,13.1457,0.0,13.3431,13.3088,13.1834,13.3224,13.4269,13.4927,13.5585,13.5166,13.385,13.4319,13.3736,13.2683,13.1956,13.2238,13.3091,13.2084,13.2016,13.2744,13.335,13.3052,13.2055,13.2653,13.3252,13.385,13.3622,13.375,13.4406,13.3302,13.3185,13.4011,13.1591,13.0235,13.0235,13.2155,13.3144,13.3144,13.3783,13.4714,13.5877,13.3551,0.0,0.0,0.0,0.0,0.0,0.0,0.0,0.0,0.0,0.0,12.1203,12.0293,12.0547,12.1093,12.164,12.1967,12.2022,12.28,12.4549,12.685,12.8366,12.9369,13.0293,13.134,13.1322,12.9168,13.0199,12.9662,12.6515,12.6392,12.5429,12.3165,12.3115,12.2893,12.2108,12.2213,12.2147,12.3004,12.3057,12.3268,12.3796,12.3901,12.355,12.2991,12.3478,12.5004,12.6873,12.5442,12.4181,12.4181,12.1668,12.0118,12.1868,12.1436,12.1073,12.0841,12.1252,12.1326,12.1365,12.145,12.158,12.158,12.158,12.1369,12.0842,12.0631,12.0525,11.984,11.8468,11.7413,13.02,13.1038,13.2534,13.3671,13.4508,13.6625,13.6199,13.381,13.2084,13.2004,13.3394,13.5449,13.5812,13.5008,13.6464,13.6312,13.5264,13.4365,13.4517,13.5897,13.4517,13.418,13.4525,13.4654,13.3761,13.1946,13.174,13.2175,13.3192,13.3192,13.385,13.5107,13.3947,13.4424,13.5786,0.0,0.0,0.0,13.4191,13.5645,13.5703,13.6634,13.7332,13.7739,13.5412,0.0,13.5121,13.232,13.1782,13.4177,13.1116,0.0,0.0,0.0,0.0,0.0,0.0,0.0,0.0,0.0,0.0,0.0,12.2196,12.38,12.7207,12.8781,12.9188,12.8432,12.8956,12.9246,12.8723,12.9828,12.9691,12.7462,12.7765,12.7081,12.4735,12.5044,12.4917,12.4125,12.4335,12.3859,12.204,12.204,12.263,12.3596,12.3313,12.3464,12.4101,12.3251,12.4511,12.8287,12.5916,12.4459,12.348,12.02,11.8267,12.0216,12.0773,12.0348,12.0513,12.1104,12.1052,12.0596,12.0779,12.0842,12.0842,12.0736,12.0156,11.9576,11.9048,11.8521,11.7677,11.6728,11.6358,12.7807,12.7149,12.9542,13.0021,12.9403,13.4304,13.6355,13.587,13.5667,13.6213,13.7669,13.8045,13.8107,13.7857,13.7139,13.6651,13.6526,13.6337,13.5646,13.4776,13.5708,13.488,13.2674,13.3422,13.2661,13.126,13.0601,13.044,13.0559,13.0559,13.1217,13.2474,13.1794,13.199,13.277,13.1065,13.2105,13.6106,13.4902,13.4365,13.4365,13.454,13.5645,13.7564,13.5412,13.5645,13.8786,13.557,13.4351,13.5645,13.4293,13.2307,13.0105,12.9815,12.8476,0.0,12.587,0.0,0.0,0.0,0.0,0.0,0.0,0.0,0.0,12.6164,12.7269,12.8199,13.1399,13.2446,13.0177,13.1166,13.1399,12.9873,12.9873,12.8909,12.6342,12.5957,12.425,11.9321,12.0847,12.2146,12.1942,12.4052,12.5317,12.5147,12.4071,12.3039,12.2703,12.2225,12.086,11.6347,11.6295,11.8674,11.9907,11.8062,11.7104,12.0216,11.9365,11.7781,11.8547,11.8258,11.8242,11.8257,11.8344,11.8574,11.8574,11.773,11.7413,11.8046,11.6833,11.562,11.5462,11.5303,11.4934,13.1231,13.1791,13.175,13.172,13.1752,13.4838,13.7075,13.7865,13.6876,13.7391,13.8953,13.776,13.7357,13.7294,13.7161,13.7108,13.7108,13.7108,13.7365,13.7982,13.7429,13.6716,13.5783,13.5213,13.3724,13.1738,13.1303,13.1158,13.1217,13.1876,13.2248,13.2617,13.2642,13.2474,13.2123,13.0481,13.0828,13.3221,13.3154,13.3725,13.5121,13.5819,13.6692,13.7739,13.611,13.5994,13.7564,13.5412,13.4074,13.3842,13.262,13.1457,13.0293,12.8141,12.7094,0.0,0.0,0.0,0.0,0.0,0.0,0.0,0.0,0.0,0.0,0.0,12.5524,12.6105,12.8374,12.9072,12.7152,12.7501,12.6802,12.4125,12.4347,12.4738,12.4159,12.4649,12.4855,12.3809,12.4552,12.4517,12.242,12.3049,12.4066,12.4742,12.2394,12.0615,12.1889,12.0528,11.9509,11.9053,11.9159,11.8946,11.8044,11.5343,11.3948,11.6091,11.5958,11.5439,11.5636,11.5854,11.6341,11.5982,11.6041,11.62,11.62,11.5778,11.5567,11.5989,11.5356,11.5251,11.6306,11.6095,11.6095,13.4226,13.5143,13.2686,13.2548,13.3859,13.494,13.6343,13.8112,13.6854,13.7174,13.8815,13.7748,13.7229,13.6848,13.7356,13.7845,13.8104,13.8354,13.9153,14.0545,13.9479,13.8642,13.8374,13.7065,13.5076,13.2525,13.1844,13.1576,13.1576,13.1949,13.2319,13.2806,13.3417,13.3126,13.1655,13.0188,12.9835,13.0642,13.1631,13.326,13.5528,13.6459,13.6924,13.6924,13.5761,13.5238,13.5528,13.4074,13.2736,13.1689,13.0177,12.9188,12.8839,12.5756,0.0,0.0,0.0,0.0,0.0,0.0,0.0,0.0,0.0,12.058,12.0289,0.0,12.3662,0.0,12.5175,12.5407,12.4128,12.373,0.0,0.0,11.9662,12.0505,12.2166,12.3182,12.4828,12.6615,12.6852,12.5623,12.2406,12.1757,12.1854,12.2154,11.9318,11.7624,11.9383,11.7449,11.7006,11.873,11.9093,11.8474,11.5246,11.2742,11.1856,11.2534,11.3311,11.3778,11.3682,11.4309,11.4886,11.4361,11.467,11.4829,11.4885,11.4829,11.4565,11.3985,11.3826,11.4407,11.6042,11.5936,11.5936,13.3634,13.2452,12.8882,12.9246,13.2065,13.2262,13.3283,13.4726,13.5972,13.6563,13.6933,13.9271,13.973,13.8354,13.8465,0.0,14.0545,14.0545,14.048,14.0789,14.1859,14.1023,13.8504,13.7172,13.5646,13.3977,13.1443,13.026,13.02,12.8622,12.9278,13.1949,13.2286,13.1713,13.0473,13.0357,13.0701,13.198,13.2097,13.2853,13.4249,13.4365,13.4423,13.4423,13.3144,13.3027,13.4132,13.1864,13.0468,13.0293,12.8025,12.6164,12.4942,0.0,0.0,0.0,0.0,0.0,0.0,0.0,0.0,0.0,0.0,0.0,0.0,0.0,0.0,0.0,12.3837,0.0,12.2848,12.189,0.0,0.0,0.0,11.8521,12.2166,12.2449,12.2745,12.2985,0.0,0.0,12.0812,12.0643,11.969,11.7379,11.5984,11.4301,11.21,11.2259,11.1652,10.9937,11.0448,11.0905,11.0141,11.0546,11.1316,11.2156,11.2638,11.274,11.3212,11.3682,11.3734,11.3578,11.4151,11.4674,11.52,11.4624,11.4037,11.2033,11.1611,11.1611,11.2191,11.293,11.3352,13.0053,12.8147,12.6621,12.6924,12.8097,12.8097,12.9478,13.1648,13.224,13.2503,13.2569,13.3753,13.2963,13.0728,13.0728,0.0,0.0,0.0,13.7764,13.9474,14.0065,13.9878,13.9177,13.7684,13.5739,13.3691,13.2421,13.0578,12.8384,12.9457,12.9115,12.7362,0.0,0.0,12.8317,12.8142,12.8897,13.0875,13.1748,13.2387,13.2911,13.3725,13.3725,13.2969,13.1631,13.1224,13.1748,13.0759,12.9537,12.7967,12.6978,12.5466,0.0,0.0,0.0,0.0,0.0,0.0,0.0,0.0,0.0,0.0,0.0,11.1098,11.2843,0.0,0.0,0.0,11.9067,11.9591,11.9125,11.9346,0.0,0.0,0.0,0.0,0.0,0.0,0.0,11.8576,11.9873,11.9718,11.8265,11.6614,11.5898,11.6406,11.3998,11.1885,11.1674,0.0,10.8769,10.6892,10.7661,10.8068,10.7143,10.8112,10.8727,10.8016,10.8446,10.9368,11.025,11.1387,11.2477,11.3316,11.3838,11.4046,11.3784,11.2839,11.1795,11.2114,11.2166,11.2681,11.3246,11.3615,11.409,12.5095,0.0,0.0,0.0,0.0,12.3757,12.5138,12.744,12.7834,12.7834,12.744,12.8193,0.0,0.0,0.0,0.0,0.0,0.0,13.3753,13.612,13.7435,13.8308,13.8613,13.7409,13.5315,13.2637,13.2442,13.0318,12.6633,12.9003,12.7668,12.2834,0.0,0.0,0.0,0.0,12.7501,12.9537,13.0584,13.1166,13.1573,13.1806,13.1457,13.0526,12.9595,12.913,12.913,12.8781,12.7676,12.5931,12.4826,0.0,0.0,0.0,0.0,0.0,0.0,0.0,0.0,0.0,0.0,0.0,0.0,0.0,0.0,0.0,0.0,0.0,0.0,0.0,11.4588,11.5114,11.4452,0.0,0.0,0.0,0.0,0.0,0.0,0.0,0.0,0.0,11.3074,11.194,11.1769,0.0,0.0,10.9898,11.0609,10.9464,10.7861,10.7082,10.7904,0.0,10.6811,10.7394,10.7506,10.5868,10.6803,10.7726,10.8187,10.9166,11.0043,11.1282,11.1591,11.1435,11.1368,11.0171,10.9762,11.0609,11.1022,11.1683,11.2613,11.2983,11.3246,0.0,0.0,0.0,0.0,0.0,0.0,0.0,0.0,12.3034,12.2902,0.0,12.4529,0.0,0.0,0.0,0.0,0.0,12.6585,0.0,0.0,13.441,13.6514,13.6474,13.5635,13.3922,13.1537,13.0683,12.8164,12.4594,12.5239,0.0,0.0,0.0,0.0,0.0,0.0,12.7036,12.8316,12.849,12.9072,13.0177,12.7967,12.6687,12.6687,12.6629,12.6571,12.6513,12.5349,12.4593,12.4419,12.0987,0.0,0.0,0.0,0.0,0.0,0.0,0.0,0.0,0.0,0.0,0.0,0.0,0.0,0.0,0.0,0.0,0.0,0.0,0.0,0.0,10.841,0.0,0.0,0.0,0.0,0.0,0.0,0.0,0.0,0.0,0.0,10.4706,10.6291,10.7814,10.7417,0.0,0.0,0.0,0.0,11.0076,10.9971,11.0581,11.0662,10.9501,10.9793,10.9605,10.8455,0.0,0.0,10.8414,10.7175,10.6355,10.694,10.7253,10.6954,10.7549,10.6967,10.6589,10.6693,10.6504,10.6464,10.7708,10.8533,10.9201,0.0,0.0,0.0,0.0,0.0,0.0,0.0,0.0,0.0,11.8825,0.0,11.9453,0.0,0.0,0.0,0.0,0.0,0.0,0.0,0.0,12.8229,12.9873,13.0793,13.2078,13.1655,0.0,12.9867,12.5877,0.0,0.0,0.0,0.0,0.0,0.0,0.0,0.0,12.4826,12.6106,12.75,12.8956,13.0061,12.8548,12.7676,12.7676,12.6862,12.5989,12.5117,12.4651,12.3255,0.0,0.0,0.0,0.0,0.0,0.0,0.0,0.0,0.0,0.0,0.0,0.0,0.0,0.0,0.0,0.0,0.0,0.0,0.0,0.0,0.0,0.0,0.0,10.3791,0.0,0.0,0.0,0.0,0.0,0.0,0.0,0.0,0.0,9.9912,10.2186,10.4641,10.6446,10.5885,10.6242,10.8445,0.0,0.0,0.0,0.0,0.0,0.0,0.0,10.659,10.4222,10.4366,10.4502,10.3896,10.4597,10.6034,10.7208,0.0,0.0,10.2597,10.0651,9.9765,10.0769,10.0931,10.1282,10.1565,10.3084,10.4354,0.0,0.0,0.0,0.0,0.0,0.0,0.0,0.0,0.0,11.4946,11.5406,0.0,0.0,0.0,0.0,0.0,0.0,0.0,0.0,0.0,0.0,0.0,12.6322,12.7807,0.0,0.0,0.0,0.0,0.0,0.0,0.0,0.0,0.0,0.0,0.0,0.0,12.2441,12.4423,12.6397,12.8316,12.9537,12.8316,12.7676,12.7676,12.6396,12.5291,12.4419,0.0,0.0,0.0,0.0,0.0,0.0,0.0,0.0,0.0,0.0,0.0,0.0,0.0,0.0,0.0,0.0,0.0,0.0,0.0,0.0,0.0,0.0,0.0,0.0,0.0,9.9428,0.0,0.0,0.0,0.0,0.0,0.0,0.0,0.0,0.0,0.0,0.0,10.0729,10.3581,10.4246,10.5264,10.7816,10.7913,10.8049,0.0,0.0,0.0,0.0,0.0,0.0,0.0,0.0,0.0,0.0,0.0,0.0,0.0,0.0,10.1324,9.6899,9.4835,9.4002,9.498,0.0,0.0,0.0,0.0,0.0,0.0,0.0,0.0,0.0,0.0,0.0,0.0,0.0,0.0,0.0,0.0,0.0,0.0,11.2184,0.0,0.0,0.0,0.0,0.0,0.0,0.0,0.0,0.0,0.0,0.0,0.0,0.0,0.0,0.0,0.0,0.0,0.0,0.0,0.0,0.0,0.0,11.9998,12.2557,12.5058,12.6978,12.8199,12.7036,12.6396,12.6396,12.5117,12.4419,12.4302,0.0,0.0,0.0,0.0,0.0,0.0,0.0,0.0,0.0,0.0,0.0,0.0,0.0,0.0,0.0,0.0,0.0,0.0,0.0,0.0,0.0,0.0,0.0,0.0,0.0,0.0,9.4855,9.4057,9.2831,0.0,0.0,0.0,0.0,0.0,0.0,0.0,0.0,0.0,0.0,10.2687,10.5538,10.5693,10.7123,10.8914,11.0464,10.9976,10.929,10.9185,10.9583,10.8623,0.0,0.0,0.0,0.0,0.0,0.0,0.0,0.0,0.0,0.0,0.0,0.0,0.0,0.0,0.0,0.0,0.0,0.0,0.0,0.0,0.0,0.0,0.0,0.0,0.0,0.0,0.0,0.0,0.0,0.0,0.0,0.0,0.0,0.0,0.0,0.0,0.0,0.0,0.0,0.0,0.0,0.0,0.0,0.0,0.0,0.0,0.0,0.0,0.0,0.0,0.0,0.0,0.0,0.0,11.6892,11.8999,12.2803,12.5815,12.7735,12.5873,12.5466,12.6338,12.5117,12.4011,0.0,0.0,0.0,0.0,0.0,0.0,0.0,0.0,0.0,0.0,0.0,0.0,0.0,0.0,0.0,0.0,0.0,0.0,0.0,0.0,0.0,0.0,0.0,0.0,0.0,0.0,0.0,0.0,9.1295,8.9321,8.72,0.0,0.0,0.0,0.0,0.0,0.0,0.0,0.0,0.0,0.0,10.1967,10.3509,10.5058,10.6103,10.6172,10.6208,10.598,10.4712,10.4574,10.3656,10.0825,0.0,0.0,0.0,0.0,0.0,0.0,0.0,0.0,0.0,0.0,0.0,0.0,0.0,0.0,0.0,0.0,0.0,0.0,0.0,0.0,0.0,0.0,0.0,0.0,0.0,0.0,0.0,0.0,0.0,0.0,0.0,0.0,0.0,0.0,0.0,0.0,0.0,0.0,0.0,0.0,0.0,0.0,0.0,0.0,0.0,0.0,0.0,0.0,0.0,0.0,0.0,0.0,0.0,11.4204,11.5708,12.0533,12.3779,12.5578,12.4768,12.5058,12.6396,12.5117,12.3372,0.0,0.0,0.0,0.0,0.0,0.0,0.0,0.0,0.0,0.0,0.0,0.0,0.0,0.0,0.0,0.0,0.0,0.0,0.0,0.0,0.0,0.0,0.0,0.0,0.0,0.0,0.0,0.0,8.7159,8.5704,8.48,0.0,0.0,0.0,0.0,0.0,0.0,0.0,0.0,0.0,0.0,9.8573,10.0373,10.212,0.0,0.0,10.4295,10.4222,10.396,10.4034,10.3408,10.0464,9.9168,0.0,0.0,0.0,0.0,0.0,0.0,0.0,0.0,0.0,0.0,0.0,0.0,0.0,0.0,0.0,0.0,0.0,0.0,0.0,0.0,0.0,0.0,0.0,0.0,0.0,0.0,0.0,0.0,0.0,0.0,0.0,0.0,0.0,0.0,0.0,0.0,0.0,0.0,0.0,0.0,0.0,0.0,0.0,0.0,0.0,0.0,0.0,0.0,0.0,0.0,0.0,0.0,0.0,11.3076,11.802,12.1161,12.2325,12.3488,12.4593,12.5815,12.4593,12.215,0.0,0.0,0.0,0.0,0.0,0.0,0.0,0.0,0.0,0.0,0.0,0.0,0.0,0.0,0.0,0.0,0.0,0.0,0.0,0.0,0.0,0.0,0.0,0.0,0.0,0.0,0.0,0.0,0.0,0.0,0.0,0.0,0.0,0.0,0.0,0.0,0.0,0.0,0.0,0.0,0.0,9.4922,9.6559,9.8239,10.0301,0.0,0.0,10.3151,10.457,10.578,10.533,10.1399,0.0,0.0,0.0,0.0,0.0,0.0,0.0,0.0,0.0,0.0,0.0,0.0,0.0,0.0,0.0,0.0,0.0,0.0,0.0,0.0,0.0,0.0,0.0,0.0,0.0,0.0,0.0,0.0,0.0,0.0,0.0,0.0,0.0,0.0,0.0,0.0,0.0,0.0,0.0,0.0,0.0,0.0,0.0,0.0,0.0,0.0,0.0,0.0,0.0,0.0,0.0,0.0,0.0,0.0,11.3018,11.7148,11.9416,11.9765,12.0056,12.0347,12.0638,11.9416,0.0,0.0,0.0,0.0,0.0,0.0,0.0,0.0,0.0,0.0,0.0,0.0,0.0,0.0,0.0,0.0,0.0,0.0,0.0,0.0,0.0,0.0,0.0,0.0,0.0,0.0,0.0,7.8897,0.0,0.0,0.0,0.0,0.0,0.0,0.0,0.0,0.0,0.0,0.0,0.0,0.0,0.0,9.2116,9.3637,9.4352,9.4936,0.0,0.0,9.6003,9.4429,9.6165,9.6663,0.0,0.0,0.0,0.0,0.0,0.0,0.0,0.0,0.0,0.0,0.0,0.0,0.0,0.0,0.0,0.0,0.0,0.0,0.0,0.0,0.0,0.0,0.0,0.0,0.0,0.0,0.0,0.0,0.0,0.0,0.0,0.0,0.0,0.0,0.0,0.0,0.0,0.0,0.0,0.0,0.0,0.0,0.0,0.0,0.0,0.0,0.0,0.0,0.0,0.0,0.0,0.0,0.0,0.0,10.7667,10.9761,11.3483,11.5984,11.709,11.7671,11.8195,11.8776,11.7497,11.5345,0.0,0.0,0.0,0.0,0.0,0.0,0.0,0.0,0.0,0.0,0.0,0.0,0.0,0.0,0.0,0.0,0.0,0.0,0.0,0.0,0.0,0.0,0.0,0.0,0.0,0.0,0.0,0.0,0.0,0.0,0.0,0.0,0.0,0.0,0.0,0.0,0.0,0.0,0.0,0.0,0.0,0.0,9.1031,9.0986,0.0,0.0,0.0,9.2972,9.1245,0.0,0.0,0.0,0.0,0.0,0.0,0.0,0.0,0.0,0.0,0.0,0.0,0.0,0.0,0.0,0.0,0.0,0.0,0.0,0.0,0.0,0.0,0.0,0.0,0.0,0.0,0.0,0.0,0.0,0.0,0.0,0.0,0.0,0.0,0.0,0.0,0.0,0.0,0.0,0.0,0.0,0.0,0.0,0.0,0.0,0.0,0.0,0.0,0.0,0.0,0.0,0.0,0.0,0.0,0.0,0.0,0.0,10.5456,10.8946,11.1971,11.4356,11.5519,11.6682,11.7846,11.6624,11.4181,0.0,0.0,0.0,0.0,0.0,0.0,0.0,0.0,0.0,0.0,0.0,0.0,0.0,0.0,0.0,0.0,0.0,0.0,0.0,0.0,0.0,0.0,0.0,0.0,0.0,0.0,0.0,0.0,0.0,0.0,0.0,0.0,0.0,0.0,0.0,0.0,0.0,0.0,0.0,0.0,0.0,8.5956,8.8602,8.8035,8.7775,0.0,0.0,9.1458,9.1251,9.2827,0.0,0.0,0.0,0.0,0.0,0.0,0.0,0.0,0.0,0.0,0.0,0.0,0.0,0.0,0.0,0.0,0.0,0.0,0.0,0.0,0.0,0.0,0.0,0.0,0.0,0.0,0.0,0.0,0.0,0.0,0.0,0.0,0.0,0.0,0.0,0.0,0.0,0.0,0.0,0.0,0.0,0.0,0.0,0.0,0.0,0.0,0.0,0.0,0.0,0.0,0.0,0.0,0.0,0.0,0.0,0.0,10.5398,10.8132,11.0284,11.168,11.2029,11.2262,11.2494,11.1389,10.9412,0.0,0.0,0.0,0.0,0.0,0.0,0.0,0.0,0.0,0.0,0.0,0.0,0.0,0.0,0.0,0.0,0.0,0.0,0.0,0.0,0.0,0.0,0.0,0.0,0.0,0.0,0.0,0.0,0.0,0.0,0.0,0.0,0.0,0.0,0.0,0.0,0.0,0.0,0.0,0.0,0.0,8.388,8.6436,8.5354,0.0,0.0,0.0,0.0,8.5991,8.6625,0.0,0.0,0.0,0.0,0.0,0.0,0.0,0.0,0.0,0.0,0.0,0.0,0.0,0.0,0.0,0.0,0.0,0.0,0.0,0.0,0.0,0.0,0.0,0.0,0.0,0.0,0.0,0.0,0.0,0.0,0.0,0.0,0.0,0.0,0.0,0.0,0.0,0.0,0.0,0.0,0.0,0.0,0.0,0.0,0.0,0.0,0.0,0.0,0.0,0.0,0.0,0.0,0.0,0.0,0.0,0.0,10.4351,10.5689,10.7318,10.9121,10.9179,10.9179,10.9179,10.8016,10.6445,0.0,0.0,0.0,0.0,0.0,0.0,0.0,0.0,0.0,0.0,0.0,0.0,0.0,0.0,0.0,0.0,0.0,0.0,0.0,0.0,0.0,0.0,0.0,0.0,0.0,0.0,0.0,0.0,0.0,0.0,0.0,0.0,0.0,0.0,0.0,0.0,0.0,0.0,0.0,0.0,8.1515,8.2039,8.3763,0.0,0.0,0.0,0.0,0.0,0.0,8.3776,8.4192,0.0,0.0,0.0,0.0,0.0,0.0,0.0,0.0,0.0,0.0,0.0,0.0,0.0,0.0,0.0,0.0,0.0,0.0,0.0,0.0,0.0,0.0,0.0,0.0,0.0,0.0,0.0,0.0,0.0,0.0,0.0,0.0,0.0,0.0,0.0,0.0,0.0,0.0,0.0,0.0,0.0,0.0,0.0,0.0,0.0,0.0,0.0,0.0,0.0,0.0,0.0,0.0,0.0,0.0,0.0,10.2664,10.3331,10.4674,10.6852,10.6969,10.7085,10.7259,10.5863,10.4235,10.2677,0.0,0.0,0.0,0.0,0.0,0.0,0.0,0.0,0.0,0.0,0.0,0.0,0.0,0.0,0.0,0.0,0.0,0.0,0.0,0.0,0.0,0.0,0.0,0.0,0.0,0.0,0.0,0.0,0.0,0.0,0.0,0.0,0.0,0.0,0.0,0.0,0.0,0.0,0.0,7.994,7.994,0.0,0.0,0.0,0.0,0.0,0.0,0.0,0.0,8.2998,0.0,0.0,0.0,0.0,0.0,0.0,0.0,0.0,0.0,0.0,0.0,0.0,0.0,0.0,0.0,0.0,0.0,0.0,0.0,0.0,0.0,0.0,0.0,0.0,0.0,0.0,0.0,0.0,0.0,0.0,0.0,0.0,0.0,0.0,0.0,0.0,0.0,0.0,0.0,0.0,0.0,0.0,0.0,0.0,0.0,0.0,0.0,0.0,0.0,0.0,0.0,0.0,0.0,0.0,0.0,0.0,10.2618,10.4447,10.5514,10.5689,10.6154,10.7201,10.4933,10.2269,9.919,0.0,0.0,0.0,0.0,0.0,0.0,0.0,0.0,0.0,0.0,0.0,0.0,0.0,0.0,0.0,0.0,0.0,0.0,0.0,0.0,0.0,0.0,0.0,0.0,0.0,0.0,0.0,0.0,0.0,0.0,0.0,0.0,0.0,0.0,0.0,0.0,0.0,0.0,7.6572,7.7147,0.0,0.0,0.0,0.0,0.0,0.0,0.0,0.0,8.1302,0.0,0.0,0.0,0.0,0.0,0.0,0.0,0.0,0.0,0.0,0.0,0.0,0.0,0.0,0.0,0.0,0.0,0.0,0.0,0.0,0.0,0.0,0.0,0.0,0.0,0.0,0.0,0.0,0.0,0.0,0.0,0.0,0.0,0.0,0.0,0.0,0.0,0.0,0.0,0.0,0.0,0.0,0.0,0.0,0.0,0.0,0.0,0.0,0.0,0.0,0.0,0.0,0.0,0.0,0.0,0.0,0.0,0.0,10.142,10.3188,10.2852,10.2981,10.3448,10.1512,9.9356,0.0,0.0,0.0,0.0,0.0,0.0,0.0,0.0,0.0,0.0,0.0,0.0,0.0,0.0,0.0,0.0,0.0,0.0,0.0,0.0,0.0,0.0,0.0,0.0,0.0,0.0,0.0,0.0,0.0,0.0,0.0,0.0,0.0,0.0,0.0,0.0,0.0,0.0,0.0,0.0,0.0,0.0,0.0,0.0,0.0,0.0,0.0,0.0,0.0,0.0,0.0,0.0,0.0,0.0,0.0,0.0,0.0,0.0,0.0,0.0,0.0,0.0,0.0,0.0,0.0,0.0,0.0,0.0,0.0,0.0,0.0,0.0,0.0,0.0,0.0,0.0,0.0,0.0,0.0,0.0,0.0,0.0,0.0,0.0,0.0,0.0,0.0,0.0,0.0,0.0,0.0,0.0,0.0,0.0,0.0,0.0,0.0,0.0,0.0,0.0,0.0,0.0,0.0,0.0,0.0,0.0,0.0,0.0,9.9545,10.157,10.0821,10.0658,10.0839,9.8901,9.7493,0.0,0.0,0.0,0.0,0.0,0.0,0.0,0.0,0.0,0.0,0.0,0.0,0.0,0.0,0.0,0.0,0.0,0.0,0.0,0.0,0.0,0.0,0.0,0.0,0.0,0.0,0.0,0.0,0.0,0.0,0.0,0.0,0.0,0.0,0.0,0.0,0.0,0.0,0.0,0.0,0.0,0.0,0.0,0.0,0.0,0.0,0.0,0.0,7.832,0.0,0.0,0.0,0.0,0.0,0.0,0.0,0.0,0.0,0.0,0.0,0.0,0.0,0.0,0.0,0.0,0.0,0.0,0.0,0.0,0.0,0.0,0.0,0.0,0.0,0.0,0.0,0.0,0.0,0.0,0.0,0.0,0.0,0.0,0.0,0.0,0.0,0.0,0.0,0.0,0.0,0.0,0.0,0.0,0.0,0.0,0.0,0.0,0.0,0.0,0.0,0.0,0.0,0.0,0.0,0.0,0.0,0.0,0.0,10.2117,10.2182,10.1512,10.1764,10.2436,10.0119,9.8222,0.0,0.0,0.0,0.0,0.0,0.0,0.0,0.0,0.0,0.0,0.0,0.0,0.0,0.0,0.0,0.0,0.0,0.0,0.0,0.0,0.0,0.0,0.0,0.0,0.0,0.0,0.0,0.0,0.0,0.0,0.0,0.0,0.0,0.0,0.0,0.0,0.0,0.0,0.0,0.0,0.0,0.0,0.0,0.0,0.0,0.0,0.0,0.0,0.0,0.0,0.0,0.0,0.0,0.0,0.0,0.0,0.0,0.0,0.0,0.0,0.0,0.0,0.0,0.0,0.0,0.0,0.0,0.0,0.0,0.0,0.0,0.0,0.0,0.0,0.0,0.0,0.0,0.0,0.0,0.0,0.0,0.0,0.0,0.0,0.0,0.0,0.0,0.0,0.0,0.0,0.0,0.0,0.0,0.0,0.0,0.0,0.0,0.0,0.0,0.0,0.0,0.0,0.0,0.0,0.0,0.0,0.0,0.0,9.9243,9.9782,10.0821,10.1481,10.1689,9.8839,9.6901,0.0,0.0,0.0,0.0,0.0,0.0,0.0,0.0,0.0,0.0,0.0,0.0,0.0,0.0,0.0,0.0,0.0,0.0,0.0,0.0,0.0,0.0,0.0,0.0,0.0,0.0,0.0,0.0,0.0,0.0,0.0,0.0,0.0,0.0,0.0,0.0,0.0,0.0,0.0,0.0,0.0,0.0,0.0,0.0,0.0,0.0,0.0,0.0,0.0,0.0,0.0,0.0,0.0,0.0,0.0,0.0,0.0,0.0,0.0,0.0,0.0,0.0,0.0,0.0,0.0,0.0,0.0,0.0,0.0,0.0,0.0,0.0,0.0,0.0,0.0,0.0,0.0,0.0,0.0,0.0,0.0,0.0,0.0,0.0,0.0,0.0,0.0,0.0,0.0,0.0,0.0,0.0,0.0,0.0,0.0,0.0,0.0,0.0,0.0,0.0,0.0,0.0,0.0,0.0,0.0,0.0,0.0,0.0,0.0,9.9124,9.9831,10.0071,10.0046,9.7015,9.534,0.0,0.0,0.0,0.0,0.0,0.0,0.0,0.0,0.0,0.0,0.0,0.0,0.0,0.0,0.0,0.0,0.0,0.0,0.0,0.0,0.0,0.0,0.0,0.0,0.0,0.0,0.0,0.0,0.0,0.0,0.0,0.0,0.0,0.0,0.0,0.0,0.0,0.0,0.0,0.0,0.0,0.0,0.0,0.0,0.0,0.0,0.0,0.0,0.0,0.0,0.0,0.0,0.0,0.0,0.0,0.0,0.0,0.0,0.0,0.0,0.0,0.0,0.0,0.0,0.0,0.0,0.0,0.0,0.0,0.0,0.0,0.0,0.0,0.0,0.0,0.0,0.0,0.0,0.0,0.0,0.0,0.0,0.0,0.0,0.0,0.0,0.0,0.0,0.0,0.0,0.0,0.0,0.0,0.0,0.0,0.0,0.0,0.0,0.0,0.0,0.0,0.0,0.0,0.0,0.0,0.0,0.0,0.0,0.0,10.1537,9.8409,9.7358,9.8502,9.5155,9.3854,0.0,0.0,0.0,0.0,0.0,0.0,0.0,0.0,0.0,0.0,0.0,0.0,0.0,0.0,0.0,0.0,0.0,0.0,0.0,0.0,0.0,0.0,0.0,0.0,0.0,0.0,0.0,0.0,0.0,0.0,0.0,0.0,0.0,0.0,0.0,0.0,0.0,0.0,0.0,0.0,0.0,0.0,0.0,0.0,0.0,0.0,0.0,0.0,0.0,0.0,0.0,0.0,0.0,0.0,0.0,0.0,0.0,0.0,0.0,0.0,0.0,0.0,0.0,0.0,0.0,0.0,0.0,0.0,0.0,0.0,0.0,0.0,0.0,0.0,0.0,0.0,0.0,0.0,0.0,0.0,0.0,0.0,0.0,0.0,0.0,0.0,0.0,0.0,0.0,0.0,0.0,0.0,0.0,0.0,0.0,0.0,0.0,0.0,0.0,0.0,0.0,0.0,0.0,0.0,0.0,0.0,0.0,0.0,0.0,10.2257,10.0121,9.9356,10.0147,9.638,9.4517,9.4999,0.0,0.0,0.0,0.0,0.0,0.0,0.0,0.0,0.0,0.0,0.0,0.0,0.0,0.0,0.0,0.0,0.0,0.0,0.0,0.0,0.0,0.0,0.0,0.0,0.0,0.0,0.0,0.0,0.0,0.0,0.0,0.0,0.0,0.0,0.0,0.0,0.0,0.0,0.0,0.0,0.0,0.0,0.0,0.0,0.0,0.0,0.0,0.0,0.0,0.0,0.0,0.0,0.0,0.0,0.0,0.0,0.0,0.0,0.0,0.0,0.0,0.0,0.0,0.0,0.0,0.0,0.0,0.0,0.0,0.0,0.0,0.0,0.0,0.0,0.0,0.0,0.0,0.0,0.0,0.0,0.0,0.0,0.0,0.0,0.0,0.0,0.0,0.0,0.0,0.0,0.0,0.0,0.0,0.0,0.0,0.0,0.0,0.0,0.0,0.0,0.0,0.0,0.0,0.0,0.0,0.0,0.0,0.0,10.1202,9.9665,9.9101,9.9505,9.6782,9.4818,0.0,0.0,0.0,0.0,0.0,0.0,0.0,0.0,0.0,0.0,0.0,0.0,0.0,0.0,0.0,0.0,0.0,0.0,0.0,0.0,0.0,0.0,0.0,0.0,0.0,0.0,0.0,0.0,0.0,0.0,0.0,0.0,0.0,0.0,0.0,0.0,0.0,0.0,0.0,0.0,0.0,0.0,0.0,0.0,0.0,0.0,0.0,0.0,0.0,0.0,0.0,0.0,0.0,0.0,0.0,0.0,0.0,0.0,0.0,0.0,0.0,0.0,0.0,0.0,0.0,0.0,0.0,0.0,0.0,0.0,0.0,0.0,0.0,0.0,0.0,0.0,0.0,0.0,0.0,0.0,0.0,0.0,0.0,0.0,0.0,0.0,0.0,0.0,0.0,0.0,0.0,0.0,0.0,0.0,0.0,0.0,0.0,0.0,0.0,0.0,0.0,0.0,0.0,0.0,0.0,0.0,0.0,0.0,9.7753,9.8019,9.6072,9.5768,9.6536,9.5771,9.4178,0.0,0.0,0.0,0.0,0.0,0.0,0.0,0.0,0.0,0.0,0.0,0.0,0.0,0.0,0.0,0.0,0.0,0.0,0.0,0.0,0.0,0.0,0.0,0.0,0.0,0.0,0.0,0.0,0.0,0.0,0.0,0.0,0.0,0.0,0.0,0.0,0.0,0.0,0.0,0.0,0.0,0.0,0.0,0.0,0.0,0.0,0.0,0.0,0.0,0.0,0.0,0.0,0.0,0.0,0.0,0.0,0.0,0.0,0.0,0.0,0.0,0.0,0.0,0.0,0.0,0.0,0.0,0.0,0.0,0.0,0.0,0.0,0.0,0.0,0.0,0.0,0.0,0.0,0.0,0.0,0.0,0.0,0.0,0.0,0.0,0.0,0.0,0.0,0.0,0.0,0.0,0.0,0.0,0.0,0.0,0.0,0.0,0.0,0.0,0.0,0.0,0.0,0.0,0.0,0.0,0.0,0.0,0.0,0.0,9.6828,0.0,9.581,0.0,9.4394,9.1953,0.0,0.0,0.0,0.0,0.0,0.0,0.0,0.0,0.0,0.0,0.0,0.0,0.0,0.0,0.0,0.0,0.0,0.0,0.0,0.0,0.0,0.0,0.0,0.0,0.0,0.0,0.0,0.0,0.0,0.0,0.0,0.0,0.0,0.0,0.0,0.0,0.0,0.0,0.0,0.0,0.0,0.0,0.0,0.0,0.0,0.0,0.0,0.0,0.0,0.0,0.0,0.0,0.0,0.0,0.0,0.0,0.0,0.0,0.0,0.0,0.0,0.0,0.0,0.0,0.0,0.0,0.0,0.0,0.0,0.0,0.0,0.0,0.0,0.0,0.0,0.0,0.0,0.0,0.0,0.0,0.0,0.0,0.0,0.0,0.0,0.0,0.0,0.0,0.0,0.0,0.0,0.0,0.0,0.0,0.0,0.0,0.0,0.0,0.0,0.0,0.0,0.0,0.0,0.0,0.0,0.0,0.0,0.0,0.0,9.5355,9.4587,9.4787,9.594,9.3755,9.1412,0.0,0.0,0.0,0.0,0.0,0.0,0.0,0.0,0.0,0.0,0.0,0.0,0.0,0.0,0.0,0.0,0.0,0.0,0.0,0.0,0.0,0.0,0.0,0.0,0.0,0.0,0.0,0.0,0.0,0.0,0.0,0.0,0.0,0.0,0.0,0.0,0.0,0.0,0.0,0.0,0.0,0.0,0.0,0.0,0.0,0.0,0.0,0.0,0.0,0.0,0.0,0.0,0.0,0.0,0.0,0.0,0.0,0.0,0.0,0.0,0.0,0.0,0.0,0.0,0.0,0.0,0.0,0.0,0.0,0.0,0.0,0.0,0.0,0.0,0.0,0.0,0.0,0.0,0.0,0.0,0.0,0.0,0.0,0.0,0.0,0.0,0.0,0.0,0.0,0.0,0.0,0.0,0.0,0.0,0.0,0.0,0.0,0.0,0.0,0.0,0.0,0.0,0.0,0.0,0.0,0.0,0.0,0.0,0.0,0.0,9.3218,9.2411,9.1357,9.3658,9.1858,0.0,0.0,0.0,0.0,0.0,0.0,0.0,0.0,0.0,0.0,0.0,0.0,0.0,0.0,0.0,0.0,0.0,0.0,0.0,0.0,0.0,0.0,0.0,0.0,0.0,0.0,0.0,0.0,0.0,0.0,0.0,0.0,0.0,0.0,0.0,0.0,0.0,0.0,0.0,0.0,0.0,0.0,0.0,0.0,0.0,0.0,0.0,0.0,0.0,0.0,0.0,0.0,0.0,0.0,0.0,0.0,0.0,0.0,0.0,0.0,0.0,0.0,0.0,0.0,0.0,0.0,0.0,0.0,0.0,0.0,0.0,0.0,0.0,0.0,0.0,0.0,0.0,0.0,0.0,0.0,0.0,0.0,0.0,0.0,0.0,0.0,0.0,0.0,0.0,0.0,0.0,0.0,0.0,0.0,0.0,0.0,0.0,0.0,0.0,0.0,0.0,0.0,0.0,0.0,0.0,0.0,0.0,0.0,0.0,0.0,9.1938,0.0,8.9994,8.8391,8.6728,8.4854,0.0,0.0,0.0,0.0,0.0,0.0,0.0,0.0,0.0,0.0,0.0,0.0,0.0,0.0,0.0,0.0,0.0,0.0,0.0,0.0,0.0,0.0,0.0,0.0,0.0,0.0,0.0,0.0,0.0,0.0,0.0,0.0,0.0,0.0,0.0,0.0,0.0,0.0,0.0,0.0,0.0,0.0,0.0,0.0,0.0,0.0,0.0,0.0,0.0,0.0,0.0,0.0,0.0,0.0,0.0,0.0,0.0,0.0,0.0,0.0,0.0,0.0,0.0,0.0,0.0,0.0,0.0,0.0,0.0,0.0,0.0,0.0,0.0,0.0,0.0,0.0,0.0,0.0,0.0,0.0,0.0,0.0,0.0,0.0,0.0,0.0,0.0,0.0,0.0,0.0,0.0,0.0,0.0,0.0,0.0,0.0,0.0,0.0,0.0,0.0,0.0,0.0,0.0,0.0,0.0,0.0,0.0,0.0,0.0,0.0,0.0,8.8686,8.5889,8.3971,0.0,0.0,0.0,0.0,0.0,0.0,0.0,0.0,0.0,0.0,0.0,0.0,0.0,0.0,0.0,0.0,0.0,0.0,0.0,0.0,0.0,0.0,0.0,0.0,0.0,0.0,0.0,0.0,0.0,0.0,0.0,0.0,0.0,0.0,0.0,0.0,0.0,0.0,0.0,0.0,0.0,0.0,0.0,0.0,0.0,0.0,0.0,0.0,0.0,0.0,0.0,0.0,0.0,0.0,0.0,0.0,0.0,0.0,0.0,0.0,0.0,0.0,0.0,0.0,0.0,0.0,0.0,0.0,0.0,0.0,0.0,0.0,0.0,0.0,0.0,0.0,0.0,0.0,0.0,0.0,0.0,0.0,0.0,0.0,0.0,0.0,0.0,0.0,0.0,0.0,0.0,0.0,0.0,0.0,0.0,0.0,0.0,0.0,0.0,0.0,0.0,0.0,0.0,0.0,0.0,0.0,0.0,0.0,0.0,0.0,0.0,8.6961,8.7543,8.5419,0.0,8.0825,0.0,0.0,0.0,0.0,0.0,0.0,0.0,0.0,0.0,0.0,0.0,0.0,0.0,0.0,0.0,0.0,0.0,0.0,0.0,0.0,0.0,0.0,0.0,0.0,0.0,0.0,0.0,0.0,0.0,0.0,0.0,0.0,0.0,0.0,0.0,0.0,0.0,0.0,0.0,0.0,0.0,0.0,0.0,0.0,0.0,0.0,0.0,0.0,0.0,0.0,0.0,0.0,0.0,0.0,0.0,0.0,0.0,0.0,0.0,0.0,0.0,0.0,0.0,0.0,0.0,0.0,0.0,0.0,0.0,0.0,0.0,0.0,0.0,0.0,0.0,0.0,0.0,0.0,0.0,0.0,0.0,0.0,0.0,0.0,0.0,0.0,0.0,0.0,0.0,0.0,0.0,0.0,0.0,0.0,0.0,0.0,0.0,0.0,0.0,0.0,0.0,0.0,0.0,0.0,0.0,0.0,0.0,0.0,0.0,0.0,0.0,0.0,8.5036,8.2968,8.138,0.0,0.0,0.0,0.0,0.0,0.0,0.0,0.0,0.0,0.0,0.0,0.0,0.0,0.0,0.0,0.0,0.0,0.0,0.0,0.0,0.0,0.0,0.0,0.0,0.0,0.0,0.0,0.0,0.0,0.0,0.0,0.0,0.0,0.0,0.0,0.0,0.0,0.0,0.0,0.0,0.0,0.0,0.0,0.0,0.0,0.0,0.0,0.0,0.0,0.0,0.0,0.0,0.0,0.0,0.0,0.0,0.0,0.0,0.0,0.0,0.0,0.0,0.0,0.0,0.0,0.0,0.0,0.0,0.0,0.0,0.0,0.0,0.0,0.0,0.0,0.0,0.0,0.0,0.0,0.0,0.0,0.0,0.0,0.0,0.0,0.0,0.0,0.0,0.0,0.0,0.0,0.0,0.0,0.0,0.0,0.0,0.0,0.0,0.0,0.0,0.0,0.0,0.0,0.0,0.0,0.0,0.0,0.0,0.0,0.0,8.6433,8.6728,8.4651,8.2968,8.1669,0.0,0.0,0.0,0.0,0.0,0.0,0.0,0.0,0.0,0.0,0.0,0.0,0.0,0.0,0.0,0.0,0.0,0.0,0.0,0.0,0.0,0.0,0.0,0.0,0.0,0.0,0.0,0.0,0.0,0.0,0.0,0.0,0.0,0.0,0.0,0.0,0.0,0.0,0.0,0.0,0.0,0.0,0.0,0.0,0.0,0.0,0.0,0.0,0.0,0.0,0.0,0.0,0.0,0.0,0.0,0.0,0.0,0.0,0.0,0.0,0.0,0.0,0.0,0.0,0.0,0.0,0.0,0.0,0.0,0.0,0.0,0.0,0.0,0.0,0.0,0.0,0.0,0.0,0.0,0.0,0.0,0.0,0.0,0.0,0.0,0.0,0.0,0.0,0.0,0.0,0.0,0.0,0.0,0.0,0.0,0.0,0.0,0.0,0.0,0.0,0.0,0.0,0.0,0.0,0.0,0.0,0.0,0.0,0.0,0.0,0.0,0.0,0.0,0.0,8.1577,0.0,0.0,0.0,0.0,0.0,0.0,0.0,0.0,0.0,0.0,0.0,0.0,0.0,0.0,0.0,0.0,0.0,0.0,0.0,0.0,0.0,0.0,0.0,0.0,0.0,0.0,0.0,0.0,0.0,0.0,0.0,0.0,0.0,0.0,0.0,0.0,0.0,0.0,0.0,0.0,0.0,0.0,0.0,0.0,0.0,0.0,0.0,0.0,0.0,0.0,0.0,0.0,0.0,0.0,0.0,0.0,0.0,0.0,0.0,0.0,0.0,0.0,0.0,0.0,0.0,0.0,0.0,0.0,0.0,0.0,0.0,0.0,0.0,0.0,0.0,0.0,0.0,0.0,0.0,0.0,0.0,0.0,0.0,0.0,0.0,0.0,0.0,0.0,0.0,0.0,0.0,0.0,0.0,0.0,0.0,0.0,0.0,0.0,0.0,0.0,0.0,0.0,0.0,0.0,0.0,0.0,0.0,0.0,0.0,0.0,0.0,0.0,0.0,0.0,0.0,0.0,0.0,0.0,0.0,0.0,0.0,0.0,0.0,0.0,0.0,0.0,0.0,0.0,0.0,0.0,0.0,0.0,0.0,0.0,0.0,0.0,0.0,0.0,0.0,0.0,0.0,0.0,0.0,0.0,0.0,0.0,0.0,0.0,0.0,0.0,0.0,0.0,0.0,0.0,0.0,0.0,0.0,0.0,0.0,0.0,0.0,0.0,0.0,0.0,0.0,0.0,0.0,0.0,0.0,0.0,0.0,0.0,0.0,0.0,0.0,0.0,0.0,0.0,0.0,0.0,0.0,0.0,0.0,0.0,0.0,0.0,0.0,0.0,0.0,0.0,0.0,0.0,0.0,0.0,0.0,0.0,0.0,0.0,0.0,0.0,0.0,0.0,0.0,0.0,0.0,0.0,0.0,0.0,0.0,0.0,0.0,0.0,0.0,0.0,0.0,0.0,0.0,0.0,0.0,0.0,0.0,0.0,0.0,0.0,0.0,0.0,0.0,0.0,0.0,0.0,0.0,0.0,0.0,0.0,0.0,0.0,0.0,0.0,0.0,0.0,0.0,0.0,0.0,0.0,0.0,0.0,0.0,0.0,0.0,0.0,0.0,0.0,0.0,0.0,0.0,0.0,0.0,0.0,0.0,0.0,0.0,0.0,0.0,0.0,0.0,0.0,0.0,0.0,0.0,0.0,0.0,0.0,0.0,0.0,0.0,0.0,0.0,0.0,0.0,0.0,0.0,0.0,0.0,0.0,0.0,0.0,0.0,0.0,0.0,0.0,0.0,0.0,0.0,0.0,0.0,0.0,0.0,0.0,0.0,0.0,0.0,0.0,0.0,0.0,0.0,0.0,0.0,0.0,0.0,0.0,0.0,0.0,0.0,0.0,0.0,0.0,0.0,0.0,0.0,0.0,0.0,0.0,0.0,0.0,0.0,0.0,0.0,0.0,0.0,0.0,0.0,0.0,0.0,0.0,0.0,0.0,0.0,0.0,0.0,0.0,0.0,0.0,0.0,0.0,0.0,0.0,0.0,0.0,0.0,0.0,0.0,0.0,0.0,0.0,0.0,0.0,0.0,0.0,0.0,0.0,0.0,0.0,0.0,0.0,0.0,0.0,0.0,0.0,0.0,0.0,0.0,0.0,0.0,0.0,0.0,0.0,0.0,0.0,0.0,0.0,0.0,0.0,0.0,0.0,0.0,0.0,0.0,0.0,0.0,0.0,0.0,0.0,0.0,0.0,0.0,0.0,0.0,0.0,0.0,0.0,0.0,0.0,0.0,0.0,0.0,0.0,0.0,0.0,0.0,0.0,0.0,0.0,0.0,0.0,0.0,0.0,0.0,0.0,0.0,0.0,0.0,0.0,0.0,0.0,0.0,0.0,0.0,0.0,0.0,0.0,0.0,0.0,0.0,0.0,0.0,0.0,0.0,0.0,0.0,0.0,0.0,0.0,0.0,0.0,0.0,0.0,0.0,0.0,0.0,0.0,0.0,0.0,0.0,0.0,0.0,0.0,0.0,0.0,0.0,0.0,0.0,0.0,0.0,0.0,0.0,0.0,0.0,0.0,0.0,0.0,0.0,0.0,0.0,0.0,0.0,0.0,0.0,0.0,0.0,0.0,0.0,0.0,0.0,0.0,0.0,0.0,0.0,0.0,0.0,0.0,0.0,0.0,0.0,0.0,0.0,0.0,0.0,0.0,0.0,0.0,0.0,0.0,0.0,0.0,0.0,0.0,0.0,0.0,0.0,0.0,0.0,0.0,0.0,0.0,0.0,0.0,0.0,0.0,0.0,0.0,0.0,0.0,0.0,0.0,0.0,0.0,0.0,0.0,0.0,0.0,0.0,0.0,0.0,0.0,0.0,0.0,0.0,0.0,0.0,0.0,0.0,0.0,0.0,0.0,0.0,0.0,0.0,0.0,0.0,0.0,0.0,0.0,0.0,0.0,0.0,0.0,0.0,0.0,0.0,0.0,0.0,0.0,0.0,0.0,0.0,0.0,0.0,0.0,0.0,0.0,0.0,0.0,0.0,0.0,0.0,0.0,0.0,0.0,0.0,0.0,0.0,0.0,0.0,0.0,0.0,0.0,0.0,0.0,0.0,0.0,0.0,0.0,0.0,0.0,0.0,0.0,0.0,0.0,0.0,0.0,0.0,0.0,0.0,0.0,0.0,0.0,0.0,0.0,0.0,0.0,0.0,0.0,0.0,0.0,0.0,0.0,0.0,0.0,0.0,0.0,0.0,0.0,0.0,0.0,0.0,0.0,0.0,0.0,0.0,0.0,0.0,0.0,0.0,0.0,0.0,0.0,0.0,0.0,0.0,0.0,0.0,0.0,0.0,0.0,0.0,0.0,0.0,0.0,0.0,0.0,0.0,0.0,0.0,0.0,0.0,0.0,0.0,0.0,0.0,0.0,0.0,0.0,0.0,0.0,0.0,0.0,0.0,0.0,0.0,0.0,0.0,0.0,0.0,0.0,0.0,0.0,0.0,0.0,0.0,0.0,0.0,0.0,0.0,0.0,0.0,0.0,0.0,0.0,0.0,0.0,0.0,0.0,0.0,0.0,0.0,0.0,0.0,0.0,0.0,0.0,0.0,0.0,0.0,0.0,0.0,0.0,0.0,0.0,0.0,0.0,0.0,0.0,0.0,0.0,0.0,0.0,0.0,0.0,0.0,0.0,0.0,0.0,0.0,0.0,0.0,0.0,0.0,0.0,0.0,0.0,0.0,0.0,0.0,0.0,0.0,0.0,0.0,0.0,0.0,0.0,0.0,0.0,0.0,0.0,0.0,0.0,0.0,0.0,0.0,0.0,0.0,0.0,0.0,0.0,0.0,0.0,0.0,0.0,0.0,0.0,0.0,0.0,0.0,0.0,0.0,0.0,0.0,0.0,0.0,0.0,0.0,0.0,0.0,0.0,0.0,0.0,0.0,0.0,0.0,0.0,0.0,0.0,0.0,0.0,0.0,0.0,0.0,0.0,0.0,0.0,0.0,0.0,0.0,0.0,0.0,0.0,0.0,0.0,0.0,0.0,0.0,0.0,0.0,0.0,0.0,0.0,0.0,0.0,0.0,0.0,0.0,0.0,0.0,0.0,0.0,0.0,0.0,0.0,0.0,0.0,0.0,0.0,0.0,0.0,0.0,0.0,0.0,0.0,0.0,0.0,0.0,0.0,0.0,0.0,0.0,0.0,0.0,0.0,0.0,0.0,0.0,0.0,0.0,0.0,0.0,0.0,0.0,0.0,0.0,0.0,0.0,0.0,0.0,0.0,0.0,0.0,0.0,0.0,0.0,0.0,0.0,0.0,0.0,0.0,0.0,0.0,0.0,0.0,0.0,0.0,0.0,0.0,0.0,0.0,0.0,0.0,0.0,0.0,0.0,0.0,0.0,0.0,0.0,0.0,0.0,0.0,0.0,0.0,0.0,0.0,0.0,0.0,0.0,0.0,0.0,0.0,0.0,0.0,0.0,0.0,0.0,0.0,0.0,0.0,0.0,0.0,0.0,0.0,0.0,0.0,0.0,0.0,0.0,0.0,0.0,0.0,0.0,0.0,0.0,0.0,0.0,0.0,0.0,0.0,0.0,0.0,0.0,0.0,0.0,0.0,0.0,0.0,0.0,0.0,0.0,0.0,0.0,0.0,0.0,0.0,0.0,0.0,0.0,0.0,0.0,0.0,0.0,0.0,0.0,0.0,0.0,0.0,0.0,0.0,0.0,0.0,0.0,0.0,0.0,0.0,0.0,0.0,0.0,0.0,0.0,0.0,0.0,0.0,0.0,0.0,0.0,0.0,0.0,0.0,0.0,0.0,0.0,0.0,0.0,0.0,0.0,0.0,0.0,0.0,0.0,0.0,0.0,0.0]}]]]